[[{"header":{"parameterUnit":"m.s-1","parameterCategory":1,"la1":30.6,"la2":28.766,"lo1":-90.7593,"lo2":-88.6598,"dx":0.0162,"dy":0.0183,"nx":116,"ny":114,"refTime":"2022-11-14T18:00:00:Z","depth":0,"parameterNumber":2,"parameterNumberName":"U-component_of_WINDS"},"data":[0.0,0.0,0.0,0.0,0.0,0.0,0.0,0.0,0.0,0.0,0.0,0.0,0.0,0.0,0.0,0.0,0.0,0.0,0.0,0.0,0.0,0.0,0.0,0.0,0.0,0.0,0.0,0.0,0.0,0.0,0.0,0.0,0.0,0.0,0.0,0.0,0.0,0.0,0.0,0.0,0.0,0.0,0.0,0.0,0.0,0.0,0.0,0.0,0.0,0.0,0.0,0.0,0.0,0.0,0.0,0.0,0.0,0.0,0.0,0.0,0.0,0.0,0.0,0.0,0.0,0.0,0.0,0.0,0.0,0.0,0.0,0.0,0.0,0.0,0.0,0.0,0.0,0.0,0.0,0.0,0.0,0.0,0.0,0.0,0.0,0.0,0.0,0.0,0.0,0.0,0.0,0.0,0.0,0.0,0.0,0.0,0.0,0.0,0.0,0.0,0.0,0.0,0.0,0.0,0.0,0.0,0.0,0.0,0.0,0.0,0.0,0.0,0.0,0.0,0.0,0.0,0.0,0.0,0.0,0.0,0.0,0.0,0.0,0.0,0.0,0.0,0.0,0.0,0.0,0.0,0.0,0.0,0.0,0.0,0.0,0.0,0.0,0.0,0.0,0.0,0.0,0.0,0.0,0.0,0.0,0.0,0.0,0.0,0.0,0.0,0.0,0.0,0.0,0.0,0.0,0.0,0.0,0.0,0.0,0.0,0.0,0.0,0.0,0.0,0.0,0.0,0.0,0.0,0.0,0.0,0.0,0.0,0.0,0.0,0.0,0.0,0.0,0.0,0.0,0.0,0.0,0.0,0.0,0.0,0.0,0.0,0.0,0.0,0.0,0.0,0.0,0.0,0.0,0.0,0.0,0.0,0.0,0.0,0.0,0.0,0.0,0.0,0.0,0.0,0.0,0.0,0.0,0.0,0.0,0.0,0.0,0.0,0.0,0.0,0.0,0.0,0.0,0.0,0.0,0.0,0.0,0.0,0.0,0.0,0.0,0.0,0.0,0.0,0.0,0.0,0.0,0.0,0.0,0.0,0.0,0.0,0.0,0.0,0.0,0.0,0.0,0.0,0.0,0.0,0.0,0.0,0.0,0.0,0.0,0.0,0.0,0.0,0.0,0.0,0.0,0.0,0.0,0.0,0.0,0.0,0.0,0.0,0.0,0.0,0.0,0.0,0.0,0.0,0.0,0.0,0.0,0.0,0.0,0.0,0.0,0.0,0.0,0.0,0.0,0.0,0.0,0.0,0.0,0.0,0.0,0.0,0.0,0.0,0.0,0.0,0.0,0.0,0.0,0.0,0.0,0.0,0.0,0.0,0.0,0.0,0.0,0.0,0.0,0.0,0.0,0.0,0.0,0.0,0.0,0.0,0.0,0.0,0.0,0.0,0.0,0.0,0.0,0.0,0.0,0.0,0.0,0.0,0.0,0.0,0.0,0.0,0.0,0.0,0.0,0.0,0.0,0.0,0.0,0.0,0.0,0.0,0.0,0.0,0.0,0.0,0.0,0.0,0.0,0.0,0.0,0.0,0.0,0.0,0.0,0.0,0.0,0.0,0.0,0.0,0.0,0.0,0.0,0.0,0.0,0.0,0.0,0.0,0.0,0.0,0.0,0.0,0.0,0.0,0.0,0.0,0.0,0.0,0.0,0.0,0.0,0.0,0.0,0.0,0.0,0.0,0.0,0.0,0.0,0.0,0.0,0.0,0.0,0.0,0.0,0.0,0.0,0.0,0.0,0.0,0.0,0.0,0.0,0.0,0.0,0.0,0.0,0.0,0.0,0.0,0.0,0.0,0.0,0.0,0.0,0.0,0.0,0.0,0.0,0.0,0.0,0.0,0.0,0.0,0.0,0.0,0.0,0.0,0.0,0.0,0.0,0.0,0.0,0.0,0.0,0.0,0.0,0.0,0.0,0.0,0.0,0.0,0.0,0.0,0.0,0.0,0.0,0.0,0.0,0.0,0.0,0.0,0.0,0.0,0.0,0.0,0.0,0.0,0.0,0.0,0.0,0.0,0.0,0.0,0.0,0.0,0.0,0.0,0.0,0.0,0.0,0.0,0.0,0.0,0.0,0.0,0.0,0.0,0.0,0.0,0.0,0.0,0.0,0.0,0.0,0.0,0.0,0.0,0.0,0.0,0.0,0.0,0.0,0.0,0.0,0.0,0.0,0.0,0.0,0.0,0.0,0.0,0.0,0.0,0.0,0.0,0.0,0.0,0.0,0.0,0.0,0.0,0.0,0.0,0.0,0.0,0.0,0.0,0.0,0.0,0.0,0.0,0.0,0.0,0.0,0.0,0.0,0.0,0.0,0.0,0.0,0.0,0.0,0.0,0.0,0.0,0.0,0.0,0.0,0.0,0.0,0.0,0.0,0.0,0.0,0.0,0.0,0.0,0.0,0.0,0.0,0.0,0.0,0.0,0.0,0.0,0.0,0.0,0.0,0.0,0.0,0.0,0.0,0.0,0.0,0.0,0.0,0.0,0.0,0.0,0.0,0.0,0.0,0.0,0.0,0.0,0.0,0.0,0.0,0.0,0.0,0.0,0.0,0.0,0.0,0.0,0.0,0.0,0.0,0.0,0.0,0.0,0.0,0.0,0.0,0.0,0.0,0.0,0.0,0.0,0.0,0.0,0.0,0.0,0.0,0.0,0.0,0.0,0.0,0.0,0.0,0.0,0.0,0.0,0.0,0.0,0.0,0.0,0.0,0.0,0.0,0.0,0.0,0.0,0.0,0.0,0.0,0.0,0.0,0.0,0.0,0.0,0.0,0.0,0.0,0.0,0.0,0.0,0.0,0.0,0.0,0.0,0.0,0.0,0.0,0.0,0.0,0.0,0.0,0.0,0.0,0.0,0.0,0.0,0.0,0.0,0.0,0.0,0.0,0.0,0.0,0.0,0.0,0.0,0.0,0.0,0.0,0.0,0.0,0.0,0.0,0.0,0.0,0.0,0.0,0.0,0.0,0.0,0.0,0.0,0.0,0.0,0.0,0.0,0.0,0.0,0.0,0.0,0.0,0.0,0.0,0.0,0.0,0.0,0.0,0.0,0.0,0.0,0.0,0.0,0.0,0.0,0.0,0.0,0.0,0.0,0.0,0.0,0.0,0.0,0.0,0.0,0.0,0.0,0.0,0.0,0.0,0.0,0.0,0.0,0.0,0.0,0.0,0.0,0.0,0.0,0.0,0.0,0.0,0.0,0.0,0.0,0.0,0.0,0.0,0.0,0.0,0.0,0.0,0.0,0.0,0.0,0.0,0.0,0.0,0.0,0.0,0.0,0.0,0.0,0.0,0.0,0.0,0.0,0.0,0.0,0.0,0.0,0.0,0.0,0.0,0.0,0.0,0.0,0.0,0.0,0.0,0.0,0.0,0.0,0.0,0.0,0.0,0.0,0.0,0.0,0.0,0.0,0.0,0.0,0.0,0.0,0.0,0.0,0.0,0.0,0.0,0.0,0.0,0.0,0.0,0.0,0.0,0.0,0.0,0.0,0.0,0.0,0.0,0.0,0.0,0.0,0.0,0.0,0.0,0.0,0.0,0.0,0.0,0.0,0.0,0.0,0.0,0.0,0.0,0.0,0.0,0.0,0.0,0.0,0.0,0.0,0.0,0.0,0.0,0.0,0.0,0.0,0.0,0.0,0.0,0.0,0.0,0.0,0.0,0.0,0.0,0.0,0.0,0.0,0.0,0.0,0.0,0.0,0.0,0.0,0.0,0.0,0.0,0.0,0.0,0.0,0.0,0.0,0.0,0.0,0.0,0.0,0.0,0.0,0.0,0.0,0.0,0.0,0.0,0.0,0.0,0.0,0.0,0.0,0.0,0.0,0.0,0.0,0.0,0.0,0.0,0.0,0.0,0.0,0.0,0.0,0.0,0.0,0.0,0.0,0.0,0.0,0.0,0.0,0.0,0.0,0.0,0.0,0.0,0.0,0.0,0.0,0.0,0.0,0.0,0.0,0.0,0.0,0.0,0.0,0.0,0.0,0.0,0.0,0.0,0.0,0.0,0.0,0.0,0.0,0.0,0.0,0.0,0.0,0.0,0.0,0.0,0.0,0.0,0.0,0.0,0.0,0.0,0.0,0.0,0.0,0.0,0.0,0.0,0.0,0.0,0.0,0.0,0.0,0.0,0.0,0.0,0.0,0.0,0.0,0.0,0.0,0.0,0.0,0.0,0.0,0.0,0.0,0.0,0.0,0.0,0.0,0.0,0.0,0.0,0.0,0.0,0.0,0.0,0.0,0.0,0.0,0.0,0.0,0.0,0.0,0.0,0.0,0.0,0.0,0.0,0.0,0.0,0.0,0.0,0.0,0.0,0.0,0.0,0.0,0.0,0.0,0.0,0.0,0.0,0.0,0.0,0.0,0.0,0.0,0.0,0.0,0.0,0.0,0.0,0.0,0.0,0.0,0.0,0.0,0.0,0.0,0.0,0.0,0.0,0.0,0.0,0.0,0.0,0.0,0.0,0.0,0.0,0.0,0.0,0.0,0.0,0.0,0.0,0.0,0.0,0.0,0.0,0.0,0.0,0.0,0.0,0.0,0.0,0.0,0.0,0.0,0.0,0.0,0.0,0.0,0.0,0.0,0.0,0.0,0.0,0.0,0.0,0.0,0.0,0.0,0.0,0.0,0.0,0.0,0.0,0.0,0.0,0.0,0.0,0.0,0.0,0.0,0.0,0.0,0.0,0.0,0.0,0.0,0.0,0.0,0.0,0.0,0.0,0.0,0.0,0.0,0.0,0.0,0.0,0.0,0.0,0.0,0.0,0.0,0.0,0.0,0.0,0.0,0.0,0.0,0.0,0.0,0.0,0.0,0.0,0.0,0.0,0.0,0.0,0.0,0.0,0.0,0.0,0.0,0.0,0.0,0.0,0.0,0.0,0.0,0.0,0.0,0.0,0.0,0.0,0.0,0.0,0.0,0.0,0.0,0.0,0.0,0.0,0.0,0.0,0.0,0.0,0.0,0.0,0.0,0.0,0.0,0.0,0.0,0.0,0.0,0.0,0.0,0.0,0.0,0.0,0.0,0.0,0.0,0.0,0.0,0.0,0.0,0.0,0.0,0.0,0.0,0.0,0.0,0.0,0.0,0.0,0.0,0.0,0.0,0.0,0.0,0.0,0.0,0.0,0.0,0.0,0.0,0.0,0.0,0.0,0.0,0.0,0.0,0.0,0.0,0.0,0.0,0.0,0.0,0.0,0.0,0.0,0.0,0.0,0.0,0.0,0.0,0.0,0.0,0.0,0.0,0.0,0.0,0.0,0.0,0.0,0.0,0.0,0.0,0.0,0.0,0.0,0.0,0.0,0.0,0.0,0.0,0.0,0.0,0.0,0.0,0.0,0.0,0.0,0.0,0.0,0.0,0.0,0.0,0.0,0.0,0.0,0.0,0.0,0.0,0.0,0.0,0.0,0.0,0.0,0.0,0.0,0.0,0.0,0.0,0.0,0.0,0.0,0.0,0.0,0.0,0.0,0.0,0.0,0.0,0.0,0.0,0.0,0.0,0.0,0.0,0.0,0.0,0.0,0.0,0.0,0.0,0.0,0.0,0.0,0.0,0.0,0.0,0.0,0.0,0.0,0.0,0.0,0.0,0.0,0.0,0.0,0.0,0.0,0.0,0.0,0.0,0.0,0.0,0.0,0.0,0.0,0.0,0.0,0.0,0.0,0.0,0.0,0.0,0.0,0.0,0.0,0.0,0.0,0.0,0.0,0.0,0.0,0.0,0.0,0.0,0.0,0.0,0.0,0.0,0.0,0.0,0.0,0.0,0.0,0.0,0.0,0.0,0.0,0.0,0.0,0.0,0.0,0.0,0.0,0.0,0.0,0.0,0.0,0.0,0.0,0.0,0.0,0.0,0.0,0.0,0.0,0.0,0.0,0.0,0.0,0.0,0.0,0.0,0.0,0.0,0.0,0.0,0.0,0.0,0.0,0.0,0.0,0.0,0.0,0.0,0.0,0.0,0.0,0.0,0.0,0.0,0.0,0.0,0.0,0.0,0.0,0.0,0.0,0.0,0.0,0.0,0.0,0.0,0.0,0.0,0.0,0.0,0.0,0.0,0.0,0.0,0.0,0.0,0.0,0.0,0.0,0.0,5.3957,0.0,0.0,0.0,0.0,0.0,0.0,0.0,0.0,0.0,0.0,0.0,0.0,0.0,0.0,0.0,0.0,0.0,0.0,0.0,0.0,0.0,0.0,0.0,0.0,2.6041,2.6241,2.6722,2.6823,0.0,0.0,0.0,0.0,0.0,0.0,0.0,2.8298,2.9113,3.0177,3.1442,3.3124,3.5702,3.9021,3.8512,3.7225,3.5273,0.0,0.0,0.0,0.0,0.0,0.0,0.0,0.0,0.0,0.0,0.0,0.0,0.0,0.0,0.0,0.0,0.0,0.0,0.0,0.0,0.0,0.0,0.0,0.0,0.0,0.0,0.0,0.0,0.0,0.0,0.0,0.0,0.0,0.0,0.0,0.0,0.0,0.0,0.0,0.0,0.0,0.0,0.0,0.0,0.0,0.0,0.0,0.0,0.0,0.0,0.0,0.0,0.0,0.0,0.0,0.0,0.0,0.0,0.0,0.0,0.0,0.0,0.0,0.0,0.0,0.0,0.0,0.0,0.0,0.0,0.0,5.6464,0.0,0.0,0.0,0.0,0.0,0.0,0.0,0.0,0.0,0.0,0.0,0.0,0.0,0.0,0.0,0.0,0.0,0.0,0.0,0.0,0.0,2.5166,2.6761,2.7278,2.7828,2.8718,2.8856,2.8879,2.8945,2.884,0.0,0.0,0.0,0.0,2.8969,3.0653,3.2535,3.4531,3.7891,4.1445,4.5078,4.6836,0.0,0.0,0.0,0.0,0.0,0.0,0.0,0.0,0.0,0.0,0.0,0.0,0.0,0.0,0.0,0.0,0.0,0.0,0.0,0.0,0.0,0.0,0.0,0.0,0.0,0.0,0.0,0.0,0.0,0.0,0.0,0.0,0.0,0.0,0.0,0.0,0.0,0.0,0.0,0.0,0.0,0.0,0.0,0.0,0.0,0.0,0.0,0.0,0.0,0.0,0.0,0.0,0.0,0.0,0.0,0.0,0.0,0.0,0.0,0.0,0.0,0.0,0.0,0.0,0.0,0.0,6.5719,6.6587,6.8133,6.879,6.8745,6.7918,6.3758,6.1095,5.957,5.7523,0.0,0.0,0.0,0.0,0.0,0.0,0.0,0.0,0.0,0.0,0.0,0.0,0.0,0.0,0.0,0.0,0.0,0.0,0.0,2.6812,2.7789,2.9257,3.0569,3.1499,3.1586,3.1604,3.1585,3.0969,0.0,0.0,0.0,0.0,3.1582,3.3317,3.5781,3.9023,4.5391,4.9141,5.043,5.2187,5.2617,5.1758,0.0,0.0,0.0,0.0,0.0,0.0,0.0,0.0,0.0,0.0,0.0,0.0,0.0,0.0,0.0,0.0,0.0,0.0,0.0,0.0,0.0,0.0,0.0,0.0,0.0,0.0,0.0,0.0,0.0,0.0,0.0,0.0,0.0,0.0,0.0,0.0,0.0,0.0,0.0,0.0,0.0,0.0,0.0,0.0,4.8355,4.8702,0.0,0.0,0.0,0.0,0.0,0.0,0.0,0.0,0.0,0.0,0.0,0.0,0.0,6.1872,6.3729,6.5234,6.672,6.8214,6.8906,6.9817,7.0891,7.0968,7.1394,7.1915,7.1278,0.0,6.4971,6.4773,0.0,0.0,0.0,0.0,0.0,0.0,0.0,0.0,0.0,0.0,0.0,0.0,0.0,0.0,0.0,0.0,0.0,0.0,0.0,0.0,0.0,3.1875,3.3496,3.4917,3.5477,3.5564,3.5064,3.4215,0.0,0.0,0.0,3.2691,3.3551,3.6718,4.1211,4.7109,5.1601,5.4219,5.5078,5.6328,5.6914,5.6797,5.3633,5.0898,4.8476,4.6523,0.0,0.0,0.0,0.0,0.0,0.0,0.0,0.0,0.0,0.0,0.0,0.0,0.0,0.0,0.0,0.0,0.0,0.0,0.0,0.0,0.0,0.0,0.0,0.0,0.0,0.0,0.0,0.0,0.0,0.0,0.0,0.0,0.0,0.0,0.0,0.0,0.0,0.0,0.0,5.0164,5.3472,5.4895,5.3818,5.2664,0.0,0.0,0.0,0.0,0.0,0.0,0.0,0.0,0.0,6.2722,6.5758,6.7944,6.9203,7.0905,7.2413,7.3767,7.4138,7.4508,7.49,7.4478,7.4227,7.4111,7.4111,7.2985,7.1025,6.9227,6.6838,6.422,0.0,0.0,0.0,0.0,6.2812,6.4849,0.0,0.0,0.0,0.0,0.0,0.0,0.0,0.0,0.0,0.0,0.0,0.0,3.3059,3.5342,3.7464,3.9423,3.9978,3.9947,3.9326,3.785,3.6211,3.4453,3.4414,3.4805,3.5664,4.1016,4.7187,5.4023,5.664,5.8359,5.9219,6.0117,6.0508,6.0469,5.9844,5.7148,5.2969,5.1719,4.9023,0.0,0.0,0.0,0.0,0.0,0.0,0.0,0.0,0.0,0.0,0.0,0.0,0.0,0.0,0.0,0.0,0.0,0.0,0.0,0.0,0.0,0.0,0.0,0.0,0.0,0.0,0.0,0.0,0.0,0.0,0.0,0.0,0.0,0.0,0.0,0.0,0.0,0.0,5.4626,5.7319,5.9858,5.828,5.7011,0.0,0.0,0.0,0.0,0.0,0.0,6.2205,6.5257,6.7564,6.8734,7.1485,7.3347,7.4242,7.5563,7.6803,7.8081,7.8085,7.8106,7.8106,7.7487,7.6904,7.6301,7.6283,7.6283,7.6068,7.3082,7.1037,6.9589,6.7782,6.7355,6.7677,6.7321,6.8739,7.0948,0.0,0.0,0.0,0.0,0.0,0.0,0.0,0.0,0.0,0.0,0.0,3.4133,3.6768,4.0008,4.3056,4.5607,4.5135,4.4677,4.4609,4.1523,3.8945,3.7187,3.7109,3.75,3.8398,4.6601,5.3086,5.7656,6.0195,6.1875,6.2773,6.3633,6.4023,6.4023,6.3984,6.1601,5.7422,5.4883,5.2734,5.0703,0.0,0.0,0.0,0.0,0.0,0.0,0.0,0.0,0.0,0.0,0.0,0.0,0.0,0.0,0.0,0.0,0.0,0.0,0.0,0.0,0.0,0.0,0.0,0.0,0.0,0.0,0.0,0.0,0.0,0.0,0.0,0.0,0.0,0.0,0.0,0.0,0.0,0.0,0.0,6.1666,6.1127,0.0,0.0,0.0,0.0,6.282,6.6049,6.8396,6.9355,7.1897,7.4154,7.5929,7.6897,7.7832,7.8748,7.8865,7.8999,7.9126,7.9126,7.9181,7.9314,7.9275,7.9252,7.9282,7.9282,7.9282,7.9112,7.7159,7.5891,7.5093,7.5133,7.4663,7.4125,7.4921,7.5296,7.5601,0.0,0.0,0.0,2.5615,2.5571,2.5771,2.6334,2.7199,2.8455,3.0455,3.3278,3.6254,3.9415,4.2822,4.576,4.7793,4.8664,4.8671,4.7578,4.5312,4.3008,4.0664,4.0586,4.2812,4.7578,5.3437,5.8242,6.2031,6.3476,6.4648,6.5508,6.582,6.5976,6.5976,6.5976,6.5117,6.3515,6.0898,5.8164,5.539,5.3047,4.9726,0.0,0.0,0.0,0.0,0.0,0.0,0.0,0.0,0.0,0.0,0.0,0.0,0.0,0.0,0.0,0.0,0.0,0.0,0.0,0.0,0.0,0.0,0.0,0.0,0.0,0.0,0.0,0.0,0.0,0.0,0.0,0.0,0.0,0.0,0.0,0.0,0.0,6.5782,6.4936,0.0,6.559,6.6024,6.6805,6.8203,7.1077,7.3141,7.4099,7.6105,7.7777,7.9039,8.0476,8.1407,8.1792,8.2419,8.2737,8.2727,8.2727,8.2766,8.2779,8.2268,8.2036,8.2036,8.1499,8.1577,8.2006,8.1334,7.9929,7.8105,7.7568,7.7521,7.7753,7.755,7.8129,7.9218,0.0,0.0,0.0,2.5613,2.5886,2.6279,2.6835,2.8161,3.0037,3.2622,3.5759,3.912,4.2896,4.6108,4.8967,5.1279,5.1991,5.1914,5.1094,4.9141,4.6992,4.4687,4.543,4.8984,5.5586,5.8867,6.2187,6.5625,6.6172,6.707,6.8164,6.8164,6.8359,6.8594,6.832,6.8164,6.8047,6.6055,6.3203,5.9883,5.7851,5.4805,5.1133,0.0,0.0,0.0,0.0,0.0,0.0,0.0,0.0,0.0,0.0,0.0,0.0,0.0,0.0,0.0,0.0,0.0,0.0,0.0,0.0,0.0,0.0,0.0,0.0,0.0,0.0,0.0,0.0,0.0,0.0,0.0,0.0,0.0,0.0,0.0,6.5743,6.8886,6.8296,6.8296,7.0042,7.0541,7.1463,7.3195,7.5808,7.7638,7.8279,7.999,8.1247,8.1898,8.3065,8.3735,8.3806,8.4412,8.4756,8.4776,8.4776,8.4766,8.4756,8.4224,8.3984,8.3925,8.3378,8.3448,8.3978,8.3978,8.2936,8.1314,8.0748,8.0891,8.1304,8.0782,8.1284,8.2319,0.0,0.0,2.5749,2.5749,2.6451,2.7036,2.7081,2.923,3.1811,3.4435,3.8508,4.2845,4.7171,4.9902,5.2839,5.6289,5.5078,5.4453,5.5273,5.293,5.082,0.0,0.0,0.0,6.168,6.2734,6.4883,6.832,6.8359,6.9219,7.082,7.082,7.1289,7.2031,7.1211,7.082,7.0781,6.9961,6.7656,6.4297,6.168,5.9062,5.6445,0.0,0.0,0.0,0.0,0.0,0.0,0.0,0.0,0.0,0.0,0.0,0.0,0.0,0.0,0.0,0.0,0.0,0.0,0.0,0.0,0.0,0.0,0.0,0.0,0.0,0.0,0.0,0.0,0.0,0.0,0.0,0.0,0.0,6.3512,6.5667,6.8193,7.0812,7.1146,7.1852,7.3712,7.4734,7.5979,7.7711,8.0359,8.1931,8.1971,8.3675,8.4669,8.4728,8.4767,8.4824,8.487,8.4876,8.4927,8.499,8.5029,8.5019,8.5032,8.5032,8.5058,8.5078,8.5078,8.5073,8.5077,8.5077,8.5032,8.4993,8.4944,8.4912,8.4912,8.4912,8.4912,8.4951,2.5685,2.6193,2.6622,2.6622,2.7364,2.8145,2.8808,3.1036,3.3615,3.6233,4.0338,4.4405,4.8123,5.0818,5.3475,5.6367,5.6172,5.5976,5.6211,5.4961,5.4609,0.0,0.0,0.0,6.4453,6.6601,6.8789,7.0976,7.1601,7.2461,7.3515,7.3515,7.3672,7.3867,7.3633,7.3515,7.3476,7.2617,7.1328,6.9609,6.6406,6.3555,6.1015,0.0,0.0,0.0,0.0,0.0,0.0,0.0,0.0,0.0,0.0,0.0,0.0,0.0,0.0,0.0,0.0,0.0,0.0,0.0,0.0,0.0,0.0,0.0,0.0,0.0,0.0,0.0,0.0,0.0,0.0,0.0,6.5225,6.7331,6.7923,6.9669,7.1621,7.3588,7.387,7.4601,7.6374,7.8004,7.9445,8.0668,8.2647,8.3836,8.3944,8.5036,8.5682,8.5699,8.6324,8.6683,8.6666,8.6744,8.6756,8.6796,8.7382,8.7654,8.7692,8.8317,8.8592,8.8594,8.8594,8.8593,8.859,8.859,8.8239,8.7457,8.5623,8.4882,8.4882,8.4882,8.5311,8.5858,2.6241,2.6944,2.7531,2.7531,2.8273,2.9015,2.9521,3.2057,3.4866,3.7485,4.1904,4.6129,4.957,5.2578,5.5234,5.75,5.7695,5.7812,5.8164,5.8047,5.8906,0.0,0.0,6.5625,6.8203,7.0117,7.1758,7.3086,7.3594,7.4297,7.5156,7.5156,7.5351,7.5664,7.5312,7.5156,7.5078,7.4219,7.3555,7.289,7.0547,6.7812,6.5039,6.3633,6.1445,5.8906,5.7656,5.6289,5.4765,5.3203,0.0,0.0,0.0,0.0,0.0,0.0,0.0,0.0,0.0,0.0,0.0,0.0,0.0,0.0,0.0,0.0,0.0,0.0,0.0,0.0,0.0,0.0,0.0,0.0,6.9678,7.181,7.3393,7.3832,7.4642,7.6403,7.7001,7.7827,7.9326,8.0747,8.2003,8.2993,8.4429,8.5259,8.5273,8.6159,8.6639,8.6702,8.717,8.7444,8.7444,8.781,8.8008,8.8008,8.8867,8.9258,8.9258,8.9765,9.0,9.0,9.0,9.0,9.0,9.0,8.9687,0.0,0.0,0.0,0.0,0.0,8.7344,8.7773,2.7185,2.7849,2.8435,2.8435,2.9177,2.9764,2.9764,3.2648,3.5767,3.8268,4.3084,4.7617,5.1016,5.4336,5.7031,5.8906,5.9062,5.9531,6.0625,6.1601,0.0,6.6055,6.7734,6.9765,7.2226,7.3164,7.3984,7.4765,7.4844,7.5273,7.6055,7.6055,7.6445,7.7187,7.6406,7.6055,7.6015,7.5234,7.4844,7.4687,7.3789,7.1523,6.8515,6.7656,6.625,6.4531,6.3008,6.2383,6.1914,5.957,0.0,0.0,0.0,0.0,0.0,0.0,0.0,0.0,0.0,0.0,0.0,0.0,0.0,0.0,0.0,0.0,0.0,0.0,0.0,0.0,0.0,0.0,0.0,0.0,7.3844,7.6335,7.8882,7.8007,7.762,7.9144,8.0048,8.1019,8.2162,8.3097,8.3961,8.4805,8.573,8.6254,8.6267,0.0,0.0,0.0,0.0,8.7539,8.7617,8.8359,8.875,8.8867,8.9726,9.0156,9.0156,9.0234,9.0273,9.0273,9.0273,9.0273,9.0273,9.0273,9.0234,9.0078,8.9179,8.8867,8.8945,8.9726,9.0,9.0,2.8203,2.875,2.9336,2.9336,3.0078,3.0664,3.0664,3.3554,3.6444,3.8358,4.3086,4.7617,5.1016,5.3242,5.5508,5.793,5.8164,5.9375,6.2305,0.0,6.6289,6.957,7.0703,7.2148,7.4062,7.4961,7.5469,7.5664,7.6367,7.6797,7.6953,7.6953,7.7031,7.7187,7.7031,7.6953,7.6953,7.6758,7.6289,7.5586,7.4687,7.3125,7.1172,7.0312,6.8906,6.7383,6.707,6.6484,6.5703,6.4492,6.4101,6.3789,6.1875,5.9492,0.0,0.0,0.0,0.0,0.0,0.0,0.0,0.0,0.0,0.0,0.0,0.0,0.0,0.0,0.0,0.0,0.0,0.0,0.0,7.4092,7.673,7.9078,8.098,8.1621,8.1699,8.1311,8.1504,8.2336,8.3953,8.4935,8.5593,8.5831,8.6658,8.7152,8.7219,8.7379,8.7499,8.75,8.75,8.7812,8.8476,8.8633,8.9062,8.9765,0.0,0.0,9.1054,9.1797,9.2109,9.2109,9.2109,9.2109,9.2109,9.2109,9.1679,9.0976,9.0078,8.9765,8.9765,8.9922,9.0,9.0,2.9609,2.9961,3.0234,3.0234,3.0625,3.0898,3.0898,3.3437,3.5976,3.7734,4.2422,4.6641,4.9219,5.1797,5.4062,5.5781,5.789,6.043,0.0,6.5703,6.8242,7.1211,7.2617,7.3906,7.5234,7.6094,7.6562,7.6562,7.6992,7.7187,7.7187,7.7187,7.7187,7.7187,7.7187,7.7187,7.7187,7.7187,7.6953,7.6484,7.5586,7.4453,7.3164,7.1836,7.082,7.0039,6.9609,6.9453,6.9258,6.793,6.7773,6.7851,6.6133,6.414,6.1953,0.0,0.0,0.0,0.0,0.0,0.0,0.0,0.0,0.0,0.0,0.0,0.0,0.0,0.0,6.8472,7.0197,0.0,7.5033,7.758,7.9442,8.1152,8.2921,8.3632,8.3742,8.3243,8.3665,8.4373,8.5272,8.6161,8.673,8.6789,8.7201,8.7453,8.75,8.75,8.7695,8.8086,8.8086,8.8515,8.9336,8.9765,9.0234,9.0664,9.1523,9.2187,9.2617,9.3047,9.3476,9.3906,9.3906,9.3906,9.3906,9.3906,9.3633,9.3203,9.2773,9.1797,9.0703,9.1133,9.1289,9.1289,3.0742,3.0898,3.0898,3.0898,3.0898,3.0898,3.0898,3.293,3.5078,3.6836,4.125,4.5,4.6875,4.9844,5.2344,5.3867,5.7773,6.1406,0.0,6.6992,6.9609,7.2148,7.375,7.5,7.5898,7.6758,7.7187,7.7187,7.7187,7.7187,7.7187,7.7187,7.7187,7.7187,7.7187,7.7187,7.7187,7.7187,7.7187,7.7109,7.625,7.5469,7.4648,7.293,7.2148,7.1914,7.1211,7.1406,7.1797,7.039,7.0351,7.0703,6.9375,6.7734,6.6015,6.4258,6.1562,0.0,0.0,0.0,0.0,0.0,0.0,0.0,0.0,6.5992,6.8476,6.9887,7.2257,7.4388,7.5257,7.6755,7.8552,8.0792,8.203,8.3174,8.4587,8.5035,8.5182,8.5143,8.5663,8.6104,8.6323,8.6995,8.7444,8.75,8.75,8.7578,8.7734,8.7734,8.8125,8.8945,8.8945,8.9453,9.0508,9.1211,9.1719,9.207,9.2773,9.3476,9.414,9.414,9.4531,9.5195,9.5195,9.5195,9.5195,9.5195,9.5195,9.5195,9.5195,9.3906,9.2148,9.2851,9.3125,9.3125,3.0898,3.0898,3.0898,3.0898,3.0898,3.0898,3.0898,3.2422,3.418,3.5937,3.9336,4.2578,4.5039,4.6992,4.9726,5.3672,5.7265,0.0,6.5195,6.789,7.0508,7.3047,7.4062,7.5,7.5898,7.6758,7.7187,7.7187,7.7187,7.7187,7.7187,7.7187,7.7187,7.7187,7.7187,7.7187,7.7187,7.7187,7.7187,7.7109,7.625,7.5859,7.5547,7.3828,7.2656,7.1992,7.1875,7.1914,7.1953,7.1758,7.1758,7.1836,7.164,7.043,6.8711,6.6992,6.5117,6.3203,6.1562,6.1562,6.2226,6.3203,6.4726,6.6091,0.0,6.9639,7.2639,7.2799,7.5443,7.797,7.8847,8.0374,8.1844,8.2893,8.4454,8.5611,8.5793,8.6546,8.7091,8.7112,8.6512,8.6412,8.719,8.7408,8.75,8.75,8.75,8.7812,8.8515,8.8554,8.8945,8.9844,8.9844,9.0625,9.2304,9.2422,9.3242,9.4765,9.4844,9.4961,9.5039,9.5039,9.5117,9.5195,9.5195,9.5195,9.5195,9.5195,9.5195,9.5195,9.5195,9.5039,9.4765,9.4883,9.4922,9.4922,3.0898,3.0898,3.0898,3.0898,3.0898,3.0898,3.0898,3.1914,3.3125,3.4336,3.707,3.9531,4.1094,4.3711,4.668,5.0,5.4375,0.0,6.3789,6.6992,7.0117,7.3164,7.414,7.5,7.5898,7.6758,7.7187,7.7187,7.7187,7.7187,7.7187,7.7187,7.7187,7.7187,7.7187,7.7187,7.7187,7.7187,7.7187,7.7187,7.6797,7.6367,7.5781,7.4531,7.3515,7.2695,7.2187,7.168,0.0,7.125,7.125,7.1133,7.0664,7.0,6.9219,6.8008,6.6406,6.4883,6.418,6.4961,6.6367,6.7695,6.9726,7.164,7.265,7.5024,7.7321,7.8328,8.0023,8.1577,8.245,8.3185,8.4111,8.5504,8.6356,8.699,8.7507,8.7905,8.7993,8.7518,8.7147,8.7045,8.7411,8.7498,8.7695,8.8164,8.8203,8.8554,8.9414,8.9453,9.0078,9.1484,9.1523,9.2344,9.4101,9.4101,9.4492,9.5195,9.5195,9.5469,9.5976,9.5976,9.6211,9.664,9.664,9.664,9.664,9.664,9.664,9.664,9.664,9.6953,9.7226,9.5742,9.5195,9.5195,3.0898,3.0898,3.0898,3.0898,3.0898,3.0898,3.0898,3.1445,3.2148,3.2969,3.5117,3.7109,3.8437,4.125,4.4062,4.6641,5.1601,5.6758,0.0,6.5781,6.9258,7.2422,7.3633,7.4648,7.5508,7.6406,7.6953,7.7187,7.7187,7.7187,7.7187,7.7187,7.7187,7.7187,7.7187,7.7187,7.7187,7.6953,7.6836,7.6836,7.6562,7.625,7.5781,7.4648,7.3867,7.3164,7.2031,7.1094,7.0312,7.0078,7.0,6.9883,6.9258,6.9219,6.9258,6.8437,6.7305,6.6484,6.7187,6.8476,7.0,7.1719,7.3906,7.6015,7.7265,7.9022,8.0776,8.2026,8.3148,8.4159,8.5032,8.5361,8.6027,8.7525,8.794,8.8337,8.896,8.883,8.8468,8.7899,8.7846,8.7812,8.7812,8.7812,8.8164,8.8984,8.9062,8.9531,9.0664,9.0703,9.1523,9.3242,9.332,9.4023,9.5547,9.5547,9.5664,9.5898,9.5898,9.6211,9.6836,9.6836,9.7148,9.7695,9.7695,9.7695,9.7695,9.7695,9.7851,9.8047,9.8047,9.8594,9.914,9.7304,9.6601,9.6601,3.0898,3.0898,3.0898,3.0898,3.0898,3.0898,3.0898,3.0937,3.125,3.2109,3.3711,3.5742,3.832,4.0195,4.2305,4.4844,4.9805,5.4961,6.0156,6.4531,6.8086,7.0664,7.2422,7.375,7.4609,7.5508,7.6367,7.7187,7.7187,7.7187,7.7187,7.7187,7.7187,7.7187,7.7187,7.7187,7.7148,7.6289,7.5937,7.5859,7.5039,7.5156,7.5703,7.3984,7.332,7.3086,7.1367,7.0195,6.9336,6.8555,6.8281,6.8281,6.8242,6.8828,6.9336,6.8476,6.8164,6.8672,7.1133,7.2461,7.3555,7.5312,7.707,7.8398,7.8437,8.039,8.2226,8.2304,8.3672,8.5117,8.6015,8.6797,8.7614,8.8507,8.9359,8.993,8.996,8.9236,8.868,8.8671,8.8672,8.8672,8.8672,8.8672,8.9023,8.9883,8.9961,9.0703,9.2422,9.2539,9.332,9.5078,9.5117,9.5547,9.6445,9.6445,9.6836,9.7617,9.7617,9.7656,9.7656,9.7656,9.7695,9.7695,9.7695,9.7695,9.7695,9.7695,9.8203,9.8945,9.8945,9.9492,10.0312,10.0195,10.0117,10.0117,3.0898,3.0898,3.0898,3.0898,3.0898,3.0898,3.0898,3.0898,3.1016,3.1289,3.2812,0.0,0.0,0.0,0.0,0.0,4.75,5.2383,5.7539,6.1367,6.4844,6.8047,6.9844,7.1172,7.1992,7.3437,7.4336,7.4609,7.5781,7.6328,7.6367,7.6914,7.7187,7.7187,7.7187,7.6875,7.6367,7.664,7.6094,7.5078,7.5351,7.4961,7.4062,7.289,7.1719,7.039,0.0,6.7148,6.664,6.5234,6.5117,6.5508,6.4922,6.6133,6.7812,6.8125,6.8594,6.9609,7.2187,7.4336,7.6445,7.8711,8.0586,8.2031,8.2617,8.3398,8.4179,8.4765,8.5351,8.6015,8.6914,8.7265,8.7929,8.933,8.9799,9.0192,9.0781,9.0623,9.0192,8.9648,8.957,8.9804,9.0351,8.9883,8.9922,9.0781,9.1406,9.2226,9.3398,9.4023,9.4844,9.6015,9.6054,9.6445,9.7304,9.7304,9.7422,9.7695,9.7695,9.8008,9.8554,9.8554,9.8867,9.9414,9.9414,9.9414,9.9414,9.9414,9.9609,9.9844,9.9844,10.039,10.1211,10.1211,10.1484,10.1914,3.0898,3.0898,3.0898,3.0898,3.0898,0.0,0.0,0.0,0.0,0.0,0.0,0.0,0.0,0.0,0.0,0.0,0.0,4.9883,5.4453,5.8242,6.1875,6.5351,6.7187,6.8633,6.9765,7.1172,7.207,7.2383,7.4101,7.4961,7.5,7.5859,7.6289,7.6289,7.6289,7.5781,7.5,7.5586,7.4805,7.3242,7.3828,7.3164,7.1797,7.0625,6.9297,0.0,6.4453,6.332,6.3242,6.2695,6.3125,6.3789,6.3555,6.5469,6.8125,6.9609,7.0859,7.2344,7.4883,7.7265,7.9492,8.1445,8.3242,8.4687,8.5234,8.5625,8.5976,8.6562,8.6406,8.6367,8.6914,8.7304,8.7969,8.9297,9.0078,9.0781,9.164,9.1484,9.1094,9.0547,9.0469,9.082,9.1679,9.1523,9.164,9.2187,9.3047,9.3906,9.4765,9.5351,9.6054,9.6914,9.6914,9.7187,9.7695,9.8008,9.832,9.8633,9.8633,9.8906,9.9453,9.9453,9.9765,10.0312,10.0312,10.0312,10.0312,10.0312,10.0508,10.0781,10.0781,10.1289,10.2109,10.2109,10.2383,10.2695,3.0898,3.0898,3.0898,0.0,0.0,0.0,0.0,0.0,0.0,0.0,0.0,0.0,0.0,0.0,0.0,0.0,0.0,0.0,5.0976,5.5234,5.9101,6.2461,6.4336,6.6055,6.7773,6.8633,6.9492,7.0351,7.2148,7.3047,7.3125,7.4023,7.4453,7.4453,7.4414,7.3906,7.3086,7.3086,7.2109,7.0508,7.0547,7.0,6.8945,6.7305,6.6094,6.4726,6.0625,5.914,5.9375,6.0976,6.2226,6.3281,6.4258,6.6914,7.0117,7.2695,7.4687,7.6601,7.914,8.1133,8.2695,8.3594,8.5117,8.6367,8.6328,8.6953,8.75,8.7422,8.6719,8.6094,8.6133,8.6797,8.7656,8.8554,9.0117,9.1562,9.2461,9.1875,9.1367,0.0,0.0,0.0,0.0,0.0,0.0,9.4023,9.4804,9.5625,9.6445,9.6523,9.6914,9.7695,9.7695,9.7734,9.7773,9.8633,9.9492,10.0312,10.0312,10.0312,10.039,10.039,10.039,10.039,10.039,10.039,10.039,10.039,10.0898,10.1719,10.1719,10.2187,10.289,10.289,10.289,10.289,0.0,0.0,0.0,0.0,0.0,0.0,0.0,0.0,0.0,0.0,0.0,0.0,0.0,0.0,0.0,0.0,0.0,0.0,4.8437,5.1992,0.0,0.0,0.0,0.0,0.0,0.0,0.0,0.0,6.832,6.9844,7.0508,7.1953,7.2656,7.2617,7.1992,7.1211,7.039,7.039,6.9414,6.793,6.8594,6.7539,6.5469,6.4414,6.2695,6.0586,5.8867,5.8242,5.8281,5.8711,6.1562,6.5312,6.75,6.9648,7.1875,7.4453,7.6484,7.8398,8.0937,8.3398,8.539,8.6289,8.7773,8.8867,8.8203,8.7773,8.7304,8.6679,8.5312,8.4453,8.5117,8.539,8.625,8.8359,8.9609,9.0859,9.2383,9.2422,9.2265,9.2265,0.0,9.332,9.3554,9.4922,0.0,9.5859,9.6054,9.6289,9.6484,9.707,9.75,9.7695,9.7695,9.8008,9.8672,9.9531,10.0117,10.0312,10.0312,10.0586,10.1289,10.1289,10.1601,10.2187,10.2187,10.2187,10.2187,10.2187,10.2383,10.2617,10.2617,10.2695,10.289,10.289,10.289,10.289,0.0,0.0,0.0,0.0,0.0,0.0,0.0,0.0,0.0,0.0,0.0,0.0,0.0,0.0,0.0,0.0,0.0,0.0,0.0,4.8984,0.0,0.0,0.0,0.0,0.0,0.0,0.0,0.0,0.0,0.0,6.668,6.8008,6.8633,6.8594,6.8125,6.7422,6.6601,6.6992,6.6172,0.0,0.0,6.4023,6.1914,6.0664,5.9062,5.7383,5.6484,5.7656,5.9844,6.1797,6.4844,6.8359,7.1367,7.3476,7.5273,7.75,7.9648,8.1797,8.3984,8.5898,8.75,8.8398,8.9297,8.9883,8.9375,8.8047,8.6797,8.6289,8.4219,8.2734,8.3594,8.4062,8.5156,8.7734,8.9531,9.1172,9.2929,9.3515,9.375,9.375,9.4179,0.0,9.5,9.5937,9.664,9.6992,9.7031,9.7031,9.7031,9.7461,9.789,9.8242,9.8281,9.8867,10.0117,10.0586,10.1094,10.1406,10.1406,10.1719,10.2187,10.2187,10.2383,10.289,10.289,10.289,10.289,10.289,10.289,10.289,10.289,10.289,10.289,10.289,10.289,10.289,0.0,0.0,0.0,0.0,0.0,0.0,0.0,0.0,0.0,0.0,3.4648,0.0,0.0,0.0,0.0,0.0,0.0,0.0,0.0,0.0,0.0,0.0,0.0,0.0,0.0,0.0,0.0,0.0,0.0,0.0,0.0,6.3398,6.3828,6.3945,6.3711,6.3203,6.2539,6.3047,6.2422,6.1015,6.1015,6.0078,5.8515,0.0,0.0,5.4883,5.4492,5.7578,6.2539,6.7031,6.9726,7.1836,7.5312,7.7617,7.9336,8.1015,8.3281,8.5586,8.7226,8.8359,8.9219,8.9961,9.0156,9.0117,8.9883,8.7851,8.5976,8.5742,8.3008,8.0976,8.1953,8.2851,8.4336,8.707,8.9531,9.1797,9.3633,9.4531,9.5078,9.5195,9.5312,9.5664,9.6445,9.6601,9.6953,9.7656,9.7812,9.7851,9.7851,9.7851,9.8281,9.914,9.9297,10.0117,10.1601,10.1719,10.2187,10.289,10.289,10.289,10.289,10.289,10.289,10.289,10.289,10.289,10.289,10.289,10.289,10.289,10.289,10.289,10.289,10.289,10.289,10.289,0.0,0.0,0.0,0.0,0.0,0.0,0.0,0.0,0.0,0.0,3.7187,3.7187,0.0,0.0,0.0,0.0,0.0,0.0,0.0,0.0,0.0,0.0,0.0,0.0,0.0,0.0,0.0,0.0,0.0,0.0,0.0,6.0703,6.1445,6.2109,6.0703,6.0,5.9765,5.8476,5.7773,5.7461,5.7461,5.6875,5.5859,0.0,0.0,0.0,5.543,5.8984,6.3555,6.8555,7.1914,7.4531,7.7969,8.0234,8.1992,8.3711,8.5586,8.7265,8.8242,8.9648,9.0898,9.1054,9.1054,9.0703,8.9258,8.6953,8.4726,8.3281,8.082,7.9414,8.0937,8.1953,8.3633,8.6953,8.9023,9.1094,9.3554,9.4023,9.4375,9.5117,9.5859,9.6328,9.6484,9.7109,9.7539,9.7695,9.8359,9.8789,9.8789,9.8789,9.9179,10.0,10.0781,10.1289,10.1601,10.2304,10.2812,10.289,10.289,10.289,10.289,10.289,10.289,10.289,10.289,0.0,10.289,10.289,10.289,10.289,10.289,10.289,10.289,10.289,10.289,10.289,0.0,0.0,0.0,0.0,0.0,0.0,0.0,3.8398,4.0937,4.1836,4.2344,4.1797,3.9531,4.0039,4.0391,0.0,0.0,0.0,0.0,0.0,0.0,0.0,0.0,0.0,0.0,0.0,0.0,0.0,0.0,0.0,0.0,0.0,0.0,0.0,0.0,5.6484,5.6445,5.5586,5.5234,5.5195,5.4765,5.4336,0.0,0.0,0.0,0.0,5.6484,5.9726,6.3711,6.8476,7.2109,7.5351,7.9687,8.2265,8.3906,8.5195,8.6797,8.832,8.914,9.0312,9.1406,9.1875,9.1289,9.0273,8.8984,8.6015,8.3164,8.1875,7.9609,7.8359,8.0,8.1406,8.3437,8.6914,8.9297,9.1601,9.4219,9.4961,9.5547,9.6406,9.6875,9.7109,9.7109,9.789,9.8398,9.8398,9.9179,9.9492,9.9023,9.9844,10.0508,10.1015,10.1797,10.2304,10.2304,10.2695,10.289,10.289,10.289,10.289,10.289,10.289,10.289,10.289,10.289,10.289,10.289,10.289,10.289,10.289,10.289,10.289,10.289,10.289,10.289,10.289,0.0,0.0,0.0,0.0,0.0,0.0,3.7539,4.1328,4.4414,4.5664,4.7344,4.6719,4.2305,4.1758,4.1367,0.0,0.0,0.0,0.0,0.0,0.0,0.0,0.0,0.0,0.0,0.0,0.0,0.0,0.0,0.0,0.0,0.0,0.0,0.0,0.0,0.0,0.0,5.3516,5.3437,0.0,0.0,0.0,0.0,0.0,0.0,0.0,0.0,6.0117,6.3633,6.7812,7.1367,7.4922,7.9922,8.2929,8.4883,8.6094,8.7656,8.9179,9.0039,9.0898,9.1758,9.2422,9.1289,8.9726,8.8672,8.5273,8.1992,8.0937,7.8828,7.7656,7.918,8.0859,8.3086,8.6406,8.9062,9.1719,9.4531,9.5664,9.6601,9.7578,9.7695,9.7773,9.7969,9.8594,9.9062,9.9258,10.0117,10.0312,9.9609,10.1015,10.1914,10.1914,10.25,10.289,10.289,10.289,10.289,10.289,10.289,10.289,10.289,10.289,10.289,10.289,10.289,10.289,10.289,10.289,10.289,10.289,10.289,10.289,10.289,10.289,10.289,10.289,0.0,0.0,0.0,0.0,0.0,0.0,3.9141,4.2617,4.5742,4.8203,5.0,5.0273,4.8281,4.5312,4.3125,0.0,0.0,0.0,0.0,0.0,0.0,0.0,0.0,0.0,0.0,0.0,0.0,0.0,0.0,0.0,0.0,0.0,0.0,0.0,0.0,0.0,0.0,0.0,0.0,0.0,0.0,0.0,0.0,0.0,0.0,0.0,0.0,6.0117,6.3555,6.7109,7.0078,7.3008,7.7461,8.1094,8.4219,8.664,8.8554,9.0078,9.0937,9.1836,9.25,9.2578,9.1289,8.957,8.7969,8.4844,8.1836,8.0156,7.8437,7.75,7.8437,8.0,8.1992,8.4687,8.7265,9.0117,9.3554,9.4765,9.5898,9.75,9.7695,9.8008,9.8789,9.8945,9.9336,10.0117,10.1015,10.1406,10.1406,10.2304,10.2812,10.2812,10.289,10.289,10.289,10.289,10.289,10.289,10.289,10.289,10.289,10.289,10.289,10.289,10.289,10.289,0.0,10.289,10.289,10.289,10.289,10.289,10.289,10.289,10.289,10.289,0.0,0.0,0.0,0.0,0.0,0.0,4.0234,4.4492,4.8086,5.0156,5.2344,5.3086,5.1367,4.8594,4.5859,4.3398,0.0,0.0,0.0,0.0,0.0,0.0,0.0,0.0,0.0,0.0,0.0,0.0,0.0,0.0,0.0,0.0,0.0,0.0,0.0,0.0,0.0,0.0,0.0,0.0,0.0,0.0,0.0,0.0,0.0,0.0,0.0,0.0,6.3359,6.582,6.832,7.1015,7.4336,7.7383,8.0547,8.4726,8.75,8.9414,9.0273,9.1523,9.2617,9.2617,9.1289,8.957,8.789,8.4804,8.1797,8.0078,7.8359,7.7461,7.8359,7.9883,8.1875,8.4453,8.7031,8.9726,9.2695,9.4336,9.5625,9.6836,9.7422,9.8047,9.8906,9.9453,10.039,10.1797,10.2187,10.2383,10.2383,10.2695,10.289,10.289,10.289,10.289,10.289,10.289,10.289,10.289,10.289,10.289,10.289,10.289,10.289,10.289,10.289,10.289,0.0,10.289,10.289,10.289,10.289,10.289,10.289,10.289,10.289,10.289,0.0,0.0,0.0,0.0,0.0,3.8242,4.1133,4.5508,4.9219,5.1133,5.3437,5.4258,5.25,5.0508,4.7891,4.4375,4.3047,0.0,0.0,0.0,0.0,0.0,0.0,0.0,0.0,0.0,5.0703,5.1797,5.1797,0.0,0.0,0.0,0.0,0.0,0.0,0.0,0.0,0.0,0.0,0.0,0.0,0.0,0.0,0.0,0.0,0.0,0.0,0.0,0.0,0.0,0.0,6.9492,7.2109,7.4375,7.7109,8.2539,8.5937,8.8203,8.9297,9.0703,9.1836,9.1836,9.0547,8.8828,8.7109,8.4219,8.1445,7.9687,7.8203,7.7383,7.8008,7.9492,8.1406,8.375,8.6484,8.9258,9.1836,9.3711,9.5234,9.6367,9.6992,9.789,9.9258,10.039,10.1601,10.2812,10.289,10.289,10.289,10.289,10.289,10.289,10.289,10.289,10.289,10.289,10.289,10.289,10.289,10.289,10.289,10.289,10.289,10.289,10.289,10.289,0.0,10.289,10.289,10.289,10.289,10.289,10.289,10.289,10.289,10.289,0.0,0.0,0.0,0.0,0.0,0.0,4.1875,4.5351,4.8516,5.1055,5.293,5.3359,5.1601,5.0664,4.8789,4.5273,4.3398,0.0,0.0,0.0,0.0,0.0,0.0,0.0,0.0,0.0,5.1016,5.2695,5.2695,5.3125,5.3945,0.0,0.0,0.0,0.0,0.0,0.0,0.0,0.0,0.0,0.0,0.0,0.0,0.0,0.0,0.0,0.0,0.0,0.0,0.0,0.0,0.0,0.0,7.2617,7.4531,8.0547,8.4179,8.6601,8.8242,8.9375,9.0039,9.0039,8.8789,8.707,8.5312,8.289,8.0547,7.8867,7.7812,7.7187,7.7226,7.8594,8.0273,8.2031,8.5234,8.8398,9.0976,9.2812,9.457,9.6289,9.6523,9.75,10.0,10.1914,10.289,10.289,10.289,10.289,10.289,10.289,10.289,10.289,10.289,10.289,10.289,10.289,10.289,10.289,10.289,10.289,10.289,10.289,10.289,10.289,10.289,10.289,0.0,10.289,10.289,10.289,10.289,10.289,10.289,10.289,10.289,10.289,0.0,0.0,0.0,0.0,0.0,0.0,4.043,4.4101,4.7226,4.8633,5.0781,5.1797,5.0703,4.9805,4.8164,4.5234,4.3945,0.0,0.0,0.0,0.0,0.0,0.0,0.0,0.0,0.0,5.2187,5.2695,5.3906,5.4297,5.4023,5.4336,5.3828,5.2695,0.0,0.0,0.0,0.0,0.0,0.0,0.0,0.0,0.0,0.0,0.0,0.0,0.0,0.0,0.0,0.0,0.0,0.0,0.0,0.0,0.0,7.6836,8.0586,8.3906,8.5625,8.7187,8.8281,8.8281,8.7422,8.6133,8.4414,8.2461,8.0508,7.8867,7.7812,7.7187,7.7187,7.8555,8.0273,8.2031,8.5234,8.8164,9.0156,9.2929,9.5,9.5547,9.7656,9.9414,10.0195,10.1914,10.289,10.289,10.289,10.289,10.289,10.289,10.289,10.289,10.289,10.289,10.289,10.289,10.289,10.289,10.289,10.289,10.289,10.289,10.289,10.289,10.289,10.289,10.289,10.289,10.289,10.289,10.289,10.289,10.289,10.289,10.289,10.289,0.0,0.0,0.0,0.0,0.0,0.0,3.9726,4.2695,4.5273,4.6445,4.8281,4.9141,4.832,4.7734,4.6523,4.4219,4.3516,0.0,0.0,0.0,0.0,0.0,0.0,0.0,4.8906,5.1055,5.2695,5.3672,5.5117,5.5859,5.5976,5.5859,5.5195,5.4141,5.3125,5.2383,0.0,0.0,0.0,0.0,0.0,0.0,5.4375,0.0,0.0,0.0,0.0,0.0,0.0,0.0,0.0,0.0,0.0,0.0,0.0,0.0,7.7539,8.039,8.2773,8.4453,8.5547,8.5547,8.4883,8.3867,8.2461,8.1054,7.9687,7.8281,7.7578,7.7305,7.7617,7.9062,8.0742,8.25,8.5703,8.8554,9.0234,9.2929,9.5078,9.6015,9.8594,10.039,10.0781,10.2109,10.289,10.289,10.289,10.289,10.289,10.289,10.289,10.289,10.289,10.289,10.289,10.289,10.289,10.289,10.289,10.289,10.289,10.289,10.289,10.289,10.289,10.289,0.0,10.289,10.289,10.289,10.289,10.289,10.289,10.289,10.289,10.289,0.0,0.0,0.0,0.0,0.0,0.0,0.0,4.1172,4.2891,4.4531,4.5547,4.582,4.5,4.4922,4.4219,4.2539,0.0,0.0,0.0,0.0,0.0,0.0,0.0,0.0,4.8867,5.0586,5.2734,5.5312,5.6367,5.7695,5.9258,5.7695,5.6875,5.6562,5.4023,5.2773,0.0,0.0,0.0,0.0,0.0,5.3984,0.0,0.0,0.0,0.0,0.0,0.0,0.0,0.0,0.0,0.0,0.0,0.0,0.0,0.0,0.0,0.0,0.0,8.1406,8.2109,8.2109,8.1523,8.0664,7.9805,7.9023,0.0,7.7383,7.7265,7.7539,7.8359,7.9922,8.164,8.3398,8.6523,8.9336,9.1133,9.3008,9.5078,9.7578,9.9375,10.0703,10.1484,10.2383,10.289,10.289,10.289,10.289,10.289,10.289,10.289,10.289,10.289,10.289,10.289,10.289,10.289,10.289,10.289,10.289,10.289,10.289,10.289,10.289,10.289,10.289,10.289,10.289,10.289,10.289,10.289,10.289,10.289,10.289,10.289,10.289,0.0,0.0,0.0,0.0,0.0,0.0,0.0,0.0,0.0,0.0,4.3398,4.4219,4.4023,4.4023,4.3555,0.0,0.0,0.0,0.0,0.0,0.0,0.0,0.0,0.0,4.8867,5.1211,5.3359,5.5312,5.8125,5.9726,6.0117,6.039,5.9453,5.75,5.5547,5.3594,0.0,0.0,0.0,0.0,5.3281,5.3984,0.0,0.0,0.0,0.0,6.0586,6.2422,0.0,0.0,0.0,0.0,0.0,0.0,0.0,0.0,7.4765,7.5351,7.75,0.0,8.0312,8.0312,8.0156,7.9805,0.0,7.8633,7.8242,7.7383,7.7734,7.8242,7.8476,8.039,8.2578,8.4297,8.6914,8.9531,9.1953,9.4883,0.0,9.9453,10.0586,10.1406,10.1601,10.2383,10.289,10.289,10.289,10.289,10.289,10.289,10.289,10.289,10.289,10.289,10.289,10.289,10.289,10.289,10.289,10.289,10.289,10.289,10.289,10.289,10.289,10.289,10.289,10.289,10.289,10.289,10.289,10.289,10.289,10.289,10.289,10.289,0.0,0.0,0.0,0.0,0.0,0.0,0.0,0.0,0.0,0.0,0.0,4.2539,4.2539,4.2539,0.0,0.0,0.0,0.0,0.0,0.0,0.0,0.0,0.0,4.6289,4.8828,5.1016,5.3359,5.5898,5.8906,6.082,6.1601,6.207,6.1133,5.8906,5.6015,5.3711,0.0,0.0,0.0,5.2148,5.3906,0.0,0.0,0.0,0.0,0.0,6.0547,6.2422,0.0,6.5312,6.7305,6.9531,0.0,0.0,0.0,0.0,7.4609,7.5078,7.7226,7.8164,7.8633,7.9062,7.8867,7.8555,7.8515,7.8203,7.7773,7.7305,7.789,7.8711,7.9492,8.1758,8.4062,8.582,8.8554,9.1523,9.4531,9.6875,9.8945,10.0703,10.1289,10.1797,10.2187,10.2617,10.289,10.289,10.289,10.289,10.289,10.289,10.289,10.289,10.289,10.289,10.289,10.289,10.289,10.289,10.289,10.289,10.289,10.289,10.289,10.289,10.289,10.289,10.289,10.289,10.289,10.289,10.289,10.289,10.289,10.289,10.289,10.289,0.0,0.0,0.0,0.0,0.0,0.0,0.0,0.0,0.0,0.0,0.0,0.0,0.0,0.0,0.0,0.0,0.0,0.0,0.0,0.0,0.0,0.0,0.0,4.5664,4.9023,5.0742,5.332,5.6797,5.9336,6.1484,6.3203,6.332,6.2265,6.0039,5.6133,5.3828,5.2891,0.0,0.0,5.3047,5.4648,0.0,0.0,0.0,0.0,0.0,0.0,0.0,0.0,6.5234,6.7226,6.9258,6.9531,0.0,0.0,0.0,0.0,0.0,7.7773,7.8047,7.7773,7.8672,7.8437,7.8164,7.8906,7.8515,7.7969,7.7969,7.8672,7.9765,8.1328,8.3711,8.6054,8.7812,9.0976,9.4297,9.7461,9.8633,9.9844,10.1601,10.1797,10.2109,10.2812,10.289,10.289,10.289,10.289,10.289,10.289,10.289,10.289,10.289,10.289,10.289,10.289,10.289,10.289,10.289,10.289,10.289,10.289,10.289,10.289,10.289,10.289,0.0,10.289,10.289,10.289,10.289,10.289,10.289,10.289,10.289,10.289,10.289,0.0,0.0,0.0,0.0,0.0,0.0,0.0,0.0,0.0,0.0,0.0,0.0,0.0,0.0,0.0,0.0,0.0,0.0,0.0,0.0,0.0,0.0,4.5508,4.7187,4.9922,5.1641,5.4219,5.7695,6.0234,6.2383,6.4101,6.4844,6.3125,5.9297,5.7148,5.5312,5.3789,5.3789,0.0,5.3906,5.4883,0.0,0.0,0.0,0.0,0.0,0.0,0.0,0.0,6.4805,6.6836,6.8633,7.0039,0.0,0.0,0.0,0.0,0.0,7.7773,7.8906,7.9531,8.039,8.1054,8.1562,8.1679,8.1601,8.1523,8.1523,8.2226,8.3125,8.4101,8.6406,8.8672,9.0429,9.3633,9.6562,9.8515,9.9531,10.0703,10.25,10.2695,10.2812,10.289,10.289,10.289,10.289,10.289,10.289,10.289,10.289,10.289,10.289,10.289,10.289,10.289,10.289,10.289,10.289,10.289,10.289,10.289,10.289,10.289,10.289,0.0,10.289,10.289,10.289,10.289,10.289,10.289,10.289,10.289,10.289,10.289,10.289,0.0,0.0,0.0,0.0,0.0,0.0,0.0,0.0,0.0,0.0,0.0,0.0,0.0,0.0,0.0,0.0,0.0,0.0,0.0,0.0,0.0,4.4922,4.7187,4.9375,5.1484,5.3242,5.5781,5.9258,6.1836,6.3984,6.5703,6.5156,6.3359,6.043,5.7773,5.5898,5.4687,5.4687,5.4687,5.4765,0.0,0.0,0.0,0.0,0.0,0.0,0.0,0.0,0.0,0.0,6.6367,6.8476,7.0156,0.0,0.0,0.0,0.0,0.0,7.8437,8.0117,8.1445,8.2773,8.2695,8.2539,8.3476,8.3359,8.3125,8.3594,8.4414,8.5273,8.6133,8.8398,9.0976,9.3672,9.5469,9.7109,9.875,9.9765,10.0781,10.1992,10.2617,10.289,10.289,10.289,10.289,10.289,10.289,10.289,10.289,10.289,10.289,10.289,10.289,10.289,10.289,10.289,10.289,10.289,10.289,10.289,10.289,10.289,10.289,10.289,10.289,10.289,10.289,10.289,10.289,10.289,10.289,10.289,10.289,10.289,10.289,10.289,0.0,0.0,0.0,0.0,0.0,0.0,0.0,0.0,0.0,0.0,0.0,0.0,0.0,0.0,0.0,0.0,0.0,0.0,0.0,0.0,4.418,4.5273,4.8633,5.1289,5.2969,5.5117,5.7773,6.1015,6.3633,6.5703,6.7187,6.543,6.3555,6.1562,5.8555,5.6601,5.5586,5.5586,5.5586,5.5664,0.0,0.0,0.0,0.0,0.0,0.0,0.0,0.0,0.0,0.0,0.0,0.0,0.0,0.0,0.0,7.539,7.5898,7.6445,7.9023,8.0976,8.2734,8.4453,8.4336,8.414,8.5508,0.0,8.5586,8.625,8.7109,8.7969,8.8828,9.0937,9.3437,9.6328,9.6797,9.7383,9.9062,9.9883,10.0703,10.1797,10.25,10.289,10.289,10.289,10.289,10.289,10.289,10.289,10.289,10.289,10.289,10.289,10.289,10.289,10.289,10.289,10.289,10.289,10.289,10.289,10.289,10.289,10.289,10.289,10.289,10.289,10.289,10.289,10.289,10.289,10.289,10.289,10.289,10.289,10.289,10.289,0.0,0.0,0.0,0.0,0.0,0.0,0.0,0.0,0.0,0.0,0.0,0.0,0.0,0.0,0.0,0.0,0.0,0.0,0.0,0.0,4.4453,4.6133,4.9492,5.2148,5.3867,5.7187,6.0195,6.2812,6.543,6.7187,6.8086,6.6328,6.414,6.1601,5.9805,5.8086,5.6523,5.6523,5.6523,5.6523,5.6562,0.0,0.0,0.0,0.0,0.0,0.0,0.0,0.0,0.0,0.0,0.0,0.0,0.0,7.3633,7.539,7.5898,7.6445,7.9023,8.0976,8.2734,8.4453,8.6562,8.8281,8.8398,8.9648,9.0742,9.082,9.1523,9.2422,9.3281,9.4922,9.6445,9.7461,9.7617,9.8203,9.9961,10.0312,10.0898,10.2617,10.289,10.289,10.289,10.289,10.289,10.289,10.289,10.289,10.289,10.289,10.289,10.289,10.289,10.289,10.289,10.289,10.289,10.289,10.289,10.289,10.289,10.289,10.289,10.289,10.289,10.289,10.289,10.289,10.289,10.289,10.289,10.289,10.289,10.289,10.289,10.289,0.0,0.0,0.0,0.0,0.0,0.0,0.0,0.0,0.0,0.0,0.0,0.0,0.0,0.0,0.0,0.0,0.0,0.0,0.0,4.2773,4.4492,4.6211,4.957,5.2734,5.5547,5.8476,6.1484,6.4609,6.7734,6.918,6.8984,6.7226,6.5,6.2422,6.0703,5.9297,5.8164,5.7656,5.7422,5.7344,5.6836,5.6601,0.0,0.0,0.0,0.0,0.0,0.0,0.0,0.0,6.582,6.8164,7.0703,7.2695,7.457,7.6836,7.7539,7.8086,8.0625,8.2187,8.3515,8.5273,8.7617,8.9492,8.9492,9.0859,9.2265,9.2812,9.3594,0.0,0.0,9.6054,9.6758,9.7578,9.7695,9.8125,9.9336,9.9961,10.0703,10.1914,10.2617,10.289,10.289,10.289,10.289,10.289,10.289,10.289,10.289,10.289,10.289,10.289,10.289,10.289,10.289,10.289,10.289,10.289,10.289,10.289,10.289,10.289,10.289,10.289,10.289,10.289,10.289,10.289,10.289,10.289,10.289,10.289,10.289,10.289,10.289,10.289,0.0,0.0,0.0,0.0,0.0,0.0,0.0,0.0,0.0,0.0,0.0,0.0,0.0,0.0,0.0,0.0,0.0,0.0,4.1211,4.2773,4.4492,4.6211,4.9336,5.2656,5.6094,5.8711,6.1992,6.6015,6.914,7.0156,6.9062,6.7578,6.5508,6.293,6.1484,6.0195,5.914,5.8555,5.8163,5.7887,5.7539,5.7265,0.0,0.0,0.0,0.0,0.0,0.0,0.0,0.0,6.6055,6.8633,7.1211,7.3203,7.5117,7.7734,7.8515,7.9062,8.1601,8.3125,8.4414,8.6172,8.8711,9.082,9.082,9.2187,9.3672,9.4531,9.539,9.6172,9.6758,9.6875,9.707,9.7617,9.7929,9.8398,9.9297,10.0195,10.1015,10.1914,10.25,10.289,10.289,10.289,10.289,10.289,10.289,10.289,10.289,10.289,10.289,10.289,10.289,10.289,10.289,10.289,10.289,10.289,10.289,10.289,10.289,10.289,10.289,10.289,10.289,10.289,10.289,10.289,10.289,10.289,10.289,10.289,10.289,10.289,10.289,10.289,0.0,0.0,0.0,0.0,0.0,0.0,0.0,0.0,0.0,0.0,0.0,0.0,0.0,0.0,0.0,0.0,0.0,0.0,4.1211,4.2773,4.4492,4.625,4.8828,5.1797,5.5234,5.789,6.1758,6.6875,6.9414,6.9805,6.8164,6.7305,6.5508,6.3008,0.0,6.0781,5.9258,5.9219,5.8706,5.8016,5.8865,5.8672,5.8008,0.0,0.0,0.0,0.0,0.0,0.0,0.0,6.6055,6.8672,7.1211,7.3203,7.5117,7.7734,7.8515,7.9101,8.164,8.3594,8.5351,8.7109,9.0078,9.2617,9.2617,9.3945,9.5469,9.6328,9.7148,9.7695,9.7695,9.7695,9.7695,9.7695,9.8437,9.9297,10.0195,10.1094,10.1914,10.2812,10.289,10.289,10.289,10.289,10.289,10.289,10.289,10.289,10.289,10.289,10.289,10.289,10.289,10.289,10.289,10.289,10.289,10.289,10.289,10.289,10.289,10.289,10.289,10.289,10.289,10.289,10.289,10.289,10.289,10.289,10.289,10.289,10.289,10.289,10.289,10.289,0.0,0.0,0.0,0.0,0.0,0.0,0.0,0.0,0.0,0.0,0.0,0.0,0.0,0.0,0.0,0.0,0.0,0.0,4.1992,4.3086,4.4766,4.7109,4.9141,5.1797,5.5234,5.9609,6.3203,6.5976,6.7344,6.7773,6.7265,6.6406,6.5586,6.4805,0.0,0.0,6.1818,6.1229,6.0451,5.9631,5.928,5.9016,5.8828,0.0,0.0,0.0,0.0,0.0,0.0,0.0,0.0,0.0,7.2109,7.4101,7.6015,7.8594,8.0195,8.1758,8.4336,8.5859,0.0,8.8828,0.0,0.0,9.3359,9.4844,9.6367,9.7187,9.7539,9.7695,9.7695,9.7695,9.7695,9.7695,9.8437,9.9297,10.0195,10.1094,10.1914,10.2812,10.289,10.289,10.289,10.289,10.289,10.289,10.289,10.289,10.289,10.289,10.289,10.289,10.289,10.289,10.289,10.289,10.289,10.289,10.289,10.289,10.289,10.289,10.289,10.289,10.289,10.289,10.289,10.289,10.289,10.289,10.289,10.289,10.289,10.289,10.289,10.289,0.0,0.0,0.0,0.0,0.0,0.0,0.0,0.0,0.0,0.0,4.1211,4.1211,0.0,0.0,0.0,0.0,0.0,0.0,4.2344,4.3203,4.4883,4.75,4.9258,5.1953,5.5742,5.9219,6.164,6.3047,6.5273,6.6211,6.5859,6.5664,6.5781,6.6094,0.0,6.433,6.3477,6.2579,6.1725,6.0909,6.0734,6.067,6.0655,0.0,0.0,0.0,0.0,0.0,0.0,0.0,0.0,0.0,7.2695,7.4726,7.6914,7.9453,8.1211,8.2969,8.5898,8.7344,0.0,9.0508,9.2344,9.3945,9.5156,0.0,0.0,9.8125,9.8203,9.8203,9.8203,9.7929,9.7812,9.8164,9.8945,9.9804,10.0703,10.1601,10.2304,10.2812,10.289,10.289,10.289,10.289,10.289,10.289,10.289,10.289,10.289,10.289,10.289,10.289,10.289,10.289,10.289,10.289,10.289,10.289,10.289,10.289,10.289,10.289,10.289,10.289,10.289,10.289,10.289,10.289,10.289,10.289,10.289,10.289,10.289,10.289,10.289,10.289,0.0,0.0,0.0,0.0,0.0,0.0,0.0,0.0,0.0,4.1211,4.1211,4.1211,0.0,0.0,0.0,4.1211,4.1289,4.1641,4.2461,4.3398,4.5078,4.7617,4.9531,5.2422,5.6406,5.7422,5.8242,5.8945,6.3086,6.4805,6.4219,6.5078,6.5976,6.6875,0.0,6.519,6.4262,6.3438,6.2608,6.1888,6.2694,6.3006,6.302,6.3099,0.0,0.0,0.0,0.0,0.0,0.0,0.0,0.0,7.3125,7.5156,7.7695,8.0234,8.1719,8.3281,8.6679,8.832,8.9648,9.2109,9.4023,0.0,9.7422,9.8476,9.9062,9.8906,9.8945,9.8984,9.8906,9.8281,9.8086,9.8867,9.9804,10.0703,10.1484,10.2383,10.289,10.289,10.289,10.289,10.289,10.289,10.289,10.289,10.289,10.289,10.289,10.289,10.289,10.289,10.289,10.289,10.289,10.289,10.289,10.289,10.289,10.289,10.289,10.289,10.289,10.289,10.289,10.289,10.289,10.289,10.289,10.289,10.289,10.289,10.289,10.289,10.289,10.289,0.0,0.0,0.0,0.0,0.0,0.0,0.0,0.0,4.1211,4.1211,4.1211,4.1211,4.1211,4.1211,0.0,4.1211,4.1797,4.25,4.3359,4.4883,4.6601,4.8555,5.1562,5.3945,5.5547,5.7109,5.7656,5.7148,6.0078,6.2109,6.3281,0.0,0.0,6.6875,0.0,6.5762,6.4281,6.4111,6.3516,6.273,6.2909,6.3358,6.392,6.3951,6.3943,0.0,0.0,0.0,0.0,0.0,0.0,0.0,7.3828,7.5664,7.7695,8.0234,8.2578,8.4922,8.7695,9.0078,9.207,9.332,9.4922,9.664,9.8359,9.9375,9.9648,9.8242,9.8515,9.8789,9.8125,9.8398,9.8789,9.8984,10.0312,10.1406,10.1601,10.2383,10.289,10.289,10.289,10.289,10.289,10.289,10.289,10.289,10.289,10.289,10.289,10.289,10.289,10.289,10.289,10.289,10.289,10.289,10.289,10.289,10.289,10.289,10.289,10.289,10.289,10.289,10.289,10.289,10.289,10.289,10.289,10.289,10.289,10.289,10.289,10.289,10.289,10.3008,0.0,0.0,0.0,0.0,0.0,0.0,0.0,0.0,4.1211,4.1211,4.1211,4.1211,4.1211,4.1211,0.0,0.0,4.1953,4.2773,4.3633,4.5312,4.7617,5.0586,5.2812,5.4609,5.5898,5.6797,5.707,5.6601,5.8789,6.0508,0.0,0.0,0.0,6.6865,0.0,6.5746,0.0,6.4018,6.3416,6.2974,6.3382,6.4021,6.4764,6.4733,6.471,6.4838,6.5709,0.0,0.0,0.0,0.0,0.0,0.0,0.0,7.8203,8.0351,8.2578,8.4922,8.789,9.0312,9.25,9.4609,9.6445,9.7929,9.8789,10.0,10.039,9.8672,9.9023,9.9375,9.8476,9.8672,9.914,9.9531,10.0703,10.1719,10.2187,10.2617,10.289,10.289,10.289,10.289,10.289,10.289,10.289,10.289,10.289,10.289,10.289,10.289,10.289,10.289,10.289,10.289,10.289,10.289,10.289,10.289,10.289,10.289,10.289,10.289,10.289,10.289,10.289,10.289,10.289,10.289,10.289,10.289,10.289,10.289,10.289,10.289,10.289,10.3008,0.0,0.0,0.0,0.0,0.0,0.0,0.0,0.0,0.0,4.1211,4.1211,4.1211,4.1211,4.1211,4.1211,0.0,0.0,0.0,4.3633,4.5625,4.8516,5.2539,5.3398,5.4531,5.6133,5.6289,5.6367,5.6367,5.8281,0.0,0.0,0.0,0.0,6.6873,0.0,0.0,0.0,0.0,6.3038,6.3193,6.3984,6.4938,6.5839,6.5907,6.5855,6.5816,6.6698,6.7579,6.8666,7.1048,0.0,0.0,0.0,0.0,7.8554,8.0429,8.2226,8.4336,8.7773,9.0312,9.2734,9.5898,9.7851,9.9023,9.9179,10.0508,10.1211,9.9765,9.9883,10.0,9.914,9.9101,9.9492,10.039,10.1289,10.2109,10.2812,10.289,10.289,10.289,10.289,10.289,10.289,10.289,10.289,10.289,10.2889,10.2888,10.2888,10.2889,10.289,10.289,10.289,10.289,10.2888,10.2888,10.2888,10.2888,10.2889,10.289,10.289,10.289,10.2889,10.2888,10.2889,10.289,10.289,10.289,10.289,10.289,10.289,10.289,10.289,10.289,10.289,10.3008,0.0,0.0,0.0,0.0,0.0,0.0,0.0,0.0,0.0,0.0,4.1211,4.1211,4.1211,4.1211,4.1211,4.1211,4.2617,4.3594,4.3672,0.0,0.0,5.2578,5.2812,5.3359,5.4336,5.5078,5.5469,5.5469,5.7969,0.0,0.0,0.0,0.0,0.0,0.0,0.0,0.0,0.0,0.0,6.4099,6.4899,6.6162,6.763,6.8263,6.8078,6.7573,6.8396,6.9234,7.016,7.1315,7.3406,0.0,0.0,0.0,7.7767,8.0273,8.2226,8.4336,8.7773,9.164,9.5156,9.707,9.8281,9.9219,9.9961,10.0898,10.1484,10.1289,10.0703,10.0,9.914,9.9609,10.039,10.1289,10.2187,10.2812,10.289,10.289,10.289,10.289,10.289,10.289,10.289,10.289,10.289,10.289,10.291,10.2881,10.2881,10.291,10.2917,10.2917,10.2889,10.2886,10.2881,10.2881,10.2881,10.2881,10.291,10.2917,10.2917,10.2917,10.291,10.2881,10.291,10.2917,10.2917,10.2917,10.2886,10.289,10.289,10.289,10.289,10.289,10.289,10.3086,0.0,0.0,0.0,0.0,0.0,0.0,0.0,0.0,0.0,0.0,0.0,4.207,4.2539,4.2617,4.2617,4.2617,4.3711,4.5039,4.6523,4.8516,5.0547,5.2617,5.2695,5.3125,5.3984,5.4375,5.4805,5.5312,0.0,0.0,0.0,6.3789,6.5427,0.0,0.0,0.0,0.0,0.0,0.0,0.0,6.5984,6.7378,6.8629,7.0425,7.0854,7.066,7.1455,7.1707,7.1843,7.329,7.4577,7.5663,7.6225,0.0,0.0,0.0,8.0778,8.32,8.8086,9.1914,9.4883,9.6601,9.8398,9.9844,10.0195,10.1406,10.2187,10.1719,10.1289,10.0781,9.9883,10.039,10.1211,10.1484,10.2304,10.289,10.289,10.289,10.289,10.289,10.289,10.289,10.289,10.289,10.2889,10.291,10.2888,10.2906,10.2906,10.2881,10.2888,10.2888,10.2905,10.2905,10.2894,10.2894,10.2888,10.2906,10.2881,10.2888,10.2888,10.2888,10.2881,10.2906,10.2881,10.2888,10.2888,10.2888,10.29,10.2914,10.2889,10.289,10.289,10.289,10.3203,10.3789,0.0,0.0,0.0,0.0,0.0,0.0,0.0,0.0,0.0,0.0,0.0,4.2969,4.3633,0.0,0.0,0.0,4.4687,4.6445,4.9062,4.9844,5.0859,5.2305,5.2383,5.2656,5.332,5.3555,5.4101,5.4961,0.0,0.0,6.1758,6.4608,6.6047,0.0,6.6876,0.0,0.0,0.0,0.0,0.0,6.7614,6.9401,7.0796,7.3584,7.4513,7.4397,7.4995,7.4685,7.4203,7.5526,7.605,7.6233,7.6961,7.7072,0.0,0.0,0.0,8.3062,8.8237,9.1561,9.3984,9.5742,9.8086,10.0,10.0195,10.1601,10.2695,10.2109,10.1914,10.1719,10.1094,10.1289,10.1719,10.1914,10.25,10.289,10.289,10.289,10.289,10.289,10.289,10.289,10.2886,10.2917,10.2905,10.2906,10.3084,10.3114,10.288,10.3084,10.3084,10.2889,10.2811,10.2913,10.2905,10.2905,10.2894,10.2906,10.2906,10.2906,10.2906,10.2789,10.2789,10.2906,10.2906,10.2906,10.2906,10.2906,10.2906,10.2913,10.2917,10.2889,10.289,10.289,10.3515,10.4297,0.0,0.0,0.0,0.0,0.0,0.0,0.0,0.0,0.0,0.0,0.0,4.3633,4.3711,4.3711,4.3711,4.3711,4.5234,4.7344,4.9961,5.0156,5.0586,5.1445,5.1484,0.0,5.1523,5.2344,5.3203,0.0,0.0,0.0,6.1797,6.5215,6.7247,6.7985,6.8018,6.7938,6.7642,0.0,0.0,0.0,7.0196,7.2693,7.5249,7.8596,7.937,7.8673,0.0,0.0,0.0,7.7611,7.7736,7.7797,7.7887,7.7477,7.7079,0.0,0.0,0.0,8.7908,9.0572,9.3008,9.4804,9.7187,9.9297,10.0117,10.1601,10.289,10.2812,10.2812,10.2812,10.2812,10.2109,10.1914,10.2695,10.289,10.289,10.289,10.289,10.289,10.289,10.289,10.2886,10.292,10.2788,10.2803,10.2781,10.3513,10.3622,10.2803,10.3478,10.3608,10.271,10.2694,10.2685,10.2789,10.2789,10.2789,10.2789,10.2789,10.2789,10.2789,10.2789,10.2789,10.2789,10.2789,10.2789,10.2789,10.2789,10.2789,10.2789,10.2913,10.291,10.289,10.289,10.3515,10.4297,0.0,0.0,0.0,0.0,0.0,0.0,0.0,0.0,0.0,0.0,0.0,0.0,0.0,4.6719,4.7031,4.7031,4.8125,4.9219,5.0156,5.0664,5.1094,5.1406,5.1406,5.1406,5.1406,5.2266,0.0,0.0,0.0,5.9216,6.1779,6.523,6.755,6.8833,6.9406,6.9241,6.8535,6.7786,0.0,0.0,0.0,0.0,7.9379,0.0,0.0,0.0,0.0,0.0,0.0,8.0987,8.0299,7.9415,7.9523,7.8611,7.7704,7.8649,8.0455,8.283,8.6015,8.8813,9.1388,9.3703,9.6244,9.8551,9.996,10.1211,10.2187,10.2812,10.289,10.289,10.289,10.2617,10.25,10.2812,10.289,10.289,10.289,10.289,10.2888,10.291,10.2906,10.2782,10.2782,10.2698,10.2718,10.2585,10.3391,10.3684,10.3292,10.4104,10.4292,10.3386,10.3414,10.3307,10.2802,10.2781,10.2789,10.2789,10.2789,10.2789,10.2789,10.2789,10.2789,10.2789,10.2789,10.2789,10.2789,10.2789,10.2789,10.2789,10.2789,10.3207,10.3705,10.371,10.4609,10.5781,0.0,0.0,0.0,0.0,0.0,0.0,0.0,0.0,0.0,4.5351,0.0,0.0,0.0,0.0,4.9453,4.9726,5.0273,5.0586,5.0586,5.1094,5.1406,5.1406,5.1406,5.1523,5.1836,5.2383,0.0,0.0,0.0,0.0,0.0,0.0,6.737,6.9172,7.0003,0.0,0.0,0.0,0.0,7.2174,0.0,0.0,8.2371,0.0,0.0,0.0,0.0,0.0,0.0,0.0,8.3308,8.1852,8.1329,7.9696,7.8088,7.8975,7.992,8.133,8.4532,8.7142,8.9593,9.2209,9.4877,9.7271,9.9004,10.0502,10.1718,10.2304,10.2695,10.289,10.289,10.289,10.289,10.289,10.289,10.289,10.289,10.2888,10.291,10.291,10.2776,10.2694,10.2685,10.2902,10.2907,10.2806,10.3788,10.4293,10.3888,10.481,10.4795,10.3798,10.3902,10.3505,10.2821,10.2811,10.2789,10.2789,10.2789,10.2781,10.282,10.282,10.2811,10.2802,10.2802,10.2811,10.2789,10.2789,10.2789,10.2789,10.2789,10.3311,10.4116,10.4212,10.5193,10.6716,0.0,0.0,0.0,0.0,0.0,0.0,0.0,0.0,4.6406,4.6406,0.0,0.0,0.0,0.0,0.0,5.1445,5.1484,5.1445,5.1445,5.1406,5.1406,5.1445,5.1445,5.1836,5.2734,0.0,0.0,0.0,0.0,0.0,0.0,0.0,6.6723,0.0,6.9804,7.0621,7.1355,0.0,7.2135,7.4048,0.0,8.0713,8.4211,0.0,0.0,0.0,9.0551,9.0281,0.0,8.8282,0.0,8.5113,8.3257,8.0531,7.8142,7.8899,7.9794,8.1097,0.0,0.0,0.0,9.0404,9.3014,9.5366,9.7132,9.9548,10.1394,10.1483,10.2304,10.289,10.289,10.3008,10.3008,10.289,10.289,10.289,10.289,10.2905,10.291,10.2811,10.2718,10.2685,10.2576,10.3181,10.3484,10.3391,10.4893,10.5391,10.4615,10.5397,10.5177,10.3802,10.3793,10.3492,10.271,10.2802,10.2789,10.2789,10.2789,10.2811,10.2792,10.2792,10.2811,10.271,10.271,10.2704,10.2789,10.2789,10.2789,10.2789,10.2789,10.3413,10.4116,10.4189,10.5292,10.6698,0.0,0.0,0.0,0.0,0.0,4.7812,4.7812,4.8047,4.8398,0.0,0.0,0.0,0.0,0.0,0.0,5.4219,5.3086,5.2344,5.2344,5.1758,5.168,5.2305,5.2344,5.2734,5.3633,5.4872,0.0,0.0,0.0,0.0,0.0,0.0,0.0,0.0,6.8762,6.9529,7.0295,7.148,0.0,0.0,7.8903,8.2678,0.0,0.0,0.0,0.0,0.0,9.1599,9.1033,0.0,8.9748,8.7202,0.0,8.1528,8.028,7.9855,8.0409,8.1567,8.3561,0.0,0.0,0.0,0.0,0.0,9.6044,9.8168,9.9978,10.1209,10.2689,10.3789,10.3789,10.4414,10.4609,10.3906,10.3789,10.3787,10.3803,10.3797,10.3503,10.2679,10.2596,10.2395,10.2288,10.2914,10.3318,10.3112,10.4597,10.5498,10.5199,10.5612,10.5489,10.4594,10.411,10.3489,10.2712,10.271,10.2694,10.2694,10.2694,10.2722,10.2686,10.2686,10.2712,10.2592,10.2592,10.2698,10.271,10.2782,10.2802,10.288,10.3505,10.4207,10.5017,10.5699,10.6588,10.7603,0.0,0.0,4.8945,4.9805,5.0234,5.0625,5.0976,5.1328,5.1758,0.0,0.0,0.0,0.0,0.0,0.0,5.6445,5.5117,5.4023,5.3281,5.277,5.2728,5.3236,5.359,5.4176,5.5031,5.6406,5.7446,0.0,0.0,0.0,0.0,0.0,0.0,0.0,0.0,0.0,0.0,0.0,0.0,0.0,8.0115,0.0,0.0,8.9575,9.1457,0.0,0.0,0.0,9.3397,9.362,9.1501,0.0,0.0,0.0,8.1716,8.1175,8.1435,8.2262,8.4043,8.5307,8.6553,8.839,0.0,0.0,9.4496,9.6678,9.8734,10.0509,10.199,10.3191,10.3503,10.4011,10.4284,10.4089,10.4085,10.3981,10.3719,10.3517,10.3192,10.2615,10.2706,10.2695,10.2483,10.3499,10.4112,10.4013,10.5098,10.5908,10.5871,10.6078,10.602,10.5321,10.4598,10.3897,10.3091,10.2801,10.2582,10.2607,10.2607,10.2616,10.2513,10.2495,10.2498,10.2421,10.2421,10.2401,10.2495,10.2601,10.2712,10.28,10.3686,10.4493,10.5299,10.6196,10.7079,10.7781,0.0,0.0,5.0898,5.1836,5.2695,5.3555,5.4453,5.5234,5.5781,0.0,5.7461,0.0,0.0,0.0,0.0,0.0,5.7343,5.6054,5.4374,5.4083,5.4099,5.425,5.5013,5.5907,5.6893,5.7765,5.8918,6.0305,0.0,0.0,0.0,0.0,0.0,0.0,6.609,6.7846,7.0898,7.2706,0.0,7.7861,8.1131,8.5016,0.0,0.0,9.271,0.0,9.4941,9.548,9.6057,9.5249,9.2434,0.0,0.0,0.0,0.0,0.0,8.2921,8.323,8.486,8.5313,8.5689,8.7371,0.0,0.0,9.2649,9.5185,9.7671,9.9435,10.0615,10.1601,10.249,10.2802,10.3114,10.37,10.3892,10.3804,10.3107,10.288,10.281,10.2676,10.3083,10.3414,10.3095,10.4511,10.5292,10.5216,10.5907,10.6407,10.6488,10.6714,10.6503,10.5697,10.5127,10.4494,10.3704,10.2906,10.2495,10.242,10.242,10.2401,10.2295,10.221,10.2099,10.2087,10.2087,10.2074,10.2187,10.2311,10.2577,10.2904,10.3723,10.451,10.5295,10.6213,10.6992,10.7594,5.1828,5.2655,5.375,5.5312,5.6328,5.7187,5.8047,5.832,5.8672,5.9336,0.0,0.0,0.0,0.0,0.0,0.0,5.8938,5.7179,5.6071,5.4713,5.456,5.5965,5.6129,5.7204,5.9443,6.0316,6.0864,6.1103,0.0,0.0,0.0,0.0,0.0,0.0,6.6367,6.809,7.009,0.0,0.0,7.9554,8.2247,0.0,8.9787,9.0825,9.2364,9.4057,9.4749,9.5095,9.5211,9.5057,9.3557,9.1476,0.0,0.0,0.0,0.0,0.0,0.0,0.0,0.0,0.0,0.0,0.0,0.0,0.0,9.3758,9.6546,9.7635,9.9686,10.1384,10.1595,10.2707,10.3508,10.2907,10.3394,10.4016,10.458,10.4477,10.4298,10.4117,10.411,10.3725,10.29,10.4176,10.4868,10.4214,10.5597,10.6407,10.6488,10.6602,10.64,10.5603,10.4906,10.4101,10.329,10.2501,10.2074,10.2113,10.2113,10.21,10.198,10.2018,10.1884,10.1873,10.1873,10.1894,10.199,10.2716,10.3186,10.3491,10.4283,10.5016,10.5799,10.6705,10.7094,10.7299,5.3166,5.431,5.5801,5.7525,5.929,6.0854,6.2136,6.2722,6.3152,6.3542,0.0,0.0,0.0,0.0,0.0,0.0,0.0,0.0,5.9724,5.8442,5.8031,5.8856,5.9281,6.0086,6.1327,6.2167,6.2555,6.2471,6.2838,0.0,0.0,0.0,0.0,0.0,0.0,0.0,0.0,0.0,7.7592,8.1246,8.3362,0.0,9.0094,9.1787,9.3249,9.4441,9.5326,9.5634,9.5557,9.5134,9.3903,0.0,0.0,9.0017,8.8556,0.0,8.8017,8.7902,0.0,0.0,0.0,8.7494,0.0,0.0,0.0,9.2471,9.4302,9.6082,9.782,9.9186,9.9669,10.0796,10.1589,10.1594,10.1905,10.2604,10.3885,10.3988,10.4073,10.4273,10.4619,10.4483,10.3984,10.5022,10.5597,10.5213,10.5905,10.6367,10.6409,10.6526,10.6409,10.6094,10.4918,10.4203,10.3808,10.2484,10.1903,10.1912,10.1912,10.1804,10.171,10.1716,10.1881,10.2195,10.2195,10.2499,10.2996,10.3494,10.401,10.4509,10.502,10.538,10.5904,10.6727,10.6998,10.7105,5.4227,5.5723,5.7453,5.9039,6.1476,6.3784,6.5484,6.6486,6.7227,0.0,0.0,0.0,0.0,0.0,0.0,0.0,0.0,0.0,6.382,6.273,6.2113,6.2017,6.2665,6.3107,6.318,6.3842,6.4058,6.3804,0.0,0.0,0.0,0.0,0.0,0.0,0.0,0.0,0.0,0.0,0.0,8.2939,0.0,8.7401,9.0633,9.2864,9.4364,9.5326,9.6057,9.6288,9.6211,9.548,9.4249,9.2979,9.2979,9.1902,0.0,0.0,0.0,0.0,0.0,0.0,0.0,0.0,0.0,8.9183,0.0,0.0,0.0,9.4364,9.562,9.6538,9.729,9.822,9.9111,9.9782,10.0112,10.0875,10.2599,10.2771,10.3228,10.4083,10.4675,10.4985,10.4866,10.5597,10.6213,10.6405,10.6405,10.6405,10.6405,10.6486,10.6487,10.6487,10.5175,10.4395,10.4202,10.2726,10.1799,10.1616,10.1616,10.1585,10.1475,10.171,10.2097,10.2674,10.2905,10.3291,10.3984,10.4213,10.4675,10.5407,10.5498,10.5686,10.589,10.6508,10.6778,10.6813,5.5903,5.7391,5.8927,5.991,6.224,6.4555,6.6312,6.728,6.8657,0.0,0.0,0.0,0.0,0.0,0.0,0.0,0.0,0.0,6.7071,0.0,6.4501,6.4484,6.458,6.4986,6.5698,6.5775,6.5402,6.4556,6.4594,0.0,0.0,0.0,0.0,0.0,7.1129,0.0,0.0,0.0,8.2208,0.0,8.644,8.9171,0.0,9.3326,9.4711,9.6172,9.6249,9.6288,9.6288,0.0,9.5518,9.4711,0.0,9.4057,9.3133,0.0,0.0,0.0,0.0,0.0,0.0,0.0,8.8738,0.0,0.0,0.0,0.0,9.1977,0.0,9.453,9.4635,0.0,0.0,9.7071,9.8354,9.9912,10.1514,10.1707,10.2285,10.379,10.3984,10.4097,10.3982,10.4789,10.5597,10.629,10.6405,10.6405,10.6405,10.6405,10.6405,10.6405,10.5484,10.4676,10.3983,10.3021,10.2097,10.1289,10.1289,10.1289,10.1404,10.2097,10.2481,10.2674,10.3366,10.3829,10.4021,10.4714,10.4983,10.5099,10.5332,10.5793,10.6411,10.641,10.6487,10.6488,5.6233,5.7518,5.9024,5.9918,6.264,6.527,6.7019,6.9228,7.1098,0.0,0.0,0.0,0.0,0.0,0.0,0.0,0.0,7.5708,0.0,0.0,7.0297,6.9239,6.8714,6.8111,6.7446,6.7422,6.6767,6.5408,6.5408,6.5422,0.0,0.0,0.0,0.0,7.4014,0.0,7.9169,0.0,8.5478,0.0,0.0,0.0,0.0,9.3749,9.4788,9.6288,9.6288,9.6288,9.6288,0.0,9.5711,0.0,0.0,0.0,0.0,0.0,0.0,0.0,0.0,0.0,0.0,0.0,0.0,0.0,8.997,0.0,9.0339,0.0,0.0,0.0,0.0,0.0,0.0,0.0,9.7739,9.8628,9.9749,9.9941,10.0904,10.3599,10.3906,10.3905,10.3905,10.4212,10.4597,10.4905,10.5405,10.5597,10.5597,10.6097,10.6405,10.6405,10.5597,10.4713,10.3905,10.302,10.2212,10.1289,10.1289,10.1597,10.2097,10.2404,10.3097,10.4097,10.4405,10.4905,10.5405,10.5713,10.5905,10.5905,10.5907,10.6101,10.6369,10.6405,10.6407,10.6409,5.714,5.7987,5.9103,5.9808,6.2587,6.5436,6.7635,7.0622,7.2811,7.3316,0.0,0.0,7.8624,8.0779,0.0,0.0,0.0,8.1358,0.0,0.0,7.5528,7.3752,7.2635,0.0,6.9475,6.9206,6.8244,6.659,6.659,6.6898,6.7475,6.859,7.0437,0.0,0.0,7.9862,8.267,0.0,0.0,9.0671,9.1287,9.3095,9.5288,9.4903,9.5518,9.6673,9.6903,9.698,9.698,9.698,9.6557,0.0,9.6788,0.0,0.0,0.0,0.0,0.0,9.4634,0.0,0.0,0.0,0.0,0.0,0.0,0.0,0.0,0.0,0.0,0.0,0.0,0.0,0.0,0.0,0.0,9.7134,9.798,9.8096,9.9211,10.2212,10.2904,10.3289,10.3482,10.3789,10.3905,10.3905,10.4597,10.5097,10.5097,10.5905,10.6405,10.6405,10.579,10.5097,10.4212,10.3597,10.2712,10.1712,10.1904,10.2212,10.2597,10.3097,10.3905,10.5097,10.5405,10.579,10.6405,10.6405,10.6405,10.6405,10.6405,10.6405,10.6405,10.6405,10.6405,10.6405,5.9242,5.9545,5.9688,5.9766,6.195,6.4774,6.8158,7.0866,7.3109,7.4811,0.0,0.0,0.0,0.0,0.0,0.0,0.0,8.4016,8.2247,0.0,7.89,0.0,0.0,7.3783,0.0,7.1245,7.0014,6.8321,6.8321,6.8321,6.8398,7.0052,7.2168,7.4822,7.9092,8.2824,8.6094,8.8709,9.0787,9.2402,9.2441,9.398,9.6326,0.0,9.7403,9.7557,9.8404,0.0,0.0,9.8711,9.8711,0.0,0.0,0.0,0.0,0.0,0.0,0.0,0.0,0.0,0.0,9.3864,0.0,0.0,0.0,0.0,9.0133,0.0,0.0,0.0,0.0,0.0,0.0,0.0,0.0,0.0,0.0,0.0,0.0,9.875,10.0404,10.1712,10.2597,10.3405,10.3905,10.3905,10.4597,10.5097,10.5097,10.5905,10.6405,10.6405,10.6405,10.5905,10.5097,10.4982,10.4212,10.2597,10.3405,10.3405,10.2712,10.4289,10.4982,10.5097,10.602,10.6405,10.6405,10.6405,10.6405,10.6405,10.6405,10.6405,10.6405,10.6405,10.6405,10.6405,6.2089,6.2036,6.1928,6.1417,6.3467,6.6322,6.9717,7.2829,0.0,0.0,0.0,0.0,0.0,0.0,8.6736,0.0,0.0,8.8094,8.5824,8.5132,0.0,0.0,0.0,7.8438,0.0,7.4707,7.3168,7.0898,7.036,7.036,7.0937,7.2091,7.4245,7.7361,0.0,8.4632,0.0,0.0,0.0,0.0,0.0,9.7173,9.7904,0.0,9.7865,9.8404,9.8673,9.8788,0.0,9.8788,9.8788,9.8904,9.9481,9.9635,9.9712,9.9942,10.0019,9.9827,0.0,0.0,9.7173,9.5788,0.0,0.0,0.0,0.0,0.0,0.0,0.0,0.0,0.0,0.0,0.0,0.0,0.0,0.0,0.0,0.0,0.0,0.0,0.0,0.0,0.0,0.0,10.2404,10.2981,10.3789,10.4482,10.5097,10.5905,10.6405,10.6405,10.6405,10.602,10.5097,10.5097,10.4482,10.3482,10.3789,10.3982,10.4289,10.4789,10.5405,10.602,10.629,10.6405,10.6405,10.6405,10.6405,10.6405,10.6405,10.6405,10.6405,10.6405,10.6405,10.6405,6.4743,6.4666,6.4282,6.3176,6.5394,6.8244,7.1017,0.0,0.0,0.0,8.0862,0.0,8.5555,0.0,8.8709,0.0,9.071,9.0364,8.844,8.8017,0.0,8.4209,8.3555,0.0,0.0,0.0,7.6245,7.4014,7.3129,7.3014,7.3553,7.4437,7.6476,7.9554,8.267,8.6132,8.9787,9.2864,9.5134,0.0,0.0,9.8981,0.0,0.0,9.875,9.9288,0.0,9.9673,9.9673,9.9673,9.9904,10.0212,10.0789,10.1212,10.1597,10.2097,10.2212,10.2097,10.1597,10.0789,0.0,9.8057,9.5942,0.0,9.4557,0.0,0.0,0.0,0.0,0.0,0.0,0.0,0.0,0.0,0.0,0.0,0.0,9.4364,0.0,0.0,0.0,0.0,0.0,0.0,10.1404,10.252,10.3405,10.4289,10.5097,10.5905,10.6405,10.6405,10.6405,10.6097,10.5597,10.5597,10.5097,10.4289,10.4597,10.4905,10.5097,10.5405,10.5905,10.6405,10.6405,10.6405,10.6405,10.6405,10.6405,10.6405,10.6405,10.6405,10.6405,10.6405,10.6405,10.6405,6.7244,6.7321,6.6898,6.532,6.7744,7.0514,0.0,0.0,7.8438,0.0,8.3478,8.567,8.7401,8.9017,9.0017,9.0094,9.0864,0.0,9.0094,8.9363,0.0,0.0,8.6094,8.4478,8.2708,0.0,0.0,0.0,7.6707,7.6245,7.6207,7.7092,7.8784,8.1285,8.3862,0.0,9.1364,9.3941,9.6057,9.775,9.8596,9.9404,10.0173,10.0173,10.0173,10.0289,10.1096,10.1404,10.1404,10.1404,10.202,10.2712,10.2712,10.3289,10.3982,10.3982,10.3982,10.3982,10.3982,10.3405,10.2289,10.0596,9.8942,0.0,0.0,0.0,9.6749,0.0,0.0,0.0,0.0,0.0,0.0,0.0,0.0,0.0,0.0,0.0,0.0,0.0,0.0,0.0,0.0,0.0,0.0,10.2481,10.3405,10.4212,10.5097,10.5905,10.6405,10.6405,10.6405,10.6405,10.6405,10.6405,10.602,10.5213,10.602,10.602,10.5213,10.602,10.6405,10.6405,10.6405,10.6405,10.6405,10.6405,10.6405,10.6405,10.6405,10.6405,10.6405,10.6405,10.6405,10.6405,6.9283,7.0552,7.1706,7.1283,7.2437,7.4014,0.0,0.0,0.0,0.0,8.5593,8.7632,8.9979,9.0633,9.1364,9.2633,9.2941,0.0,0.0,0.0,0.0,9.0287,9.0441,8.9748,8.7979,8.6324,0.0,8.2939,8.0823,7.9477,7.8861,7.9708,8.0785,8.2131,8.5324,8.8402,9.1402,9.4595,9.7634,10.0289,10.0596,10.0789,10.1019,0.0,10.1019,10.1096,10.202,10.2712,10.3212,10.3212,10.3405,10.3712,10.4289,10.4597,10.4905,10.5597,10.579,10.5597,10.4982,10.4597,10.4097,10.2404,10.1096,10.0289,0.0,0.0,0.0,0.0,0.0,0.0,0.0,0.0,0.0,0.0,0.0,0.0,0.0,0.0,0.0,0.0,0.0,0.0,0.0,0.0,0.0,0.0,10.2789,10.3597,10.4982,10.529,10.5713,10.6405,10.6405,10.6405,10.6405,10.6405,10.629,10.6097,10.629,10.629,10.6097,10.629,10.6405,10.6405,10.6405,10.6405,10.6405,10.6405,10.6405,10.6405,10.6405,10.6405,10.6405,10.6405,10.6405,10.6405,7.1706,7.3129,7.4822,7.5553,7.6976,0.0,7.8861,0.0,0.0,8.6786,8.8248,0.0,9.2056,9.2287,9.2672,9.3633,9.371,0.0,9.3056,0.0,0.0,9.2326,9.2749,9.2402,9.1056,8.9363,0.0,8.5978,0.0,8.2324,8.1477,8.1939,8.2631,8.3555,8.6209,8.8825,9.1479,9.5634,9.8904,10.1289,10.1289,10.1289,0.0,10.1289,10.152,10.1904,10.2404,10.2712,10.2789,10.2789,10.3289,10.3982,10.4405,10.5097,10.579,10.629,10.6405,10.629,10.579,10.5713,10.5405,10.3982,10.3289,10.2904,10.252,10.2097,10.1981,0.0,10.3212,10.3097,0.0,0.0,0.0,0.0,0.0,0.0,0.0,0.0,0.0,0.0,0.0,0.0,0.0,0.0,0.0,0.0,0.0,10.2789,10.4482,10.4905,10.529,10.579,10.6213,10.6405,10.6405,10.6405,10.6405,10.6405,10.6405,10.6405,10.6405,10.6405,10.6405,10.6405,10.6405,10.6405,10.6405,10.6405,10.6405,10.6405,10.6405,10.6405,10.6405,10.6405,10.6405,10.6405,7.4437,7.5592,7.7323,7.89,0.0,0.0,0.0,8.4132,0.0,8.9825,0.0,9.2133,9.371,9.3864,9.3903,9.4018,0.0,9.4057,9.4057,9.4057,9.4095,9.4172,9.421,9.3903,9.3326,9.1633,0.0,0.0,0.0,8.4901,8.3939,8.3824,8.417,8.4978,8.6786,8.9171,9.2172,9.6942,9.9865,10.1289,10.1404,10.1404,10.1289,10.1289,10.1789,10.2404,10.2404,10.2097,10.1597,10.1597,10.2597,10.3905,10.3905,10.4982,10.6213,10.6213,10.629,10.6405,10.6405,10.6405,10.6213,10.5482,10.529,10.5097,10.4405,10.4212,10.4212,10.4212,10.4212,10.3982,10.3097,0.0,0.0,0.0,0.0,0.0,0.0,0.0,0.0,0.0,0.0,0.0,0.0,0.0,0.0,0.0,0.0,0.0,10.3482,10.4405,10.4982,10.5097,10.5905,10.6405,10.6405,10.6405,10.6405,10.6405,10.6405,10.6405,10.6405,10.6405,10.6405,10.6405,10.6405,10.6405,10.6405,10.6405,10.6405,10.6405,10.6405,10.6405,10.6405,10.6405,10.6405,10.6405,0.0,0.0,0.0,0.0,0.0,8.694,8.8171,8.8748,8.9748,9.1787,9.2749,9.3633,9.4634,9.4749,9.5057,9.5788,9.5826,0.0,0.0,0.0,0.0,9.6826,9.6826,9.7096,9.7673,9.6057,9.4326,0.0,0.0,8.7209,8.5632,8.4978,8.4747,8.5016,8.7401,9.1056,9.5595,9.8596,10.0404,10.1404,10.2097,10.1904,10.1289,10.1289,10.1404,10.152,10.152,10.2404,10.3405,10.3405,10.3597,10.3905,10.3905,10.4597,10.529,10.529,10.579,10.6405,10.6405,10.6405,10.6405,10.6213,10.6213,10.6097,10.602,10.602,10.602,10.602,10.602,10.5713,10.4789,0.0,0.0,0.0,0.0,0.0,0.0,0.0,0.0,0.0,0.0,0.0,0.0,0.0,0.0,0.0,0.0,0.0,10.1712,10.3289,10.4405,10.5097,10.5905,10.6405,10.6405,10.6405,10.6405,10.6405,10.6405,10.6405,10.6405,10.6405,10.6405,10.6405,10.6405,10.6405,10.6405,10.6405,10.6405,10.6405,10.6405,10.6405,10.6405,10.6405,10.6405,10.6405,0.0,0.0,0.0,0.0,0.0,0.0,0.0,9.2249,0.0,9.3672,9.4134,9.4711,9.5595,9.5672,9.5826,9.6249,9.6673,9.6749,9.6326,9.6711,9.7096,9.748,9.7519,0.0,9.8788,9.7173,9.5441,9.371,0.0,8.844,8.6748,8.594,8.5747,8.6363,8.9748,9.3403,9.7096,9.9635,10.0904,10.1404,10.2212,10.2097,10.1289,10.1289,10.1289,10.1289,10.1289,10.1789,10.2597,10.2597,10.2904,10.3212,10.3212,10.3789,10.4597,10.4982,10.5405,10.579,10.629,10.6097,10.5713,10.5713,10.5713,10.5713,10.5713,10.6097,10.6405,10.6405,10.6405,10.6097,10.529,10.3405,0.0,0.0,0.0,0.0,0.0,0.0,0.0,0.0,0.0,0.0,0.0,0.0,0.0,0.0,0.0,0.0,10.0596,10.2712,10.4097,10.4482,10.5713,10.6405,10.6405,0.0,10.6405,10.6405,10.6405,10.6405,10.6405,10.6405,10.6405,10.6405,10.6405,10.6405,10.6405,10.6405,10.6405,10.6405,10.6405,10.6405,10.6405,10.6405,10.6405,10.6405,0.0,8.5517,0.0,0.0,9.0171,0.0,9.3633,9.4711,9.5288,9.5288,9.5288,9.5518,9.6249,9.6288,9.6288,9.6288,9.7057,9.725,9.6596,9.7326,9.7865,9.8057,9.8057,9.8442,9.9327,9.7865,9.6249,0.0,0.0,0.0,8.8171,8.7132,8.7325,8.8632,9.2326,9.548,9.8211,0.0,10.1712,10.1904,10.2789,10.2597,10.1904,10.1904,10.1904,10.1904,10.1904,10.1712,10.1597,10.1597,10.1904,10.2289,10.2289,10.2904,10.3712,10.4405,10.4713,10.4982,10.5713,10.5405,10.4789,10.4789,10.4982,10.5097,10.5097,10.579,10.6405,10.6405,10.6405,10.6097,10.529,10.3982,0.0,0.0,0.0,0.0,0.0,0.0,0.0,0.0,0.0,0.0,0.0,0.0,0.0,0.0,0.0,0.0,9.9788,10.2212,10.3597,10.3597,10.5213,10.6097,10.6097,0.0,10.6597,10.6405,10.6597,10.6597,10.6405,10.6405,10.6405,10.6405,10.6405,10.6405,10.6405,10.6405,10.6405,10.6405,10.6405,10.6405,10.6405,10.6405,10.6405,10.6405,0.0,0.0,0.0,0.0,0.0,0.0,9.4711,9.5634,9.6172,9.6172,9.6172,9.6211,9.6288,9.6288,9.6288,9.6288,9.7057,9.748,9.7403,9.8211,9.9019,9.9827,9.9865,10.0212,10.1019,10.0212,9.8904,0.0,0.0,9.2479,9.0825,8.921,8.971,9.2095,9.4018,9.6711,0.0,10.1712,10.2904,10.3712,10.4482,10.4405,10.3712,10.3712,10.3712,10.3712,10.3712,10.3097,10.252,10.252,10.202,10.1404,10.1404,10.202,10.2712,10.2789,10.3405,10.3982,10.4097,10.4097,10.3982,10.3982,10.4597,10.5097,10.5097,10.579,10.6405,10.6405,10.6405,10.6097,10.529,10.4982,10.4597,0.0,0.0,0.0,0.0,0.0,0.0,0.0,0.0,0.0,0.0,0.0,0.0,0.0,9.8365,0.0,0.0,10.1289,10.2712,10.2712,10.4289,10.5213,10.5213,10.679,10.7213,10.6405,10.7213,10.7213,10.6405,10.6405,10.6405,10.6405,10.6405,10.6405,10.6405,10.6405,10.6405,10.6405,10.6405,10.6405,10.6405,10.6405,10.6405,10.6405,0.0,0.0,0.0,0.0,0.0,0.0,0.0,9.7596,9.7788,9.7788,9.7365,9.7211,9.775,9.7788,9.7788,9.7788,9.8557,9.8827,9.8327,9.9096,9.975,10.0096,10.0096,10.0481,10.1289,10.0481,9.9481,0.0,0.0,0.0,9.2672,9.0979,9.1556,9.4095,9.6826,9.9096,10.0981,10.3212,10.3982,10.3982,10.4789,10.4597,10.3905,10.3905,10.3905,10.3905,10.3905,10.3712,10.3405,10.3405,10.2789,10.2097,10.2097,10.2712,10.3482,10.3982,10.4289,10.4713,10.529,10.4982,10.4597,10.4597,10.4905,10.5097,10.5097,10.579,10.6405,10.6405,10.6405,10.629,10.5905,10.5905,10.579,10.5482,0.0,0.0,0.0,0.0,0.0,0.0,0.0,0.0,0.0,0.0,0.0,0.0,0.0,0.0,0.0,0.0,10.2789,10.3405,10.4482,10.5405,10.5905,10.7098,10.7521,10.7213,10.8021,10.7982,10.7213,10.7213,10.6905,10.6405,10.6405,10.6405,10.6405,10.6405,10.6405,10.6405,10.6405,10.6405,10.6405,10.6405,10.6405,10.6405,9.4864,0.0,9.7211,0.0,9.7865,9.8096,9.8711,9.8788,9.8904,9.9135,9.8634,9.8404,9.875,9.8788,9.8788,9.8788,9.9596,9.9827,9.9211,9.9981,10.0481,10.0481,10.0481,0.0,10.1289,10.0712,9.9981,9.9173,9.7096,0.0,9.4788,9.3864,9.4672,9.698,9.9635,10.1404,10.252,10.4289,10.4905,10.4713,10.529,10.5097,10.4597,10.4597,10.4597,10.4597,10.4597,10.4482,10.4289,10.4289,10.3789,10.3289,10.3097,10.3405,10.3982,10.4597,10.4713,10.4905,10.5482,10.5213,10.4713,10.4713,10.4905,10.5097,10.5097,10.579,10.6405,10.6405,10.6405,10.6405,10.6405,10.6405,10.6405,10.6405,0.0,0.0,0.0,0.0,0.0,0.0,0.0,0.0,10.3482,0.0,0.0,0.0,0.0,0.0,0.0,0.0,0.0,0.0,0.0,0.0,10.602,10.7405,10.7905,10.7713,10.879,10.8906,10.8021,10.779,10.7213,10.6405,10.6405,10.6405,10.6405,10.6405,10.6405,10.6405,10.6405,10.6405,10.6405,10.6405,10.6405,10.6405,9.7634,9.8173,9.875,9.8788,9.8788,9.8788,9.8788,9.8788,9.9096,9.9981,10.0096,9.975,9.8904,9.8788,9.8788,9.8788,9.9596,10.0096,10.0096,10.0789,10.1289,0.0,0.0,10.1289,10.1289,10.1289,10.0904,10.0096,0.0,0.0,9.748,9.8288,9.9596,10.1289,10.2212,10.3482,10.5097,10.5097,10.5597,10.6405,10.6405,10.6405,10.6405,10.6405,10.6405,10.6405,10.6405,10.579,10.5097,10.5097,10.5097,10.4905,10.4097,10.3905,10.3905,10.3905,10.3905,10.3905,10.3905,10.3905,10.3905,10.3905,10.4482,10.5097,10.5097,10.579,10.6405,10.6405,10.6405,10.6405,10.6405,10.6405,10.6405,10.6405,10.6405,0.0,0.0,10.7713,0.0,0.0,10.7713,10.6982,10.5213,0.0,0.0,0.0,0.0,0.0,0.0,0.0,0.0,10.2597,10.4212,0.0,10.5097,10.7598,10.8482,10.7713,10.9406,10.9713,10.8906,10.8098,10.7213,10.6405,10.6405,10.6405,10.6405,10.6405,10.6405,10.6405,10.6405,10.6405,10.6405,10.6405,10.6405,10.6405,10.0096,10.0289,10.0519,10.0519,10.0519,10.0519,10.0519,10.0519,10.0789,10.1712,10.1789,10.1904,10.2212,10.1212,10.0519,0.0,10.0789,10.0904,0.0,10.1212,10.1289,10.1289,10.1289,10.1289,10.1289,10.1904,10.2097,10.1789,0.0,10.0904,10.0096,10.0981,10.1712,10.2212,10.3712,10.4597,10.5097,10.5713,10.6097,10.6405,10.6405,10.6405,10.6405,10.6405,10.6405,10.6405,10.6405,10.6213,10.602,10.602,10.602,10.5905,10.5713,10.5597,10.5597,10.5597,10.5597,10.5597,10.5597,10.5597,10.5597,10.5597,10.579,10.602,10.602,10.6213,10.6405,10.6405,10.6405,10.6405,10.6405,10.6405,10.6405,10.6405,10.6405,10.6521,10.679,0.0,10.679,10.679,10.679,10.6405,0.0,10.4597,0.0,0.0,0.0,0.0,0.0,0.0,0.0,0.0,10.4789,0.0,10.6905,10.8213,10.9098,10.9406,11.0521,11.0598,10.9713,10.829,10.7521,10.729,10.6713,10.6405,10.6405,10.6405,10.6405,10.6405,10.6405,10.6405,10.6405,10.6405,10.6405,10.6405,10.2289,10.2289,10.2289,10.2289,10.2289,10.2289,10.2289,10.2289,10.252,10.2981,10.3097,10.3289,10.3789,10.2904,0.0,10.2289,10.2289,10.2097,10.1789,10.1789,10.1597,10.1289,10.1289,10.1289,10.1289,10.2212,0.0,10.2597,10.2904,10.2981,10.2712,10.3289,10.3712,10.4097,10.5097,10.5597,10.5597,10.6213,10.6405,10.6405,10.6405,10.6405,10.6405,10.6405,10.6405,10.6405,10.6405,10.6405,10.6405,10.6405,10.6405,10.6405,10.6405,10.6405,10.6405,10.6405,10.6405,10.6405,10.6405,10.6405,10.6405,10.6405,10.6405,10.6405,10.6405,10.6405,10.6405,10.6405,10.6405,10.6405,10.6405,10.6405,10.6405,10.6405,10.6405,10.6405,10.6405,10.6405,10.6405,0.0,0.0,0.0,0.0,10.529,10.4789,0.0,0.0,0.0,0.0,0.0,10.3982,10.5097,10.5405,10.629,10.7713,10.8482,10.929,11.0214,11.1098,11.1021,11.0175,10.9098,10.8482,10.8098,10.729,10.6905,10.6905,10.6521,10.6405,10.6405,10.6405,10.6405,10.6405,10.6405,10.6405,10.6405,10.4097,10.3905,10.3905,0.0,10.3905,10.3905,10.3905,10.3905,10.3905,10.3982,10.3982,10.3982,10.4097,10.4097,10.4097,10.4097,0.0,0.0,10.2712,10.2712,10.2289,10.152,10.152,10.152,10.152,10.2289,10.2789,10.2904,10.3712,10.4482,10.5213,10.5213,10.5597,10.6405,10.6405,10.6405,10.6405,10.6405,10.6405,10.6405,10.6405,10.6405,10.6405,10.6405,10.6405,10.6405,10.6405,10.6405,10.6405,10.6405,10.6405,10.6405,10.6405,10.6405,10.6405,10.6405,10.6405,10.6405,10.6405,10.6405,10.6405,10.6405,10.6405,10.6405,10.6405,10.6405,10.6405,10.6405,10.6405,10.6405,10.6405,10.6405,10.6405,10.6405,10.6405,10.6405,10.6405,10.6405,10.6405,10.6405,10.6405,0.0,10.6405,10.5713,10.4905,0.0,0.0,0.0,0.0,0.0,10.5213,10.5213,10.602,10.6905,10.779,10.8598,10.9406,11.0291,11.1098,11.1098,11.0291,11.0214,10.979,10.8906,10.8098,10.779,10.7598,10.679,10.6521,10.6405,10.6405,10.6405,10.6405,10.6405,10.6405,10.6405,0.0,0.0,10.3905,10.3905,10.3905,10.3905,10.3905,10.3905,10.4097,10.4713,10.4789,10.5097,10.5713,10.579,10.579,10.579,10.4597,10.3789,10.3597,10.3597,10.3482,10.3289,10.3289,10.3289,10.3289,10.4097,10.4789,10.552,10.5713,10.5905,10.6097,10.6097,10.6213,10.6405,10.6405,10.6405,10.6405,10.6405,10.6405,10.6405,10.6405,10.6405,10.6405,10.6405,10.6405,10.6405,10.6405,10.6405,10.6405,10.6405,10.6405,10.6405,10.6405,10.6405,10.6405,10.6405,10.6405,10.6405,10.6405,10.6405,10.6405,10.6405,10.6405,10.6405,10.6405,10.6405,10.6405,10.6405,10.6405,10.6405,10.6405,10.6405,10.6405,10.6405,10.6405,10.6405,10.6405,10.6405,10.6405,10.6405,10.6405,10.6405,10.6405,10.6213,10.602,0.0,0.0,10.5597,10.579,10.602,10.6097,10.6097,10.6905,10.779,10.8598,10.9483,11.0291,11.1214,11.1406,11.1406,11.1214,11.0483,11.0098,10.979,10.8983,10.829,10.7713,10.7521,10.7021,10.6405,10.6405,10.6405,10.6405,10.6405,10.6405,10.6405,10.5713,10.529,10.502,10.502,10.502,10.502,10.502,10.502,10.5213,10.5597,10.5713,10.5905,10.629,10.6405,10.6405,10.6405,10.5597,10.4905,10.4482,10.4405,10.4289,10.3905,10.3905,10.3905,10.3905,10.4713,10.5482,10.6405,10.6405,10.6405,10.6405,10.6405,10.6405,10.6405,10.6405,10.6405,10.6405,10.6405,10.6405,10.6405,10.6405,10.6405,10.6405,10.6405,10.6405,10.6405,10.6405,10.6405,10.6405,10.6405,10.6405,10.6405,10.6405,10.6405,10.6405,10.6405,10.6405,10.6405,10.6405,10.6405,10.6405,10.6405,10.6405,10.6405,10.6405,10.6405,10.6405,10.6405,10.6405,10.6405,10.6405,10.6405,10.6405,10.6405,10.6405,10.6405,10.6405,10.6405,10.6405,10.6405,10.6405,10.6405,10.6405,10.6405,10.6213,10.579,10.579,10.579,10.579,10.579,10.602,10.6405,10.7213,10.8098,10.8906,11.0214,11.1021,11.1522,11.1522,11.1522,11.1522,11.1021,11.0791,11.0714,10.9906,10.9213,10.879,10.8406,10.7982,10.7521,10.7521,10.729,10.7021,10.7021,10.6713,10.6521,10.6405,10.6405,10.6405,10.6405,10.6405,10.6405,10.6405,10.6405,10.6405,10.6405,10.6405,10.6405,10.6405,10.6405,10.6405,10.6405,10.6405,10.6097,10.529,10.529,10.4982,10.4289,10.4289,10.4289,10.4289,10.4905,10.5713,10.6405,10.6405,10.6405,10.6405,10.6405,10.6405,10.6405,10.6405,10.6405,10.6405,10.6405,10.6405,10.6405,10.6405,10.6405,10.6405,10.6405,10.6405,10.6405,10.6405,10.6405,10.6405,10.6405,10.6405,10.6405,10.6405,10.6405,10.6405,10.6405,10.6405,10.6405,10.6405,10.6405,10.6405,10.6405,10.6405,10.6405,10.6405,10.6405,10.6405,10.6405,10.6405,10.6405,10.6405,10.6405,10.6405,10.6405,10.6405,10.6405,10.6405,10.6405,10.6405,10.6405,10.6405,10.6405,10.6405,10.6405,10.6097,10.5405,10.529,10.529,10.529,10.529,10.5713,10.6597,10.7405,10.829,10.929,11.0791,11.1522,11.1522,11.1522,11.1522,11.1522,11.1522,11.1522,11.1522,11.0714,11.0291,11.0098,10.9406,10.8983,10.8906,10.8906,10.8482,10.7905,10.7905,10.7405,10.6905,10.6405,10.6405,10.6405,10.6405,10.6405,10.6405,10.6405,10.6405,10.6405,10.6405,10.6405,10.6405,10.6405,10.6405,10.6405,10.6405,10.6405,10.629,10.6213,10.6213,10.6097,10.602,10.602,10.602,10.602,10.6097,10.629,10.6405,10.6405,10.6405,10.6405,10.6405,10.6405,10.6405,10.6405,10.6405,10.6405,10.6405,10.6405,10.6405,10.6405,10.6405,10.6405,10.6405,10.6405,10.6405,10.6405,10.6405,10.6405,10.6405,10.6405,10.6405,10.6405,10.6405,10.6405,10.6405,10.6405,10.6405,10.6405,10.6405,10.6405,10.6405,10.6405,10.6405,10.6405,10.6405,10.6405,10.6405,10.6405,10.6405,10.6405,10.6405,10.6405,10.6405,10.6405,10.6405,10.6405,10.6405,10.6405,10.6405,10.6405,10.6405,10.6405,10.6405,10.629,10.6213,10.6213,10.6213,10.6213,10.6213,10.6597,10.7482,10.829,10.9483,11.1098,11.1406,11.1522,11.1522,11.1522,11.1522,11.1522,11.1522,11.1522,11.1522,11.1406,11.0906,11.0214,11.0098,10.9598,10.8906,10.8906,10.879,10.8713,10.8713,10.8598,10.8482,10.6405,10.6405,10.6405,10.6405,10.6405,10.6405,10.6405,10.6405,10.6405,10.6405,10.6405,10.6405,10.6405,10.6405,10.6405,10.6405,10.6405,10.6405,10.6405,10.6405,10.6405,10.6405,10.6405,10.6405,10.6405,10.6405,10.6405,10.6405,10.6405,10.6405,10.6405,10.6405,10.6405,10.6405,10.6405,10.6405,10.6405,10.6405,10.6405,10.6405,10.6405,10.6405,10.6405,10.6405,10.6405,10.6405,10.6405,10.6405,10.6405,10.6405,10.6405,10.6405,10.6405,10.6405,10.6405,10.6405,10.6405,10.6405,10.6405,10.6405,10.6405,10.6405,10.6405,10.6405,10.6405,10.6405,10.6405,10.6405,10.6405,10.6405,10.6405,10.6405,10.6405,10.6405,10.6405,10.6405,10.6405,10.6405,10.6405,10.6405,10.6405,10.6405,10.6405,10.6405,10.6405,10.6405,10.6405,10.6405,10.6405,10.679,10.729,10.7713,10.8906,11.0214,11.1522,11.1522,11.1522,11.1522,11.1522,11.1522,11.1522,11.1522,11.1522,11.1522,11.1522,11.1291,11.0906,11.0906,11.0714,11.0291,11.0291,10.9983,10.9598,10.9598,10.929,10.8983,10.6199,10.6199,10.6199,10.6199,10.6203,10.628,10.628,10.6322,10.6284,10.6284,10.6284,10.6284,10.6402,10.6402,10.6402,10.6405,10.6405,10.6405,10.6405,10.6405,10.6405,10.6405,10.6405,10.6405,10.6405,10.6405,10.6405,10.6405,10.6405,10.6405,10.6405,10.6405,10.6405,10.6405,10.6405,10.6405,10.6405,10.6405,10.6405,10.6405,10.6405,10.6405,10.6405,10.6405,10.6405,10.6405,10.6405,10.6405,10.6405,10.6405,10.6405,10.6405,10.6405,10.6405,10.6405,10.6405,10.6405,10.6405,10.6405,10.6405,10.6405,10.6405,10.6405,10.6405,10.6405,10.6405,10.6405,10.6405,10.6405,10.6405,10.6405,10.6405,10.6521,10.6713,10.6713,10.6713,10.6713,10.6713,10.6597,10.6405,10.6405,10.6405,10.6405,10.6405,10.6405,10.6405,10.6405,10.6521,10.6713,10.729,10.7905,10.829,10.9483,11.0598,11.1522,11.1522,11.1522,11.1522,11.1522,11.1522,11.1522,11.1522,11.1522,11.1522,11.1522,11.1522,11.1522,11.1522,11.1522,11.1522,11.1522,11.1098,11.0483,11.0483,11.0098,10.9598,10.562,10.5696,10.5696,10.5696,10.5792,10.5809,10.5809,10.5901,10.603,10.603,10.603,10.6112,10.6199,10.6199,10.628,10.6405,10.6405,10.6405,10.6405,10.6405,10.6405,10.6405,10.6405,10.6405,10.6405,10.6405,10.6405,10.6405,10.6405,10.6405,10.6405,10.6405,10.6405,10.6405,10.6405,10.6405,10.6405,10.6405,10.6405,10.6405,10.6405,10.6405,10.6405,10.6405,10.6405,10.6405,10.6405,10.6405,10.6405,10.6405,10.6405,10.6405,10.6405,10.6405,10.6405,10.6405,10.6405,10.6405,10.6405,10.6405,10.6405,10.6405,10.6405,10.6405,10.6405,10.6405,10.6405,10.6405,10.6405,10.6405,10.6405,10.6405,10.6713,10.7521,10.7598,10.7598,10.7598,10.7598,10.729,10.6521,10.6405,10.6405,10.6405,10.6405,10.6405,10.6405,10.6405,10.679,10.7598,10.7713,10.8406,10.9983,11.0098,11.0598,11.1522,11.1522,11.1522,11.1522,11.1522,11.1522,11.1522,11.1522,11.1522,11.1522,11.1522,11.1522,11.1522,11.1522,11.1522,11.1522,11.1522,11.1522,11.1406,11.1406,11.1406,11.1291,10.5125,10.514,10.5102,10.532,10.5295,10.5384,10.5522,10.5609,10.5696,10.5716,10.5809,10.5894,10.5901,10.603,10.6112,10.6117,10.6194,10.6199,10.628,10.628,10.6284,10.6405,10.6405,10.6405,10.6405,10.6405,10.6405,10.6405,10.6405,10.6405,10.6405,10.6405,10.6405,10.6405,10.6405,10.6405,10.6405,10.6405,10.6405,10.6405,10.6405,10.6405,10.6405,10.6405,10.6405,10.6405,10.6405,10.6405,10.6405,10.6405,10.6405,10.6405,10.6405,10.6405,10.6405,10.6405,10.6405,10.6405,10.6405,10.6405,10.6405,10.6405,10.6405,10.6405,10.6405,10.679,10.7213,10.7213,10.7598,10.7982,10.7982,10.7982,10.8098,10.8406,10.8406,10.8406,10.8406,10.8406,10.8098,10.729,10.7213,10.7021,10.6521,10.6405,10.6405,10.6405,10.6905,10.7405,10.7713,10.8713,10.979,11.0983,11.1021,11.1214,11.1522,11.1522,11.1522,11.1522,11.1522,11.1522,11.1522,11.1522,11.1522,11.1522,11.1522,11.1522,11.1522,11.1522,11.1522,11.1522,11.1522,11.1522,11.1522,11.1522,11.1522,11.1522,10.4184,10.4281,10.4303,10.4533,10.4515,10.461,10.4816,10.4909,10.5018,10.5178,10.5282,10.5384,10.5609,10.5706,10.5801,10.5886,10.5894,10.6023,10.6068,10.6194,10.628,10.6405,10.6405,10.6405,10.6405,10.6405,10.6405,10.6405,10.6405,10.6405,10.6405,10.6405,10.6405,10.6405,10.6405,10.6405,10.6405,10.6405,10.6405,10.6405,10.6405,10.6405,10.6405,10.6405,10.6405,10.6405,10.6405,10.6405,10.6405,10.6405,10.6405,10.6405,10.6405,10.6405,10.6405,10.6405,10.6405,10.6405,10.6405,10.6405,10.6405,10.6405,10.6405,10.6405,10.6405,10.7098,10.7713,10.7713,10.829,10.8906,10.8906,10.8906,10.8983,10.929,10.929,10.929,10.929,10.929,10.8906,10.779,10.7713,10.7405,10.6521,10.6405,10.6521,10.679,10.7405,10.7905,10.8482,10.979,11.0906,11.1522,11.1522,11.1522,11.1522,11.1522,11.1522,11.1522,11.1522,11.1522,11.1522,11.1522,11.1522,11.1522,11.1522,11.1522,11.1522,11.1522,11.1522,11.1522,11.1522,11.1522,11.1522,11.1522,11.1522,11.1522,10.3213,10.3176,10.3176,10.3176,10.3275,10.3514,10.3711,10.3764,10.4016,10.4395,10.4492,10.4704,10.511,10.5201,10.5306,10.5609,10.5668,10.5801,10.5801,10.5991,10.628,10.6405,10.6405,10.6405,10.6405,10.6405,10.6405,10.6405,10.6405,10.6405,10.6405,10.6405,10.6405,10.6405,10.6405,10.6405,10.6405,10.6405,10.6405,10.6405,10.6405,10.6405,10.6405,10.6405,10.6405,10.6405,10.6405,10.6405,10.6405,10.6405,10.6405,10.6405,10.6405,10.6405,10.6405,10.6405,10.6405,10.6405,10.6405,10.6405,10.6405,10.6405,10.6405,10.6405,10.6405,10.7098,10.7713,10.7713,10.829,10.8906,10.8906,10.8906,10.9213,11.0098,11.0214,11.0214,11.0214,11.0214,10.9598,10.7905,10.7713,10.7405,10.6521,10.6405,10.679,10.7598,10.7713,10.8406,11.0098,11.1021,11.1522,11.1522,11.1522,11.1522,11.1522,11.1522,11.1522,11.1522,11.1522,11.1522,11.1522,11.1522,11.1522,11.1522,11.1522,11.1522,11.1522,11.1522,11.1522,11.1522,11.1522,11.1522,11.1522,11.1522,11.1522,11.1522,10.2611,10.2647,10.287,10.361,10.331,10.3158,10.3891,10.3724,10.3514,10.3786,10.4004,10.4191,10.4297,10.4416,10.4571,10.4798,10.4892,10.5018,10.5396,10.5668,10.5901,10.6023,10.6203,10.6405,10.6405,10.6405,10.6405,10.6405,10.6405,10.6405,10.6405,10.6405,10.6405,10.6405,10.6405,10.6405,10.6405,10.6405,10.6405,10.6405,10.6405,10.6405,10.6405,10.6405,10.6405,10.6405,10.6405,10.6405,10.6405,10.6405,10.6405,10.6405,10.6405,10.6405,10.6405,10.6405,10.6405,10.6405,10.6405,10.6405,10.6405,10.6405,10.6405,10.6405,10.6405,10.7098,10.7905,10.8406,10.9213,10.979,10.979,11.0291,11.0598,11.0291,11.0714,11.0906,11.0291,11.0214,10.9598,10.7905,10.7713,10.7405,10.6521,10.6405,10.679,10.7598,10.879,10.9906,11.1098,11.1406,11.1522,11.1522,11.1522,11.1522,11.1522,11.1522,11.1522,11.1522,11.1522,11.1522,11.1522,11.1522,11.1522,11.1522,11.1522,11.1522,11.1522,11.1522,11.1522,11.1522,11.1522,11.1522,11.1522,11.1522,11.1522,11.1522,10.2009,10.1972,10.2234,10.2791,10.2535,10.235,10.3094,10.2908,10.2682,10.3005,10.3176,10.338,10.3552,10.3608,10.3776,10.4004,10.4091,10.4432,10.493,10.5216,10.5384,10.5598,10.5894,10.6194,10.6284,10.6672,10.6905,10.6905,10.6905,10.6905,10.6905,10.6597,10.6405,10.6405,10.6405,10.6405,10.6405,10.6405,10.6405,10.6405,10.6405,10.6405,10.6405,10.6405,10.6405,10.6405,10.6405,10.6405,10.6405,10.6405,10.6405,10.6405,10.6405,10.6405,10.6405,10.6405,10.6405,10.6405,10.6405,10.6405,10.6405,10.6405,10.6405,10.6405,10.6405,10.7098,10.779,10.829,10.9098,10.9713,10.9713,11.0098,11.0291,10.979,11.0098,11.0291,10.979,10.9713,10.9213,10.7905,10.7713,10.7405,10.6521,10.6405,10.6905,10.8098,10.979,11.0906,11.1522,11.1522,11.1522,11.1522,11.1522,11.1522,11.1522,11.1522,11.1522,11.1522,11.1522,11.1522,11.1522,11.1522,11.1522,11.1522,11.1522,11.1522,11.1522,11.1522,11.1522,11.1522,11.1522,11.1522,11.1522,11.1522,11.1522,11.1522,10.1494,10.1494,10.1494,10.1604,10.1494,10.1611,10.1807,10.1849,10.1854,10.2351,10.2351,10.2464,10.2792,10.2826,10.2897,10.3107,10.341,10.3802,10.4275,10.4513,10.4704,10.5132,10.5358,10.5783,10.6227,10.7206,10.7713,10.7713,10.779,10.779,10.779,10.6905,10.6521,10.6521,10.6405,10.6405,10.6405,10.6405,10.6405,10.6405,10.6405,10.6405,10.6405,10.6405,10.6405,10.6405,10.6405,10.6405,10.6405,10.6405,10.6405,10.6405,10.6405,10.6405,10.6405,10.6405,10.6405,10.6405,10.6405,10.6405,10.6405,10.6405,10.6405,10.6405,10.6405,10.7021,10.7598,10.7713,10.829,10.879,10.879,10.8906,10.8906,10.879,10.8906,10.8906,10.879,10.879,10.8482,10.7713,10.7598,10.729,10.6521,10.6521,10.7213,10.879,11.0406,11.1406,11.1522,11.1522,11.1522,11.1522,11.1522,11.1522,11.1522,11.1522,11.1522,11.1522,11.1522,11.1522,11.1522,11.1522,11.1522,11.1522,11.1522,11.1522,11.1522,11.1522,11.1522,11.1522,11.1522,11.1522,11.1522,11.1522,11.1522,11.1522,10.1494,10.1494,10.1677,10.2301,10.1898,10.1677,10.2419,10.2059,10.1776,10.1854,10.2083,10.22,10.2276,10.2276,10.2426,10.2575,10.2863,10.3107,10.3207,10.3711,10.3891,10.3991,10.5176,10.5914,10.6206,10.7082,10.751,10.751,10.8287,10.8598,10.8598,10.779,10.7405,10.7405,10.6713,10.6405,10.6405,10.6405,10.6405,10.6405,10.6405,10.6405,10.6405,10.6405,10.6405,10.6405,10.6405,10.6405,10.6405,10.6405,10.6405,10.6405,10.6405,10.6405,10.6405,10.6405,10.6405,10.6405,10.6405,10.6405,10.6405,10.6405,10.6405,10.6405,10.6405,10.6521,10.6905,10.7598,10.779,10.7982,10.7982,10.8482,10.8713,10.8098,10.8482,10.8713,10.8021,10.7982,10.7598,10.679,10.6713,10.6597,10.6405,10.7021,10.779,10.879,10.9906,11.0791,11.1522,11.1522,11.1522,11.1522,11.1522,11.1522,11.1522,11.1522,11.1522,11.1522,11.1522,11.1522,11.1522,11.1522,11.1522,11.1522,11.1522,11.1522,11.1522,11.1522,11.1522,11.1522,11.1522,11.1522,11.1522,11.1522,11.1522,11.1522,10.1494,10.1494,10.1604,10.2081,10.1788,10.1604,10.2081,10.1868,10.1691,10.1691,10.1697,10.1776,10.1776,10.1776,10.2001,10.2603,10.2832,10.3168,10.3799,10.4089,10.4264,10.451,10.5419,10.6001,10.611,10.7278,10.8115,10.8477,10.9112,10.9392,10.9397,10.8594,10.8098,10.7713,10.7213,10.679,10.6405,10.6405,10.6405,10.6405,10.6405,10.6405,10.6405,10.6405,10.6405,10.6405,10.6405,10.6405,10.6405,10.6405,10.6405,10.6405,10.6405,10.6405,10.6405,10.6405,10.6405,10.6405,10.6405,10.6405,10.6405,10.6405,10.6405,10.6405,10.6405,10.6405,10.6521,10.7021,10.7098,10.7098,10.7098,10.7405,10.7598,10.7098,10.7405,10.7598,10.7098,10.7098,10.6905,10.6521,10.6405,10.6405,10.6405,10.7213,10.7905,10.829,10.9098,10.979,11.0214,11.0714,11.0906,11.0906,11.1291,11.1522,11.1522,11.1522,11.1522,11.1522,11.1522,11.1522,11.1522,11.1522,11.1522,11.1522,11.1522,11.1522,11.1522,11.1522,11.1522,11.1522,11.1522,11.1522,11.1522,11.1522,11.1522,11.1522,10.1494,10.1494,10.1494,10.1494,10.1604,10.1677,10.1677,10.1788,10.1898,10.1898,10.1898,10.1898,10.1898,10.1898,10.2199,10.3095,10.3168,10.3586,10.4643,10.468,10.476,10.5136,10.5612,10.6006,10.6137,10.7596,10.8707,10.9404,10.9705,11.0002,11.0103,10.9431,10.8705,10.8133,10.7902,10.7402,10.6633,10.6595,10.6479,10.6402,10.6405,10.6405,10.6405,10.6405,10.6405,10.6405,10.6405,10.6405,10.6405,10.6405,10.6405,10.6405,10.6405,10.6405,10.6405,10.6405,10.6405,10.6405,10.6405,10.6405,10.6405,10.6405,10.6405,10.6405,10.6405,10.6405,10.6405,10.6405,10.6405,10.6405,10.6405,10.6405,10.6405,10.6405,10.6405,10.6405,10.6405,10.6405,10.6405,10.6405,10.6405,10.6405,10.6405,10.7098,10.7521,10.7713,10.829,10.879,10.8906,10.9598,10.9983,10.9983,11.0714,11.1098,11.1291,11.1291,11.1406,11.1522,11.1522,11.1522,11.1522,11.1522,11.1522,11.1522,11.1522,11.1522,11.1522,11.1522,11.1522,11.1522,11.1522,11.1522,11.1522,11.1522,11.1522,11.1522,10.1494,10.1494,10.1494,10.1494,10.2081,10.2522,10.2522,10.3109,10.3586,10.3586,10.3586,10.3586,10.3586,10.3586,10.3586,10.3852,10.3815,10.3815,10.4044,10.4206,10.4286,10.4292,10.5461,10.6064,10.6289,10.7328,10.8067,10.8555,10.9726,11.041,11.0525,10.9782,10.9504,10.952,10.8715,10.7909,10.718,10.7269,10.689,10.6203,10.6402,10.6405,10.6405,10.6405,10.6405,10.6405,10.6405,10.6405,10.6405,10.6405,10.6405,10.6405,10.6405,10.6405,10.6405,10.6405,10.6405,10.6405,10.6405,10.6405,10.6405,10.6405,10.6405,10.6405,10.6405,10.6405,10.6405,10.6405,10.6405,10.6405,10.6405,10.6405,10.6405,10.6405,10.6405,10.6405,10.6405,10.6405,10.6405,10.6405,10.6405,10.6405,10.6405,10.6521,10.6905,10.7598,10.779,10.8213,10.8906,10.8983,10.9098,10.9098,10.9213,10.9598,11.0406,11.0406,11.0791,11.1522,11.1522,11.1522,11.1522,11.1522,11.1522,11.1522,11.1522,11.1522,11.1522,11.1522,11.1522,11.1522,11.1522,11.1522,11.1522,11.1522,11.1522,11.1522,10.1494,10.1494,10.1604,10.2081,10.2485,10.2889,10.3293,10.3696,10.388,10.388,10.388,10.388,10.388,10.388,10.41,10.4504,10.4614,10.4798,10.5275,10.5395,10.5404,10.5404,10.6055,10.6481,10.6487,10.7172,10.7554,10.783,10.8893,10.9672,10.9979,10.9802,10.9566,10.9303,10.9022,10.841,10.7607,10.783,10.7418,10.6575,10.6713,10.6496,10.6199,10.628,10.6326,10.6405,10.6405,10.6405,10.6405,10.6405,10.6405,10.6405,10.6405,10.6405,10.6405,10.6405,10.6405,10.6405,10.6405,10.6405,10.6405,10.6405,10.6405,10.6405,10.6405,10.6405,10.6405,10.6405,10.6405,10.6405,10.6405,10.6405,10.6405,10.6405,10.6405,10.6405,10.6405,10.6405,10.6405,10.6405,10.6405,10.6405,10.6405,10.6405,10.6597,10.6905,10.7021,10.7098,10.7521,10.7982,10.8213,10.8213,10.8713,10.9098,10.9483,10.9483,10.9906,11.0791,11.0791,11.1021,11.1522,11.1522,11.1522,11.1522,11.1522,11.1522,11.1522,11.1522,11.1522,11.1522,11.1522,11.1522,11.1522,11.1522,11.1522,11.1406]},{"header":{"parameterUnit":"m.s-1","parameterCategory":1,"la1":30.6,"la2":28.766,"lo1":-90.7593,"lo2":-88.6598,"dx":0.0162,"dy":0.0183,"nx":116,"ny":114,"refTime":"2022-11-14T18:00:00:Z","depth":0,"parameterNumber":3,"parameterNumberName":"V-component_of_WINDS"},"data":[0.0,0.0,0.0,0.0,0.0,0.0,0.0,0.0,0.0,0.0,0.0,0.0,0.0,0.0,0.0,0.0,0.0,0.0,0.0,0.0,0.0,0.0,0.0,0.0,0.0,0.0,0.0,0.0,0.0,0.0,0.0,0.0,0.0,0.0,0.0,0.0,0.0,0.0,0.0,0.0,0.0,0.0,0.0,0.0,0.0,0.0,0.0,0.0,0.0,0.0,0.0,0.0,0.0,0.0,0.0,0.0,0.0,0.0,0.0,0.0,0.0,0.0,0.0,0.0,0.0,0.0,0.0,0.0,0.0,0.0,0.0,0.0,0.0,0.0,0.0,0.0,0.0,0.0,0.0,0.0,0.0,0.0,0.0,0.0,0.0,0.0,0.0,0.0,0.0,0.0,0.0,0.0,0.0,0.0,0.0,0.0,0.0,0.0,0.0,0.0,0.0,0.0,0.0,0.0,0.0,0.0,0.0,0.0,0.0,0.0,0.0,0.0,0.0,0.0,0.0,0.0,0.0,0.0,0.0,0.0,0.0,0.0,0.0,0.0,0.0,0.0,0.0,0.0,0.0,0.0,0.0,0.0,0.0,0.0,0.0,0.0,0.0,0.0,0.0,0.0,0.0,0.0,0.0,0.0,0.0,0.0,0.0,0.0,0.0,0.0,0.0,0.0,0.0,0.0,0.0,0.0,0.0,0.0,0.0,0.0,0.0,0.0,0.0,0.0,0.0,0.0,0.0,0.0,0.0,0.0,0.0,0.0,0.0,0.0,0.0,0.0,0.0,0.0,0.0,0.0,0.0,0.0,0.0,0.0,0.0,0.0,0.0,0.0,0.0,0.0,0.0,0.0,0.0,0.0,0.0,0.0,0.0,0.0,0.0,0.0,0.0,0.0,0.0,0.0,0.0,0.0,0.0,0.0,0.0,0.0,0.0,0.0,0.0,0.0,0.0,0.0,0.0,0.0,0.0,0.0,0.0,0.0,0.0,0.0,0.0,0.0,0.0,0.0,0.0,0.0,0.0,0.0,0.0,0.0,0.0,0.0,0.0,0.0,0.0,0.0,0.0,0.0,0.0,0.0,0.0,0.0,0.0,0.0,0.0,0.0,0.0,0.0,0.0,0.0,0.0,0.0,0.0,0.0,0.0,0.0,0.0,0.0,0.0,0.0,0.0,0.0,0.0,0.0,0.0,0.0,0.0,0.0,0.0,0.0,0.0,0.0,0.0,0.0,0.0,0.0,0.0,0.0,0.0,0.0,0.0,0.0,0.0,0.0,0.0,0.0,0.0,0.0,0.0,0.0,0.0,0.0,0.0,0.0,0.0,0.0,0.0,0.0,0.0,0.0,0.0,0.0,0.0,0.0,0.0,0.0,0.0,0.0,0.0,0.0,0.0,0.0,0.0,0.0,0.0,0.0,0.0,0.0,0.0,0.0,0.0,0.0,0.0,0.0,0.0,0.0,0.0,0.0,0.0,0.0,0.0,0.0,0.0,0.0,0.0,0.0,0.0,0.0,0.0,0.0,0.0,0.0,0.0,0.0,0.0,0.0,0.0,0.0,0.0,0.0,0.0,0.0,0.0,0.0,0.0,0.0,0.0,0.0,0.0,0.0,0.0,0.0,0.0,0.0,0.0,0.0,0.0,0.0,0.0,0.0,0.0,0.0,0.0,0.0,0.0,0.0,0.0,0.0,0.0,0.0,0.0,0.0,0.0,0.0,0.0,0.0,0.0,0.0,0.0,0.0,0.0,0.0,0.0,0.0,0.0,0.0,0.0,0.0,0.0,0.0,0.0,0.0,0.0,0.0,0.0,0.0,0.0,0.0,0.0,0.0,0.0,0.0,0.0,0.0,0.0,0.0,0.0,0.0,0.0,0.0,0.0,0.0,0.0,0.0,0.0,0.0,0.0,0.0,0.0,0.0,0.0,0.0,0.0,0.0,0.0,0.0,0.0,0.0,0.0,0.0,0.0,0.0,0.0,0.0,0.0,0.0,0.0,0.0,0.0,0.0,0.0,0.0,0.0,0.0,0.0,0.0,0.0,0.0,0.0,0.0,0.0,0.0,0.0,0.0,0.0,0.0,0.0,0.0,0.0,0.0,0.0,0.0,0.0,0.0,0.0,0.0,0.0,0.0,0.0,0.0,0.0,0.0,0.0,0.0,0.0,0.0,0.0,0.0,0.0,0.0,0.0,0.0,0.0,0.0,0.0,0.0,0.0,0.0,0.0,0.0,0.0,0.0,0.0,0.0,0.0,0.0,0.0,0.0,0.0,0.0,0.0,0.0,0.0,0.0,0.0,0.0,0.0,0.0,0.0,0.0,0.0,0.0,0.0,0.0,0.0,0.0,0.0,0.0,0.0,0.0,0.0,0.0,0.0,0.0,0.0,0.0,0.0,0.0,0.0,0.0,0.0,0.0,0.0,0.0,0.0,0.0,0.0,0.0,0.0,0.0,0.0,0.0,0.0,0.0,0.0,0.0,0.0,0.0,0.0,0.0,0.0,0.0,0.0,0.0,0.0,0.0,0.0,0.0,0.0,0.0,0.0,0.0,0.0,0.0,0.0,0.0,0.0,0.0,0.0,0.0,0.0,0.0,0.0,0.0,0.0,0.0,0.0,0.0,0.0,0.0,0.0,0.0,0.0,0.0,0.0,0.0,0.0,0.0,0.0,0.0,0.0,0.0,0.0,0.0,0.0,0.0,0.0,0.0,0.0,0.0,0.0,0.0,0.0,0.0,0.0,0.0,0.0,0.0,0.0,0.0,0.0,0.0,0.0,0.0,0.0,0.0,0.0,0.0,0.0,0.0,0.0,0.0,0.0,0.0,0.0,0.0,0.0,0.0,0.0,0.0,0.0,0.0,0.0,0.0,0.0,0.0,0.0,0.0,0.0,0.0,0.0,0.0,0.0,0.0,0.0,0.0,0.0,0.0,0.0,0.0,0.0,0.0,0.0,0.0,0.0,0.0,0.0,0.0,0.0,0.0,0.0,0.0,0.0,0.0,0.0,0.0,0.0,0.0,0.0,0.0,0.0,0.0,0.0,0.0,0.0,0.0,0.0,0.0,0.0,0.0,0.0,0.0,0.0,0.0,0.0,0.0,0.0,0.0,0.0,0.0,0.0,0.0,0.0,0.0,0.0,0.0,0.0,0.0,0.0,0.0,0.0,0.0,0.0,0.0,0.0,0.0,0.0,0.0,0.0,0.0,0.0,0.0,0.0,0.0,0.0,0.0,0.0,0.0,0.0,0.0,0.0,0.0,0.0,0.0,0.0,0.0,0.0,0.0,0.0,0.0,0.0,0.0,0.0,0.0,0.0,0.0,0.0,0.0,0.0,0.0,0.0,0.0,0.0,0.0,0.0,0.0,0.0,0.0,0.0,0.0,0.0,0.0,0.0,0.0,0.0,0.0,0.0,0.0,0.0,0.0,0.0,0.0,0.0,0.0,0.0,0.0,0.0,0.0,0.0,0.0,0.0,0.0,0.0,0.0,0.0,0.0,0.0,0.0,0.0,0.0,0.0,0.0,0.0,0.0,0.0,0.0,0.0,0.0,0.0,0.0,0.0,0.0,0.0,0.0,0.0,0.0,0.0,0.0,0.0,0.0,0.0,0.0,0.0,0.0,0.0,0.0,0.0,0.0,0.0,0.0,0.0,0.0,0.0,0.0,0.0,0.0,0.0,0.0,0.0,0.0,0.0,0.0,0.0,0.0,0.0,0.0,0.0,0.0,0.0,0.0,0.0,0.0,0.0,0.0,0.0,0.0,0.0,0.0,0.0,0.0,0.0,0.0,0.0,0.0,0.0,0.0,0.0,0.0,0.0,0.0,0.0,0.0,0.0,0.0,0.0,0.0,0.0,0.0,0.0,0.0,0.0,0.0,0.0,0.0,0.0,0.0,0.0,0.0,0.0,0.0,0.0,0.0,0.0,0.0,0.0,0.0,0.0,0.0,0.0,0.0,0.0,0.0,0.0,0.0,0.0,0.0,0.0,0.0,0.0,0.0,0.0,0.0,0.0,0.0,0.0,0.0,0.0,0.0,0.0,0.0,0.0,0.0,0.0,0.0,0.0,0.0,0.0,0.0,0.0,0.0,0.0,0.0,0.0,0.0,0.0,0.0,0.0,0.0,0.0,0.0,0.0,0.0,0.0,0.0,0.0,0.0,0.0,0.0,0.0,0.0,0.0,0.0,0.0,0.0,0.0,0.0,0.0,0.0,0.0,0.0,0.0,0.0,0.0,0.0,0.0,0.0,0.0,0.0,0.0,0.0,0.0,0.0,0.0,0.0,0.0,0.0,0.0,0.0,0.0,0.0,0.0,0.0,0.0,0.0,0.0,0.0,0.0,0.0,0.0,0.0,0.0,0.0,0.0,0.0,0.0,0.0,0.0,0.0,0.0,0.0,0.0,0.0,0.0,0.0,0.0,0.0,0.0,0.0,0.0,0.0,0.0,0.0,0.0,0.0,0.0,0.0,0.0,0.0,0.0,0.0,0.0,0.0,0.0,0.0,0.0,0.0,0.0,0.0,0.0,0.0,0.0,0.0,0.0,0.0,0.0,0.0,0.0,0.0,0.0,0.0,0.0,0.0,0.0,0.0,0.0,0.0,0.0,0.0,0.0,0.0,0.0,0.0,0.0,0.0,0.0,0.0,0.0,0.0,0.0,0.0,0.0,0.0,0.0,0.0,0.0,0.0,0.0,0.0,0.0,0.0,0.0,0.0,0.0,0.0,0.0,0.0,0.0,0.0,0.0,0.0,0.0,0.0,0.0,0.0,0.0,0.0,0.0,0.0,0.0,0.0,0.0,0.0,0.0,0.0,0.0,0.0,0.0,0.0,0.0,0.0,0.0,0.0,0.0,0.0,0.0,0.0,0.0,0.0,0.0,0.0,0.0,0.0,0.0,0.0,0.0,0.0,0.0,0.0,0.0,0.0,0.0,0.0,0.0,0.0,0.0,0.0,0.0,0.0,0.0,0.0,0.0,0.0,0.0,0.0,0.0,0.0,0.0,0.0,0.0,0.0,0.0,0.0,0.0,0.0,0.0,0.0,0.0,0.0,0.0,0.0,0.0,0.0,0.0,0.0,0.0,0.0,0.0,0.0,0.0,0.0,0.0,0.0,0.0,0.0,0.0,0.0,0.0,0.0,0.0,0.0,0.0,0.0,0.0,0.0,0.0,0.0,0.0,0.0,0.0,0.0,0.0,0.0,0.0,0.0,0.0,0.0,0.0,0.0,0.0,0.0,0.0,0.0,0.0,0.0,0.0,0.0,0.0,0.0,0.0,0.0,0.0,0.0,0.0,0.0,0.0,0.0,0.0,0.0,0.0,0.0,0.0,0.0,0.0,0.0,0.0,0.0,0.0,0.0,0.0,0.0,0.0,0.0,0.0,0.0,0.0,0.0,0.0,0.0,0.0,0.0,0.0,0.0,0.0,0.0,0.0,0.0,0.0,0.0,0.0,0.0,0.0,0.0,0.0,0.0,0.0,0.0,0.0,0.0,0.0,0.0,0.0,0.0,0.0,0.0,0.0,0.0,0.0,0.0,0.0,0.0,0.0,0.0,0.0,0.0,0.0,0.0,0.0,0.0,0.0,0.0,0.0,0.0,0.0,0.0,0.0,0.0,0.0,0.0,0.0,0.0,0.0,0.0,0.0,0.0,0.0,0.0,0.0,0.0,0.0,0.0,0.0,0.0,0.0,0.0,0.0,0.0,0.0,0.0,0.0,0.0,0.0,0.0,0.0,0.0,0.0,0.0,0.0,0.0,0.0,0.0,0.0,0.0,0.0,0.0,0.0,0.0,0.0,0.0,0.0,0.0,0.0,0.0,0.0,0.0,0.0,0.0,0.0,0.0,0.0,0.0,0.0,0.0,0.0,0.0,0.0,0.0,0.0,0.0,0.0,0.0,0.0,0.0,0.0,0.0,0.0,0.0,0.0,0.0,0.0,0.0,0.0,0.0,0.0,0.0,0.0,0.0,0.0,0.0,0.0,0.0,0.0,0.0,0.0,0.0,0.0,0.0,0.0,0.0,0.0,0.0,0.0,0.0,0.0,0.0,0.0,0.0,0.0,0.0,0.0,0.0,0.0,0.0,0.0,0.0,0.0,0.0,-0.8908,0.0,0.0,0.0,0.0,0.0,0.0,0.0,0.0,0.0,0.0,0.0,0.0,0.0,0.0,0.0,0.0,0.0,0.0,0.0,0.0,0.0,0.0,0.0,0.0,-0.3602,-0.328,-0.2868,-0.2642,0.0,0.0,0.0,0.0,0.0,0.0,0.0,-0.1112,-0.1271,-0.1054,-0.048,-0.0289,-0.0312,-0.0426,-0.0504,-0.0325,0.0,0.0,0.0,0.0,0.0,0.0,0.0,0.0,0.0,0.0,0.0,0.0,0.0,0.0,0.0,0.0,0.0,0.0,0.0,0.0,0.0,0.0,0.0,0.0,0.0,0.0,0.0,0.0,0.0,0.0,0.0,0.0,0.0,0.0,0.0,0.0,0.0,0.0,0.0,0.0,0.0,0.0,0.0,0.0,0.0,0.0,0.0,0.0,0.0,0.0,0.0,0.0,0.0,0.0,0.0,0.0,0.0,0.0,0.0,0.0,0.0,0.0,0.0,0.0,0.0,0.0,0.0,0.0,0.0,0.0,0.0,0.0,-0.9069,0.0,0.0,0.0,0.0,0.0,0.0,0.0,0.0,0.0,0.0,0.0,0.0,0.0,0.0,0.0,0.0,0.0,0.0,0.0,0.0,0.0,-0.3649,-0.3523,-0.3168,-0.2802,-0.2513,-0.2271,-0.1956,-0.1517,-0.1259,0.0,0.0,0.0,0.0,-0.0948,-0.0803,-0.0497,0.0,0.0,0.0,0.0,0.0,0.0,0.0,0.0,0.0,0.0,0.0,0.0,0.0,0.0,0.0,0.0,0.0,0.0,0.0,0.0,0.0,0.0,0.0,0.0,0.0,0.0,0.0,0.0,0.0,0.0,0.0,0.0,0.0,0.0,0.0,0.0,0.0,0.0,0.0,0.0,0.0,0.0,0.0,0.0,0.0,0.0,0.0,0.0,0.0,0.0,0.0,0.0,0.0,0.0,0.0,0.0,0.0,0.0,0.0,0.0,0.0,0.0,0.0,0.0,0.0,0.0,0.0,0.0,0.0,0.0,0.0,-0.9529,-0.9803,-1.0031,-1.0127,-1.0427,-1.0909,-0.9956,-0.954,-0.9435,-0.834,0.0,0.0,0.0,0.0,0.0,0.0,0.0,0.0,0.0,0.0,0.0,0.0,0.0,0.0,0.0,0.0,0.0,0.0,0.0,-0.3114,-0.2798,-0.2624,-0.2406,-0.1996,-0.1863,-0.1518,-0.1034,-0.0676,0.0,0.0,0.0,0.0,-0.1103,-0.0436,-0.0078,0.0,0.0,0.0,0.0,0.0,0.0,0.0,0.0,0.0,0.0,0.0,0.0,0.0,0.0,0.0,0.0,0.0,0.0,0.0,0.0,0.0,0.0,0.0,0.0,0.0,0.0,0.0,0.0,0.0,0.0,0.0,0.0,0.0,0.0,0.0,0.0,0.0,0.0,0.0,0.0,0.0,0.0,0.0,0.0,0.0,0.0,0.0,0.0,0.0,0.0,0.0,-0.8526,-0.8587,0.0,0.0,0.0,0.0,0.0,0.0,0.0,0.0,0.0,0.0,0.0,0.0,0.0,-0.8833,-0.8815,-0.9604,-0.9971,-0.9739,-1.0144,-1.0123,-0.949,-0.9501,-0.9558,-0.9787,-0.9542,0.0,-1.029,-0.9247,0.0,0.0,0.0,0.0,0.0,0.0,0.0,0.0,0.0,0.0,0.0,0.0,0.0,0.0,0.0,0.0,0.0,0.0,0.0,0.0,0.0,-0.2229,-0.1975,-0.1754,-0.1471,-0.1242,-0.0995,-0.0523,0.0,0.0,0.0,-0.0499,-0.0512,-0.016,0.0,0.0,0.0,0.0,0.0,0.0,0.0,0.0,0.0,0.0,0.0,0.0,0.0,0.0,0.0,0.0,0.0,0.0,0.0,0.0,0.0,0.0,0.0,0.0,0.0,0.0,0.0,0.0,0.0,0.0,0.0,0.0,0.0,0.0,0.0,0.0,0.0,0.0,0.0,0.0,0.0,0.0,0.0,0.0,0.0,0.0,0.0,0.0,0.0,0.0,0.0,-0.8845,-0.9429,-0.968,-0.949,-0.9286,0.0,0.0,0.0,0.0,0.0,0.0,0.0,0.0,0.0,-0.9234,-0.9534,-0.97,-0.9726,-0.9965,-1.0177,-1.0367,-1.0254,-1.014,-0.9861,-0.9475,-0.9278,-0.9264,-0.9264,-0.9447,-0.9666,-0.896,-0.7911,-0.6325,0.0,0.0,0.0,0.0,-0.3842,-0.4961,0.0,0.0,0.0,0.0,0.0,0.0,0.0,0.0,0.0,0.0,0.0,0.0,-0.2094,-0.1852,-0.1636,-0.1549,-0.1309,-0.1046,-0.0858,-0.033,0.0,0.0,0.0,0.0,0.0,0.0,0.0,0.0,0.0,0.0,0.0,0.0,0.0,0.0,0.0,0.0,0.0,0.0,0.0,0.0,0.0,0.0,0.0,0.0,0.0,0.0,0.0,0.0,0.0,0.0,0.0,0.0,0.0,0.0,0.0,0.0,0.0,0.0,0.0,0.0,0.0,0.0,0.0,0.0,0.0,0.0,0.0,0.0,0.0,0.0,0.0,0.0,0.0,0.0,0.0,0.0,0.0,-0.9632,-1.0107,-1.0555,-1.0276,-1.0053,0.0,0.0,0.0,0.0,0.0,0.0,-1.027,-1.0482,-1.0399,-0.9966,-1.0047,-0.9982,-0.9774,-0.9613,-0.9771,-0.9933,-0.9588,-0.9417,-0.9417,-0.9,-0.8592,-0.8356,-0.8523,-0.8523,-0.8331,-0.8327,-0.7623,-0.6394,-0.5037,-0.4415,-0.4288,-0.3675,-0.4204,-0.5117,0.0,0.0,0.0,0.0,0.0,0.0,0.0,0.0,0.0,0.0,0.0,-0.1789,-0.1445,-0.1572,-0.1598,-0.1294,-0.1379,-0.0975,-0.0097,-0.0,0.0,0.0,0.0,0.0,0.0,0.0,0.0,0.0,0.0,0.0,0.0,0.0,0.0,0.0,0.0,0.0,0.0,0.0,0.0,0.0,0.0,0.0,0.0,0.0,0.0,0.0,0.0,0.0,0.0,0.0,0.0,0.0,0.0,0.0,0.0,0.0,0.0,0.0,0.0,0.0,0.0,0.0,0.0,0.0,0.0,0.0,0.0,0.0,0.0,0.0,0.0,0.0,0.0,0.0,0.0,0.0,0.0,0.0,0.0,-1.0873,-1.0778,0.0,0.0,0.0,0.0,-1.1077,-1.1201,-1.1139,-1.083,-1.0745,-1.0422,-0.9828,-0.9953,-0.9729,-0.8972,-0.8985,-0.8477,-0.7619,-0.7619,-0.745,-0.7288,-0.7284,-0.7108,-0.6762,-0.6762,-0.6762,-0.6921,-0.726,-0.6973,-0.624,-0.4595,-0.3913,-0.3723,-0.3435,-0.3781,-0.4624,0.0,0.0,0.0,-0.2128,-0.2181,-0.2141,-0.1957,-0.1902,-0.1865,-0.1796,-0.1671,-0.1583,-0.1721,-0.1589,-0.1398,-0.1356,-0.0849,-0.0319,-0.0,0.0,0.0,0.0,0.0,0.0,0.0,0.0,0.0,0.0,0.0,0.0,0.0,0.0,0.0,0.0,0.0,0.0,0.0,0.0,0.0,0.0,0.0,0.0,0.0,0.0,0.0,0.0,0.0,0.0,0.0,0.0,0.0,0.0,0.0,0.0,0.0,0.0,0.0,0.0,0.0,0.0,0.0,0.0,0.0,0.0,0.0,0.0,0.0,0.0,0.0,0.0,0.0,0.0,0.0,0.0,0.0,0.0,0.0,0.0,0.0,-1.1599,-1.145,0.0,-1.1565,-1.1345,-1.1179,-1.1108,-1.094,-1.0605,-1.0249,-0.9682,-0.9206,-0.8831,-0.8991,-0.8736,-0.8056,-0.7211,-0.6693,-0.6329,-0.6329,-0.6332,-0.6152,-0.5032,-0.4299,-0.4299,-0.4093,-0.4097,-0.4118,-0.4263,-0.4889,-0.5804,-0.5084,-0.4572,-0.3905,-0.3216,-0.3411,-0.4325,0.0,0.0,0.0,-0.1623,-0.164,-0.1607,-0.1465,-0.1537,-0.1574,-0.1496,-0.1249,-0.1281,-0.1685,-0.1509,-0.1282,-0.1007,-0.034,0.0,0.0,0.0,0.0,0.0,0.0,0.0,0.0,0.0,0.0,0.0,0.0,0.0,0.0,0.0,0.0,0.0,0.0,0.0,0.0,0.0,0.0,0.0,0.0,0.0,0.0,0.0,0.0,0.0,0.0,0.0,0.0,0.0,0.0,0.0,0.0,0.0,0.0,0.0,0.0,0.0,0.0,0.0,0.0,0.0,0.0,0.0,0.0,0.0,0.0,0.0,0.0,0.0,0.0,0.0,0.0,0.0,0.0,0.0,0.0,0.0,-1.1592,-1.1992,-1.1735,-1.1735,-1.1721,-1.133,-1.0999,-1.0776,-1.0149,-0.9705,-0.9611,-0.876,-0.8002,-0.7345,-0.745,-0.6958,-0.6044,-0.5163,-0.4627,-0.4257,-0.4257,-0.4442,-0.4627,-0.3493,-0.2566,-0.1831,-0.1819,-0.2185,-0.2749,-0.2749,-0.344,-0.4617,-0.4232,-0.3709,-0.3194,-0.2468,-0.2661,-0.3234,0.0,0.0,-0.1293,-0.1293,-0.1328,-0.1358,-0.1242,-0.1276,-0.125,-0.1127,-0.0756,-0.0748,-0.1235,-0.1416,-0.1153,-0.0123,0.0,0.0,0.0,0.0,0.0,0.0,0.0,0.0,0.0,0.0,0.0,0.0,0.0,0.0,0.0,0.0,0.0,0.0,0.0,0.0,0.0,0.0,0.0,0.0,0.0,0.0,0.0,0.0,0.0,0.0,0.0,0.0,0.0,0.0,0.0,0.0,0.0,0.0,0.0,0.0,0.0,0.0,0.0,0.0,0.0,0.0,0.0,0.0,0.0,0.0,0.0,0.0,0.0,0.0,0.0,0.0,0.0,0.0,0.0,0.0,-1.1199,-1.1579,-1.1871,-1.185,-1.1746,-1.1541,-1.1016,-1.0503,-1.034,-1.0058,-0.8978,-0.8611,-0.8977,-0.8057,-0.7035,-0.5739,-0.5742,-0.4817,-0.2964,-0.2779,-0.2409,-0.1298,-0.1299,-0.1855,-0.2784,-0.2784,-0.1856,0.0,0.0,-0.0928,-0.2599,-0.2599,-0.2784,-0.2782,-0.1668,-0.1297,-0.1297,-0.1297,-0.1297,-0.1297,-0.0953,-0.0972,-0.0988,-0.0988,-0.1015,-0.1044,-0.1069,-0.1084,-0.11,-0.1107,-0.1056,-0.0872,-0.042,-0.0443,-0.035,-0.0,0.0,0.0,0.0,0.0,0.0,0.0,0.0,0.0,0.0,0.0,0.0,0.0,0.0,0.0,0.0,0.0,0.0,0.0,0.0,0.0,0.0,0.0,0.0,0.0,0.0,0.0,0.0,0.0,0.0,0.0,0.0,0.0,0.0,0.0,0.0,0.0,0.0,0.0,0.0,0.0,0.0,0.0,0.0,0.0,0.0,0.0,0.0,0.0,0.0,0.0,0.0,0.0,0.0,0.0,0.0,0.0,0.0,0.0,-1.0185,-1.1116,-1.1366,-1.1815,-1.1985,-1.182,-1.1535,-1.1149,-1.0904,-0.9923,-0.9403,-0.9369,-0.814,-0.715,-0.6791,-0.5201,-0.4116,-0.3742,-0.3769,-0.3595,-0.3026,-0.1514,-0.0568,-0.0379,-0.0381,-0.0574,-0.0765,-0.0771,-0.058,0.0,0.0,-0.0193,-0.0773,-0.0773,-0.077,-0.0763,-0.056,-0.037,-0.037,-0.037,-0.0372,-0.0375,-0.0687,-0.0706,-0.0661,-0.0661,-0.0679,-0.0696,-0.0773,-0.0909,-0.1065,-0.1063,-0.0914,-0.0604,-0.0108,0.0,0.0,0.0,0.0,0.0,0.0,0.0,0.0,0.0,0.0,0.0,0.0,0.0,0.0,0.0,0.0,0.0,0.0,0.0,0.0,0.0,0.0,0.0,0.0,0.0,0.0,0.0,0.0,0.0,0.0,0.0,0.0,0.0,0.0,0.0,0.0,0.0,0.0,0.0,0.0,0.0,0.0,0.0,0.0,0.0,0.0,0.0,0.0,0.0,0.0,0.0,0.0,0.0,0.0,0.0,0.0,0.0,0.0,0.0,0.0,0.0,-1.0258,-1.1053,-1.1296,-1.1529,-1.1655,-1.1248,-1.0651,-1.0073,-0.974,-0.8665,-0.7896,-0.7809,-0.6089,-0.5401,-0.5776,-0.395,-0.2647,-0.1703,-0.1712,-0.1717,-0.1717,-0.0575,0.0,0.0,0.0,0.0,0.0,0.0,0.0,0.0,0.0,0.0,0.0,0.0,0.0,0.0,0.0,0.0,0.0,0.0,0.0,0.0,-0.0356,-0.0365,-0.0372,-0.0372,-0.0382,-0.0325,-0.0325,-0.0712,-0.1015,-0.1002,-0.0376,0.0,0.0,0.0,0.0,0.0,0.0,0.0,0.0,0.0,0.0,0.0,0.0,0.0,0.0,0.0,0.0,0.0,0.0,0.0,0.0,0.0,0.0,0.0,0.0,0.0,0.0,0.0,0.0,0.0,0.0,0.0,0.0,0.0,0.0,0.0,0.0,0.0,0.0,0.0,0.0,0.0,0.0,0.0,0.0,0.0,0.0,0.0,0.0,0.0,0.0,0.0,0.0,0.0,0.0,0.0,0.0,0.0,0.0,0.0,0.0,0.0,0.0,0.0,-1.0378,-1.0898,-1.0735,-1.079,-1.0736,-1.0244,-0.9297,-0.8694,-0.8273,-0.7087,-0.6055,-0.5744,-0.393,-0.3577,-0.4899,0.0,0.0,0.0,0.0,0.0,0.0,0.0,0.0,0.0,0.0,0.0,0.0,0.0,0.0,0.0,0.0,0.0,0.0,0.0,0.0,0.0,0.0,0.0,0.0,0.0,0.0,0.0,-0.0062,-0.0063,-0.0064,-0.0064,-0.0066,-0.0067,-0.0067,-0.0146,-0.0239,-0.0251,-0.0094,0.0,0.0,0.0,0.0,0.0,0.0,0.0,0.0,0.0,0.0,0.0,0.0,0.0,0.0,0.0,0.0,0.0,0.0,0.0,0.0,0.0,0.0,0.0,0.0,0.0,0.0,0.0,0.0,0.0,0.0,0.0,0.0,0.0,0.0,0.0,0.0,0.0,0.0,0.0,0.0,0.0,0.0,0.0,0.0,0.0,0.0,0.0,0.0,0.0,0.0,0.0,0.0,0.0,0.0,0.0,0.0,0.0,0.0,0.0,0.0,0.0,0.0,-0.8769,-0.9082,-0.9185,-0.9048,-0.8939,-0.8947,-0.8905,-0.8566,-0.8109,-0.716,-0.5567,-0.5048,-0.5626,-0.4162,-0.2472,-0.1142,-0.0763,-0.0382,-0.0,0.0,0.0,0.0,0.0,0.0,0.0,0.0,0.0,0.0,0.0,0.0,0.0,0.0,0.0,0.0,0.0,0.0,0.0,0.0,0.0,0.0,0.0,0.0,0.0,0.0,0.0,0.0,0.0,0.0,0.0,0.0,0.0,0.0,0.0,0.0,0.0,0.0,0.0,0.0,0.0,0.0,0.0,0.0,0.0,0.0,0.0,0.0,0.0,0.0,0.0,0.0,0.0,0.0,0.0,0.0,0.0,0.0,0.0,0.0,0.0,0.0,0.0,0.0,0.0,0.0,0.0,0.0,0.0,0.0,0.0,0.0,0.0,0.0,0.0,0.0,0.0,0.0,0.0,0.0,0.0,0.0,0.0,0.0,0.0,0.0,0.0,0.0,0.0,0.0,0.0,0.0,0.0,0.0,-0.5239,-0.5217,0.0,-0.7721,-0.8154,-0.7999,-0.8172,-0.8533,-0.7685,-0.7327,-0.7649,-0.732,-0.6826,-0.6337,-0.4704,-0.3408,-0.2841,-0.2093,-0.1145,-0.0,0.0,0.0,0.0,0.0,0.0,0.0,0.0,0.0,0.0,0.0,0.0,0.0,0.0,0.0,0.0,0.0,0.0,0.0,0.0,0.0,0.0,0.0,0.0,0.0,0.0,0.0,0.0,0.0,0.0,0.0,0.0,0.0,0.0,0.0,0.0,0.0,0.0,0.0,0.0,0.0,0.0,0.0,0.0,0.0,0.0,0.0,0.0,0.0,0.0,0.0,0.0,0.0,0.0,0.0,0.0,0.0,0.0,0.0,0.0,0.0,0.0,0.0,0.0,0.0,0.0,0.0,0.0,0.0,0.0,0.0,0.0,0.0,0.0,0.0,0.0,0.0,0.0,0.0,0.0,0.0,0.0,0.0,0.0,0.0,0.0,0.0,0.0,0.0,0.0,0.0,0.0,0.0,-0.2881,-0.3289,-0.3204,-0.4261,-0.5202,-0.5098,-0.6041,-0.7045,-0.7424,-0.7177,-0.7094,-0.7959,-0.6879,-0.5957,-0.5954,-0.5802,-0.5644,-0.528,-0.3608,-0.1717,-0.0191,0.0,0.0,0.0,0.0,0.0,0.0,0.0,0.0,0.0,0.0,0.0,0.0,0.0,0.0,0.0,0.0,0.0,0.0,0.0,0.0,0.0,0.0,0.0,0.0,0.0,0.0,0.0,0.0,0.0,0.0,0.0,0.0,0.0,0.0,0.0,0.0,0.0,0.0,0.0,0.0,0.0,0.0,0.0,0.0,0.0,0.0,0.0,0.0,0.0,0.0,0.0,0.0,0.0,0.0,0.0,0.0,0.0,0.0,0.0,0.0,0.0,0.0,0.0,0.0,0.0,0.0,0.0,0.0,0.0,0.0,0.0,0.0,0.0,0.0,0.0,0.0,0.0,0.0,0.0,0.0,0.0,0.0,0.0,0.0,0.0,0.0,0.0,0.0,0.0,0.0,0.0,0.0,-0.0141,-0.0577,0.0,-0.2584,-0.2854,-0.3656,-0.3954,-0.4257,-0.465,-0.5268,-0.6082,-0.6706,-0.6276,-0.5987,-0.6187,-0.6052,-0.5517,-0.3613,-0.4723,-0.5096,-0.3616,-0.1526,-0.0191,-0.0,0.0,0.0,0.0,0.0,0.0,0.0,0.0,0.0,0.0,0.0,0.0,0.0,0.0,0.0,0.0,0.0,0.0,0.0,0.0,0.0,0.0,0.0,0.0,0.0,0.0,0.0,0.0,0.0,0.0,0.0,0.0,0.0,0.0,0.0,0.0,0.0,0.0,0.0,0.0,0.0,0.0,0.0,0.0,0.0,0.0,0.0,0.0,0.0,0.0,0.0,0.0,0.0,0.0,0.0,0.0,0.0,0.0,0.0,0.0,0.0,0.0,0.0,0.0,0.0,0.0,0.0,0.0,0.0,0.0,0.0,0.0,0.0,0.0,0.0,0.0,0.0,0.0,0.0,0.0,0.0,0.0,0.0,0.0,0.0,0.0,0.0,0.0,0.0,0.0,0.0,0.0,0.0,0.0,-0.0156,-0.0951,-0.1473,-0.1856,-0.2222,-0.2969,-0.3205,-0.2879,-0.3996,-0.496,-0.523,-0.4715,-0.4559,-0.5736,-0.4992,-0.4034,-0.3247,-0.2663,-0.2089,-0.1335,-0.0573,0.0,0.0,0.0,0.0,0.0,0.0,0.0,0.0,0.0,0.0,0.0,0.0,0.0,0.0,0.0,0.0,0.0,0.0,0.0,0.0,0.0,0.0,0.0,0.0,0.0,0.0,0.0,0.0,0.0,0.0,0.0,0.0,0.0,0.0,0.0,0.0,0.0,0.0,0.0,0.0,0.0,0.0,0.0,0.0,0.0,0.0,0.0,0.0,0.0,0.0,0.0,0.0,0.0,0.0,0.0,0.0,0.0,0.0,0.0,0.0,0.0,0.0,0.0,0.0,0.0,0.0,0.0,0.0,0.0,0.0,0.0,0.0,0.0,0.0,0.0,0.0,0.0,0.0,0.0,0.0,0.0,0.0,0.0,0.0,0.0,0.0,0.0,0.0,0.0,0.0,0.0,0.0,0.0,0.0,0.0,0.0,0.0,-0.0517,-0.0881,-0.0895,-0.1633,-0.1836,-0.1113,-0.2235,-0.338,-0.4013,-0.3455,-0.3278,-0.4273,-0.3684,-0.2896,-0.2302,-0.0958,0.0,0.0,0.0,0.0,0.0,0.0,0.0,0.0,0.0,0.0,0.0,0.0,0.0,0.0,0.0,0.0,0.0,0.0,0.0,0.0,0.0,0.0,0.0,0.0,0.0,0.0,0.0,0.0,0.0,0.0,0.0,0.0,0.0,0.0,0.0,0.0,0.0,0.0,0.0,0.0,0.0,0.0,0.0,0.0,0.0,0.0,0.0,0.0,0.0,0.0,0.0,0.0,0.0,0.0,0.0,0.0,0.0,0.0,0.0,0.0,0.0,0.0,0.0,0.0,0.0,0.0,0.0,0.0,0.0,0.0,0.0,0.0,0.0,0.0,0.0,0.0,0.0,0.0,0.0,0.0,0.0,0.0,0.0,0.0,0.0,0.0,0.0,0.0,0.0,0.0,0.0,0.0,0.0,0.0,0.0,0.0,0.0,0.0,0.0,0.0,-0.0,-0.0,-0.0,-0.0,-0.0,-0.0,-0.0,-0.0765,-0.2897,-0.312,-0.2355,-0.0393,-0.1947,-0.2322,-0.0387,-0.0,0.0,0.0,0.0,0.0,0.0,0.0,0.0,0.0,0.0,0.0,0.0,0.0,0.0,0.0,0.0,0.0,0.0,0.0,0.0,0.0,0.0,0.0,0.0,0.0,0.0,0.0,0.0,0.0,0.0,0.0,0.0,0.0,0.0,0.0,0.0,0.0,0.0,0.0,0.0,0.0,0.0,0.0,0.0,0.0,0.0,0.0,0.0,0.0,0.0,0.0,0.0,0.0,0.0,0.0,0.0,0.0,0.0,0.0,0.0,0.0,0.0,0.0,0.0,0.0,0.0,0.0,0.0,0.0,0.0,0.0,0.0,0.0,0.0,0.0,0.0,0.0,0.0,0.0,0.0,0.0,0.0,0.0,0.0,0.0,0.0,0.0,0.0,0.0,0.0,0.0,0.0,0.0,0.0,0.0,0.0,0.0,0.0,0.0,0.0,0.0,0.0,0.0,0.0,0.0,0.0,0.0,0.0,-0.0192,-0.0974,-0.098,-0.0787,-0.0,-0.0593,-0.0787,-0.0,0.0,0.0,0.0,0.0,0.0,0.0,0.0,0.0,0.0,0.0,0.0,0.0,0.0,0.0,0.0,0.0,0.0,0.0,0.0,0.0,0.0,0.0,0.0,0.0,0.0,0.0,0.0,0.0,0.0,0.0,0.0,0.0,0.0,0.0,0.0,0.0,0.0,0.0,0.0,0.0,0.0,0.0,0.0,0.0,0.0,0.0,0.0,0.0,0.0,0.0,0.0,0.0,0.0,0.0,0.0,0.0,0.0,0.0,0.0,0.0,0.0,0.0,0.0,0.0,0.0,0.0,0.0,0.0,0.0,0.0,0.0,0.0,0.0,0.0,0.0,0.0,0.0,0.0,0.0,0.0,0.0,0.0,0.0,0.0,0.0,0.0,0.0,0.0,0.0,0.0,0.0,0.0,0.0,0.0,0.0,0.0,0.0,0.0,0.0,0.0,0.0,0.0,0.0,0.0,0.0,0.0,0.0,0.0,0.0,0.0,0.0,0.0,0.0,0.0,0.0,0.0,0.0,0.0,0.0,0.0,0.0,0.0,0.0,0.0,0.0,0.0,0.0,0.0,0.0,0.0,0.0,0.0,0.0,0.0,0.0,0.0,0.0,0.0,0.0,0.0,0.0,0.0,0.0,0.0,0.0,0.0,0.0,0.0,0.0,0.0,0.0,0.0,0.0,0.0,0.0,0.0,0.0,0.0,0.0,0.0,0.0,0.0,0.0,0.0,0.0,0.0,0.0,0.0,0.0,0.0,0.0,0.0,0.0,0.0,0.0,0.0,0.0,0.0,0.0,0.0,0.0,0.0,0.0,0.0,0.0,0.0,0.0,0.0,0.0,0.0,0.0,0.0,0.0,0.0,0.0,0.0,0.0,0.0,0.0,0.0,0.0,0.0,0.0,0.0,0.0,0.0,0.0,0.0,0.0,0.0,0.0,0.0,0.0,0.0,0.0,0.0,0.0,0.0,0.0,0.0,0.0,0.0,0.0,0.0,0.0,0.0,0.0,0.0,0.0,0.0,0.0,0.0,0.0,0.0,0.0,0.0,0.0,0.0,0.0,0.0,0.0,0.0,0.0,0.0,0.0,0.0,0.0,0.0,0.0,0.0,0.0,0.0,0.0,0.0,0.0,0.0,0.0,0.0,0.0,0.0,0.0,0.0,0.0,0.0,0.0,0.0,0.0,0.0,0.0,0.0,0.0,0.0,0.0,0.0,0.0,0.0,0.0,0.0,0.0,0.0,0.0,0.0,0.0,0.0,0.0,0.0,0.0,0.0,0.0,0.0,0.0,0.0,0.0,0.0,0.0,0.0,0.0,0.0,0.0,0.0,0.0,0.0,0.0,0.0,0.0,0.0,0.0,0.0,0.0,0.0,0.0,0.0,0.0,0.0,0.0,0.0,0.0,0.0,0.0,0.0,0.0,0.0,0.0,0.0,0.0,0.0,0.0,0.0,0.0,0.0,0.0,0.0,0.0,0.0,0.0,0.0,0.0,0.0,0.0,0.0,0.0,0.0,0.0,0.0,0.0,0.0,0.0,0.0,0.0,0.0,0.0,0.0,0.0,0.0,0.0,0.0,0.0,0.0,0.0,0.0,0.0,0.0,0.0,0.0,0.0,0.0,0.0,0.0,0.0,0.0,0.0,0.0,0.0,0.0,0.0,0.0,0.0,0.0,0.0,0.0,0.0,0.0,0.0,0.0,0.0,0.0,0.0,0.0,0.0,0.0,0.0,0.0,0.0,0.0,0.0,0.0,0.0,0.0,0.0,0.0,0.0,0.0,0.0,0.0,0.0,0.0,0.0,0.0,0.0,0.0,0.0,0.0,0.0,0.0,0.0,0.0,0.0,0.0,0.0,0.0,0.0,0.0,0.0,0.0,0.0,0.0,0.0,0.0,0.0,0.0,0.0,0.0,0.0,0.0,0.0,0.0,0.0,0.0,0.0,0.0,0.0,0.0,0.0,0.0,0.0,0.0,0.0,0.0,0.0,0.0,0.0,0.0,0.0,0.0,0.0,0.0,0.0,0.0,0.0,0.0,0.0,0.0,0.0,0.0,0.0,0.0,0.0,0.0,0.0,0.0,0.0,0.0,0.0,0.0,0.0,0.0,0.0,0.0,0.0,0.0,0.0,0.0,0.0,0.0,0.0,0.0,0.0,0.0,0.0,0.0,0.0,0.0,0.0,0.0,0.0,0.0,0.0,0.0,0.0,0.0,0.0,0.0,0.0,0.0,0.0,0.0,0.0,0.0,0.0,0.0,0.0,0.0,0.0,0.0,0.0,0.0,0.0,0.0,0.0,0.0,0.0,0.0,0.0,0.0,0.0,0.0,0.0,0.0,0.0,0.0,0.0,0.0,0.0,0.0,0.0,0.0,0.0,0.0,0.0,0.0,0.0,0.0,0.0,0.0,0.0,0.0,0.0,0.0,0.0,0.0,0.0,0.0,0.0,0.0,0.0,0.0,0.0,0.0,0.0,0.0,0.0,0.0,0.0,0.0,0.0,0.0,0.0,0.0,0.0,0.0,0.0,0.0,0.0,0.0,0.0,0.0,0.0,0.0,0.0,0.0,0.0,0.0,0.0,0.0,0.0,0.0,0.0,0.0,0.0,0.0,0.0,0.0,0.0,0.0,0.0,0.0,0.0,0.0,0.0,0.0,0.0,0.0,0.0,0.0,0.0,0.0,0.0,0.0,0.0,0.0,0.0,0.0,0.0,0.0,0.0,0.0,0.0,0.0,0.0,0.0,0.0,0.0,0.0,0.0,0.0,0.0,0.0,0.0,0.0,0.0,0.0,0.0,0.0,0.0,0.0,0.0,0.0,0.0,0.0,0.0,0.0,0.0,0.0,0.0,0.0,0.0,0.0,0.0,0.0,0.0,0.0,0.0,0.0,0.0,0.0,0.0,0.0,0.0,0.0,0.0,0.0,0.0,0.0,0.0,0.0,0.0,0.0,0.0,0.0,0.0,0.0,0.0,0.0,0.0,0.0,0.0,0.0,0.0,0.0,0.0,0.0,0.0,0.0,0.0,0.0,0.0,0.0,0.0,0.0,0.0,0.0,0.0,0.0,0.0,0.0,0.0,0.0,0.0,0.0,0.0,0.0,0.0,0.0,0.0,0.0,0.0,0.0,0.0,0.0,0.0,0.0,0.0,0.0,0.0,0.0,0.0,0.0,0.0,0.0,0.0,0.0,0.0,0.0,0.0,0.0,0.0,0.0,0.0,0.0,0.0,0.0,0.0,0.0,0.0,0.0,0.0,0.0,0.0,0.0,0.0,0.0,0.0,0.0,0.0,0.0,0.0,0.0,0.0,0.0,0.0,0.0,0.0,0.0,0.0,0.0,0.0,0.0,0.0,0.0,0.0,0.0,0.0,0.0,0.0,0.0,0.0,0.0,0.0,0.0,0.0,0.0,0.0,0.0,0.0,0.0,0.0,0.0,0.0,0.0,0.0,0.0,0.0,0.0,0.0,0.0,0.0,0.0,0.0,0.0,0.0,0.0,0.0,0.0,0.0,0.0,0.0,0.0,0.0,0.0,0.0,0.0,0.0,0.0,0.0,0.0,0.0,0.0,0.0,0.0,0.0,0.0,0.0,0.0,0.0,0.0,0.0,0.0,0.0,0.0,0.0,0.0,0.0,0.0,0.0,0.0,0.0,0.0,0.0,0.0,0.0,0.0,0.0,0.0,0.0,0.0,0.0,0.0,0.0,0.0,0.0,0.0,0.0,0.0,0.0,0.0,0.0,0.0,0.0,0.0,0.0,0.0,0.0,0.0,0.0,0.0,0.0,0.0,0.0,0.0,0.0,0.0,0.0,0.0,0.0,0.0,0.0,0.0,0.0,0.0,0.0,0.0,0.0,0.0,0.0,0.0,0.0,0.0,0.0,0.0,0.0,0.0,0.0,0.0,0.0,0.0,0.0,0.0,0.0,0.0,0.0,0.0,0.0,0.0,0.0,0.0,0.0,0.0,0.0,0.0,0.0,0.0,0.0,0.0,0.0,0.0,0.0,0.0,0.0,0.0,0.0,0.0,0.0,0.0,0.0,0.0,0.0,0.0,0.0,0.0,0.0,0.0,0.0,0.0,0.0,0.0,0.0,0.0,0.0,0.0,0.0,0.0,0.0,0.0,0.0,0.0,0.0,0.0,0.0,0.0,0.0,0.0,0.0,0.0,0.0,0.0,0.0,0.0,0.0,0.0,0.0,0.0,0.0,0.0,0.0,0.0,0.0,0.0,0.0,0.0,0.0,0.0,0.0,0.0,0.0,0.0,0.0,0.0,0.0,0.0,0.0,0.0,0.0,0.0,0.0,0.0,0.0,0.0,0.0,0.0,0.0,0.0,0.0,0.0,0.0,0.0,0.0,0.0,0.0,0.0,0.0,0.0,0.0,0.0,0.0,0.0,0.0,0.0,0.0,0.0,0.0,0.0,0.0,0.0,0.0,0.0,0.0,0.0,0.0,0.0,0.0,0.0,0.0,0.0,0.0,0.0,0.0,0.0,0.0,0.0,0.0,0.0,0.0,0.0,0.0,0.0,0.0,0.0,0.0,0.0,0.0,0.0,0.0,0.0,0.0,0.0,0.0,0.0,0.0,0.0,0.0,0.0,0.0,0.0,0.0,0.0,0.0,0.0,0.0,0.0,0.0,0.0,0.0,0.0,0.0,0.0,0.0,0.0,0.0,0.0,0.0,0.0,0.0,0.0,0.0,0.0,0.0,0.0,0.0,0.0,0.0,0.0,0.0,0.0,0.0,0.0,0.0,0.0,0.0,0.0,0.0,0.0,0.0,0.0,0.0,0.0,0.0,0.0,0.0,0.0,0.0,0.0,0.0,0.0,0.0,0.0,0.0,0.0,0.0,0.0,0.0,0.0,0.0,0.0,0.0,0.0,0.0,0.0,0.0,0.0,0.0,0.0,0.0,0.0,0.0,0.0,0.0,0.0,0.0,0.0,0.0,0.0,0.0,0.0,0.0,0.0,0.0,0.0,0.0,0.0,0.0,0.0,0.0,0.0,0.0,0.0,0.0,0.0,0.0,0.0,0.0,0.0,0.0,0.0,0.0,0.0,0.0,0.0,0.0,0.0,0.0,0.0,0.0,0.0,0.0,0.0,0.0,0.0,0.0,0.0,0.0,0.0,0.0,0.0,0.0,0.0,0.0,0.0,0.0,0.0,0.0,0.0,0.0,0.0,0.0,0.0,0.0,0.0,0.0,0.0,0.0,0.0,0.0,0.0,0.0,0.0,0.0,0.0,0.0,0.0,0.0,0.0,0.0,0.0,0.0,0.0,0.0,0.0,0.0,0.0,0.0,0.0,0.0,0.0,0.0,0.0,0.0,0.0,0.0,0.0,0.0,0.0,0.0,0.0,0.0,0.0,0.0,0.0,0.0,0.0,0.0,0.0,0.0,0.0,0.0,0.0,0.0,0.0,0.0,0.0,0.0,0.0,0.0,0.0,0.0,0.0,0.0,0.0,0.0,0.0,0.0,0.0,0.0,0.0,0.0,0.0,0.0,0.0,0.0,0.0,0.0,0.0,0.0,0.0,0.0,0.0,0.0,0.0,0.0,0.0,0.0,0.0,0.0,0.0,0.0,0.0,0.0,0.0,0.0,0.0,0.0,0.0,0.0,0.0,0.0,0.0,0.0,0.0,0.0,0.0,0.0,0.0,0.0,0.0,0.0,0.0,0.0,0.0,0.0,0.0,0.0,0.0,0.0,0.0,0.0,0.0,0.0,0.0,0.0,0.0,0.0,0.0,0.0,0.0,0.0,0.0,0.0,0.0,0.0,0.0,0.0,0.0,0.0,0.0,0.0,0.0,0.0,0.0,0.0,0.0,0.0,0.0,0.0,0.0,0.0,0.0,0.0,0.0,0.0,0.0,0.0,0.0,0.0,0.0,0.0,0.0,0.0,0.0,0.0,0.0,0.0,0.0,0.0,0.0,0.0,0.0,0.0,0.0,0.0,0.0,0.0,0.0,0.0,0.0,0.0,0.0,0.0,0.0,0.0,0.0,0.0,0.0,0.0,0.0,0.0,0.0,0.0,0.0,0.0,0.0,0.0,0.0,0.0,0.0,0.0,0.0,0.0,0.0,0.0,0.0,0.0,0.0,0.0,0.0,0.0,0.0,0.0,0.0,0.0,0.0,0.0,0.0,0.0,0.0,0.0,0.0,0.0,0.0,0.0,0.0,0.0,0.0,0.0,0.0,0.0,0.0,0.0,0.0,0.0,0.0,0.0,0.0,0.0,0.0,0.0,0.0,0.0,0.0,0.0,0.0,0.0,0.0,0.0,0.0,0.0,0.0,0.0,0.0,0.0,0.0,0.0,0.0,0.0,0.0,0.0,0.0,0.0,0.0,0.0,0.0,0.0,0.0,0.0,0.0,0.0,0.0,0.0,0.0,0.0,0.0,0.0,0.0,0.0,0.0,0.0,0.0,0.0,0.0,0.0,0.0,0.0,0.0,0.0,0.0,0.0,0.0,0.0,0.0,0.0,0.0,0.0,0.0,0.0,0.0,0.0,0.0,0.0,0.0,0.0,0.0,0.0,0.0,0.0,0.0,0.0,0.0,0.0,0.0,0.0,0.0,0.0,0.0,0.0,0.0,0.0,0.0,0.0,0.0,0.0,0.0,0.0,0.0,0.0,0.0,0.0,0.0,0.0,0.0,0.0,0.0,0.0,0.0,0.0,0.0,0.0,0.0,0.0,0.0,0.0,0.0,0.0,0.0,0.0,0.0,0.0,0.0,0.0,0.0,0.0,0.0,0.0,0.0,0.0,0.0,0.0,0.0,0.0,0.0,0.0,0.0,0.0,0.0,0.0,0.0,0.0,0.0,0.0,0.0,0.0,0.0,0.0,0.0,0.0,0.0,0.0,0.0,0.0,0.0,0.0,0.0,0.0,0.0,0.0,0.0,0.0,0.0,0.0,0.0,0.0,0.0,0.0,0.0,0.0,0.0,0.0,0.0,0.0,0.0,0.0,0.0,0.0,0.0,0.0,0.0,0.0,0.0,0.0,0.0,0.0,0.0,0.0,0.0,0.0,0.0,0.0,0.0,0.0,0.0,0.0,0.0,0.0,0.0,0.0,0.0,0.0,0.0,0.0,0.0,0.0,0.0,0.0,0.0,0.0,0.0,0.0,0.0,0.0,0.0,0.0,0.0,0.0,0.0,0.0,0.0,0.0,0.0,0.0,0.0,0.0,0.0,0.0,0.0,0.0,0.0,0.0,0.0,0.0,0.0,0.0,0.0,0.0,0.0,0.0,0.0,0.0,0.0,0.0,0.0,0.0,0.0,0.0,0.0,0.0,0.0,0.0,0.0,0.0,0.0,0.0,0.0,0.0,0.0,0.0,0.0,0.0,0.0,0.0,0.0,0.0,0.0,0.0,0.0,0.0,0.0,0.0,0.0,0.0,0.0,0.0,0.0,0.0,0.0,0.0,0.0,0.0,0.0,0.0,0.0,0.0,0.0,0.0,0.0,0.0,0.0,0.0,0.0,0.0,0.0,0.0,0.0,0.0,0.0,0.0,0.0,0.0,0.0,0.0,0.0,0.0,0.0,0.0,0.0,0.0,0.0,0.0,0.0,0.0,0.0,0.0,0.0,0.0,0.0,0.0,0.0,0.0,0.0,0.0,0.0,0.0,0.0,0.0,0.0,0.0,0.0,0.0,0.0,0.0,0.0,0.0,0.0,0.0,0.0,0.0,0.0,0.0,0.0,0.0,0.0,0.0,0.0,0.0,0.0,0.0,0.0,0.0,0.0,0.0,0.0,0.0,0.0,0.0,0.0,0.0,0.0,0.0,0.0,0.0,0.0,0.0,0.0,0.0,0.0,0.0,0.0,0.0,0.0,0.0,0.0,0.0,0.0,0.0,0.0,0.0,0.0,0.0,0.0,0.0,0.0,0.0,0.0,0.0,0.0,0.0,0.0,0.0,0.0,0.0,0.0,0.0,0.0,0.0,0.0,0.0,0.0,0.0,0.0,0.0,0.0,0.0,0.0,0.0,0.0,0.0,0.0,0.0,0.0,0.0,0.0,0.0,0.0,0.0,0.0,0.0,0.0,0.0,0.0,0.0,0.0,0.0,0.0,0.0,0.0,0.0,0.0,0.0,0.0,0.0,0.0,0.0,0.0,0.0,0.0,0.0,0.0,0.0,0.0,0.0,0.0,0.0,0.0,0.0,0.0,0.0,0.0,0.0,0.0,0.0,0.0,0.0,0.0,0.0,0.0,0.0,0.0,0.0,0.0,0.0,0.0,0.0,0.0,0.0,0.0,0.0,0.0,0.0,0.0,0.0,0.0,0.0,0.0,0.0,0.0,0.0,0.0,0.0,0.0,0.0,0.0,0.0,0.0,0.0,0.0,0.0,0.0,0.0,0.0,0.0,0.0,0.0,0.0,0.0,0.0,0.0,0.0,0.0,0.0,0.0,0.0,0.0,0.0,0.0,0.0,0.0,0.0,0.0,0.0,0.0,0.0,0.0,0.0,0.0,0.0,0.0,0.0,0.0,0.0,0.0,0.0,0.0,0.0,0.0,0.0,0.0,0.0,0.0,0.0,0.0,0.0,0.0,0.0,0.0,0.0,0.0,0.0,0.0,0.0,0.0,0.0,0.0,0.0,0.0,0.0,0.0,0.0,0.0,0.0,0.0,0.0,0.0,0.0,0.0,0.0,0.0,0.0,0.0,0.0,0.0,0.0,0.0,0.0,0.0,0.0,0.0,0.0,0.0,0.0,0.0,0.0,0.0,0.0,0.0,0.0,0.0,0.0,0.0,0.0,0.0,0.0,0.0,0.0,0.0,0.0,0.0,0.0,0.0,0.0,0.0,0.0,0.0,0.0,0.0,0.0,0.0,0.0,0.0,0.0,0.0,0.0,0.0,0.0,0.0,0.0,0.0,0.0,0.0,0.0,0.0,0.0,0.0,0.0,0.0,0.0,0.0,0.0,0.0,0.0,0.0,0.0,0.0,0.0,0.0,0.0,0.0,0.0,0.0,0.0,0.0,0.0,0.0,0.0,0.0,0.0,0.0,0.0,0.0,0.0,0.0,0.0,0.0,0.0,0.0,0.0,0.0,0.0,0.0,0.0,0.0,0.0,0.0,0.0,0.0,0.0,0.0,0.0,0.0,0.0,0.0,0.0,0.0,0.0,0.0,0.0,0.0,0.0,0.0,0.0,0.0,0.0,0.0,0.0,0.0,0.0,0.0,0.0,0.0,0.0,0.0,0.0,0.0,0.0,0.0,0.0,0.0,0.0,0.0,0.0,0.0,0.0,0.0,0.0,0.0,0.0,0.0,0.0,0.0,0.0,0.0,0.0,0.0,0.0,0.0,0.0,0.0,0.0,0.0,0.0,0.0,0.0,0.0,0.0,0.0,0.0,0.0,0.0,0.0,0.0,0.0,0.0,0.0,0.0,0.0,0.0,0.0,0.0,0.0,0.0,0.0,0.0,0.0,0.0,0.0,0.0,0.0,0.0,0.0,0.0,0.0,0.0,0.0,0.0,0.0,0.0,0.0,0.0,0.0,0.0,0.0,0.0,0.0,0.0,0.0,0.0,0.0,0.0,0.0,0.0,0.0,0.0,0.0,0.0,0.0,0.0,0.0,0.0,0.0,0.0,0.0,0.0,0.0,0.0,0.0,0.0,0.0,0.0,0.0,0.0,0.0,0.0,0.0,0.0,0.0,0.0,0.0,0.0,0.0,0.0,0.0,0.0,0.0,0.0,0.0,0.0,0.0,0.0,0.0,0.0,0.0,0.0,0.0,0.0,0.0,0.0,0.0,0.0,0.0,0.0,0.0,0.0,0.0,0.0,0.0,0.0,0.0,0.0,0.0,0.0,0.0,0.0,0.0,0.0,0.0,0.0,0.0,0.0,0.0,0.0,0.0,0.0,0.0,0.0,0.0,0.0,0.0,0.0,0.0,0.0,0.0,0.0,0.0,0.0,0.0,0.0,0.0,0.0,0.0,0.0,0.0,0.0,0.0,0.0,0.0,0.0,0.0,0.0,0.0,0.0,0.0,0.0,0.0,0.0,0.0,0.0,0.0,0.0,0.0,0.0,0.0,0.0,0.0,0.0,0.0,0.0,0.0,0.0,0.0,0.0,0.0,0.0,0.0,0.0,0.0,0.0,0.0,0.0,0.0,0.0,0.0,0.0,0.0,0.0,0.0,0.0,0.0,0.0,0.0,0.0,0.0,0.0,0.0,0.0,0.0,0.0,0.0,0.0,0.0,0.0,0.0,0.0,0.0,0.0,0.0,0.0,0.0,0.0,0.0,0.0,0.0,0.0,0.0,0.0,0.0,0.0,0.0,0.0,0.0,0.0,0.0,0.0,0.0,0.0,0.0,0.0,0.0,0.0,0.0,0.0,0.0,0.0,0.0,0.0,0.0,0.0,0.0,0.0,0.0,0.0,0.0,0.0,0.0,0.0,0.0,0.0,0.0,0.0,0.0,0.0,0.0,0.0,0.0,0.0,0.0,0.0,0.0,0.0,0.0,0.0,0.0,0.0,0.0,0.0,0.0,0.0,0.0,0.0,0.0,0.0,0.0,0.0,0.0,0.0,0.0,0.0,0.0,0.0,0.0,0.0,0.0,0.0,0.0,0.0,0.0,0.0,0.0,0.0,0.0,0.0,0.0,0.0,0.0,0.0,0.0,0.0,0.0,0.0,0.0,0.0,0.0,0.0,0.0,0.0,0.0,0.0,0.0,0.0,0.0,0.0,0.0,0.0,0.0,0.0,0.0,0.0,0.0,0.0,0.0,0.0,0.0,0.0,0.0,0.0,0.0,0.0,0.0,0.0,0.0,0.0,0.0,0.0,0.0,0.0,0.0,0.0,0.0,0.0,0.0,0.0,0.0,0.0,0.0,0.0,0.0,0.0,0.0,0.0,0.0,0.0,0.0,0.0,0.0,0.0,0.0,0.0,0.0,0.0,0.0,0.0,0.0,0.0,0.0,0.0,0.0,0.0,0.0,0.0,0.0,0.0,0.0,0.0,0.0,0.0,0.0,0.0,0.0,0.0,0.0,0.0,0.0,0.0,0.0,0.0,0.0,0.0,0.0,0.0,0.0,0.0,0.0,0.0,0.0,0.0,0.0,0.0,0.0,0.0,0.0,0.0,0.0,0.0,0.0,0.0,0.0,0.0,0.0,0.0,0.0,0.0,0.0,0.0,0.0,0.0,0.0,0.0,0.0,0.0,0.0,0.0,0.0,0.0,0.0,0.0,0.0,0.0,0.0,0.0,0.0,0.0,0.0,0.0,0.0,0.0,0.0,0.0,0.0,0.0,0.0,0.0,0.0,0.0,0.0,0.0,0.0,0.0,0.0,0.0,0.0,0.0,0.0,0.0,0.0,0.0,0.0,0.0,0.0,0.0,0.0,0.0,0.0,0.0,0.0,0.0,0.0,0.0,0.0,0.0,0.0,0.0,0.0,0.0,0.0,0.0,0.0,0.0,0.0,0.0,0.0,0.0,0.0,0.0,0.0,0.0,0.0,0.0,0.0,0.0,0.0,0.0,0.0,0.0,0.0,0.0,0.0,0.0,0.0,0.0,0.0,0.0,0.0,0.0,0.0,0.0,0.0,0.0,0.0,0.0,0.0,0.0,0.0,0.0,0.0,0.0,0.0,0.0,0.0,0.0,0.0,0.0,0.0,0.0,0.0,0.0,0.0,0.0,0.0,0.0,0.0,0.0,0.0,0.0,0.0,0.0,0.0,0.0,0.0,0.0,0.0,0.0,0.0,0.0,0.0,0.0,0.0,0.0,0.0,0.0,0.0,0.0,0.0,0.0,0.0,0.0,0.0,0.0,0.0,0.0,0.0,0.0,0.0,0.0,0.0,0.0,0.0,0.0,0.0,0.0,0.0,0.0,0.0,0.0,0.0,0.0,0.0,0.0,0.0,0.0,0.0,0.0,0.0,0.0,0.0,0.0,0.0,0.0,0.0,0.0,0.0,0.0,0.0,0.0,0.0,0.0,0.0,0.0,0.0,0.0,0.0,0.0,0.0,0.0,0.0,0.0,0.0,0.0,0.0,0.0,0.0,0.0,0.0,0.0,0.0,0.0,0.0,0.0,0.0,0.0,0.0,0.0,0.0,0.0,0.0,0.0,0.0,0.0,0.0,0.0254,0.0631,0.0126,0.0,0.0,0.0,0.0,0.0,0.0,0.0,0.0,0.0,0.0,0.0,0.0,0.0,0.0,0.0,0.0,0.0,0.0,0.0,0.0,0.0,0.0,0.0,0.0,0.0,0.0,0.0,0.0,0.0,0.0,0.0,0.0,0.0,0.0,0.0,0.0,0.0,0.0,0.0,0.0,0.0,0.0,0.0,0.0,0.0,0.0,0.0,0.0,0.0,0.0,0.0,0.0,0.0,0.0,0.0,0.0,0.0,0.0,0.0,0.0,0.0,0.0,0.0,0.0,0.0,0.0,0.0,0.0,0.0,0.0,0.0,0.0,0.0,0.0,0.0,0.0,0.0,0.0,0.0,0.0,0.0,0.0,0.0,0.0,0.0,0.0,0.0,0.0,0.0,0.0,0.0,0.0,0.0,0.0,0.0,0.0,0.0,0.0,0.0,0.0,0.0,0.0,0.0,0.0,0.0,0.0,0.0,0.0,0.0,0.0,0.0,0.0,0.0,0.0769,0.1899,0.0514,0.0,0.0,0.0,0.0,0.0,0.0,0.0,0.0,0.0,0.0,0.0,0.0,0.0,0.0,0.0,0.0,0.0,0.0,0.0,0.0,0.0,0.0,0.0,0.0,0.0,0.0,0.0,0.0,0.0,0.0,0.0,0.0,0.0,0.0,0.0,0.0,0.0,0.0,0.0,0.0,0.0,0.0,0.0,0.0,0.0,0.0,0.0,0.0,0.0,0.0,0.0,0.0,0.0,0.0,0.0,0.0,0.0,0.0,0.0,0.0,0.0,0.0,0.0,0.0,0.0,0.0,0.0,0.0,0.0,0.0,0.0,0.0,0.0,0.0,0.0,0.0,0.0,0.0,0.0,0.0,0.0,0.0,0.0,0.0,0.0,0.0,0.0,0.0,0.0,0.0,0.0,0.0,0.0,0.0,0.0,0.0,0.0,0.0,0.0,0.0,0.0,0.0,0.0,0.0,0.0,0.0,0.0,0.0,0.0,0.0,0.0,0.1484,0.1603,0.1451,0.1431,0.1423,0.0901,0.0,0.0,0.0,0.0,0.0,0.0,0.0,0.0,0.0,0.0,0.0,0.0,0.0,0.0,0.0,0.0,0.0,0.0,0.0,0.0,0.0,0.0,0.0,0.0,0.0,0.0,0.0,0.0,0.0,0.0,0.0,0.0,0.0,0.0,0.0,0.0,0.0,0.0,0.0,0.0,0.0,0.0,0.0,0.0,0.0,0.0,0.0,0.0,0.0,0.0,0.0,0.0,0.0,0.0,0.0,0.0,0.0,0.0,0.0,0.0,0.0,0.0,0.0,0.0,0.0,0.0,0.0,0.0,0.0,0.0,0.0,0.0,0.0,0.0,0.0,0.0,0.0,0.0,0.0,0.0,0.0,0.0,0.0,0.0,0.0,0.0,0.0,0.0,0.0,0.0,0.0,0.0,0.0,0.0,0.0,0.0,0.0,0.0,0.0,0.0,0.0,0.0,0.0,0.0,0.0,0.0,0.0,0.0,0.0,0.0842,0.2217,0.2185,0.2021,0.1861,0.2386,0.1986,0.1059,0.0,0.0,0.0,0.0,0.0,0.0,0.0,0.0,0.0,0.0,0.0,0.0,0.0,0.0,0.0,0.0,0.0,0.0,0.0,0.0,0.0,0.0,0.0,0.0,0.0,0.0,0.0,0.0,0.0,0.0,0.0,0.0,0.0,0.0,0.0,0.0,0.0,0.0,0.0,0.0,0.0,0.0,0.0,0.0,0.0,0.0,0.0,0.0,0.0,0.0,0.0,0.0,0.0,0.0,0.0,0.0,0.0,0.0,0.0,0.0,0.0,0.0,0.0,0.0,0.0,0.0,0.0,0.0,0.0,0.0,0.0,0.0,0.0,0.0,0.0,0.0,0.0,0.0,0.0,0.0,0.0,0.0,0.0,0.0,0.0,0.0,0.0,0.0,0.0,0.0,0.0,0.0,0.0,0.0,0.0,0.0,0.0,0.0,0.0,0.0,0.0,0.0,0.0,0.0,0.0,0.0,0.0,0.0,0.0853,0.2104,0.2215,0.246,0.2837,0.3149,0.3164,0.2889,0.179,0.0,0.0,0.0,0.0,0.0,0.0,0.0,0.0,0.0,0.0,0.0,0.0,0.0,0.0,0.0,0.0,0.0,0.0,0.0,0.0,0.0,0.0,0.0,0.0,0.0,0.0,0.0,0.0,0.0,0.0,0.0,0.0,0.0,0.0,0.0,0.0,0.0,0.0,0.0,0.0,0.0,0.0,0.0,0.0,0.0,0.0,0.0,0.0,0.0,0.0,0.0,0.0,0.0,0.0,0.0,0.0,0.0,0.0,0.0,0.0,0.0,0.0,0.0,0.0,0.0,0.0,0.0,0.0,0.0,0.0,0.0,0.0,0.0,0.0,0.0,0.0,0.0,0.0,0.0,0.0,0.0,0.0,0.0,0.0,0.0,0.0,0.0,0.0,0.0,0.0,0.0,0.0,0.0,0.0,0.0,0.0,0.0,0.0,0.0,0.0,0.0,0.0,0.0,0.0,0.0,0.0,0.0,0.1578,0.1403,0.1959,0.2218,0.2328,0.2747,0.3182,0.363,0.3771,0.3911,0.0,0.0,0.0,0.0,0.0,0.0,0.0,0.0161,0.0,0.0,0.0,0.0,0.0,0.0,0.0,0.0,0.0,0.0,0.0,0.0,0.0,0.0,0.0,0.0,0.0,0.0,0.0,0.0,0.0,0.0,0.0,0.0,0.0,0.0,0.0,0.0,0.0,0.0,0.0,0.0,0.0,0.0,0.0,0.0,0.0,0.0,0.0,0.0,0.0,0.0,0.0,0.0,0.0,0.0,0.0,0.0,0.0,0.0,0.0,0.0,0.0,0.0,0.0,0.0,0.0,0.0,0.0,0.0,0.0,0.0,0.0,0.0,0.0,0.0,0.0,0.0,0.0,0.0,0.0,0.0,0.0,0.0,0.0,0.0,0.0,0.0,0.0,0.0,0.0,0.0,0.0,0.0,0.0,0.0,0.0,0.0,0.0,0.0,0.0,0.0,0.0,0.0,0.0,0.0,0.1167,0.0,0.2152,0.0,0.2375,0.2769,0.3025,0.346,0.3916,0.4529,0.4952,0.5235,0.5103,0.4451,0.0,0.0,0.0,0.0,0.0,0.0,0.0,0.0,0.0,0.0,0.0,0.0,0.0,0.0,0.0,0.0,0.0,0.0,0.0,0.0,0.0,0.0,0.0,0.0,0.0,0.0,0.0,0.0,0.0,0.0,0.0,0.0,0.0,0.0,0.0,0.0,0.0,0.0,0.0,0.0,0.0,0.0,0.0,0.0,0.0,0.0,0.0,0.0,0.0,0.0,0.0,0.0,0.0,0.0,0.0,0.0,0.0,0.0,0.0,0.0,0.0,0.0,0.0,0.0,0.0,0.0,0.0,0.0,0.0,0.0,0.0,0.0,0.0,0.0,0.0,0.0,0.0,0.0,0.0,0.0,0.0,0.0,0.0,0.0,0.0,0.0,0.0,0.0,0.0,0.0,0.0,0.0,0.0,0.0,0.0,0.0,0.0,0.0,0.0,0.0,0.0,0.0,0.2335,0.0,0.0,0.0,0.0,0.3304,0.4003,0.4474,0.4826,0.5326,0.5911,0.6051,0.6048,0.5835,0.5615,0.5253,0.4812,0.0,0.0,0.0,0.0,0.0171,0.0,0.0,0.0,0.0,0.0,0.0,0.0,0.0,0.0,0.0,0.0,0.0,0.0,0.0,0.0,0.0,0.0,0.0,0.0,0.0,0.0,0.0,0.0,0.0,0.0,0.0,0.0,0.0,0.0,0.0,0.0,0.0449,0.0673,0.0673,0.0449,0.0224,0.0224,0.0,0.0224,0.0673,0.0673,0.0673,0.0673,0.0449,0.0224,0.0224,0.0224,0.0449,0.0673,0.0449,0.0224,0.0224,0.0224,0.0224,0.0,0.0,0.0,0.0,0.0,0.0,0.0,0.0,0.0,0.0,0.0,0.0,0.0,0.0,0.0,0.0,0.0,0.0,0.0,0.0,0.0,0.0,0.0,0.0,0.0,0.0,0.0,0.0,0.0,0.0,0.0,0.0,0.0,0.0,0.0,0.0,0.0,0.0,0.0,0.0,0.0,0.0,0.0,0.0,0.0,0.0,0.392,0.4823,0.5207,0.5471,0.6723,0.7005,0.6953,0.734,0.7582,0.7374,0.6396,0.5777,0.0,0.0,0.0,0.1018,0.0175,0.0,0.0,0.0,0.0,0.0,0.0,0.0,0.0,0.0,0.0,0.0,0.0,0.0,0.0,0.0,0.0,0.0,0.0,0.0,0.0,0.0,0.0,0.0,0.0,0.0,0.0,0.0,0.0,0.0,0.0,0.2021,0.3143,0.3143,0.2021,0.1572,0.1572,0.0449,0.0898,0.3143,0.3143,0.3143,0.3143,0.2021,0.1572,0.1572,0.1572,0.2021,0.3143,0.2021,0.1572,0.1572,0.1572,0.0898,0.0,0.0,0.0,0.0,0.0,0.0,0.0,0.0,0.0,0.0,0.0,0.0,0.0,0.0,0.0,0.0,0.0,0.0,0.0,0.0,0.0,0.0,0.0,0.0,0.0,0.0,0.0,0.0,0.0,0.0,0.0,0.0,0.0,0.0,0.0,0.0,0.0,0.0,0.0,0.0571,0.0,0.0,0.0,0.0,0.0,0.0,0.0,0.6354,0.6933,0.7365,0.818,0.8543,0.852,0.8774,0.8963,0.8821,0.7865,0.7181,0.6453,0.4662,0.0,0.0,0.0,0.0705,0.0726,0.0192,0.0,0.0,0.0,0.0,0.0,0.0,0.0,0.0,0.0,0.0,0.0,0.0,0.0,0.0,0.0,0.0,0.0,0.0,0.0,0.0,0.0,0.0,0.0,0.0,0.0,0.0449,0.2021,0.2919,0.3594,0.3594,0.3143,0.2919,0.2919,0.2245,0.2245,0.2694,0.2694,0.2919,0.3594,0.3143,0.2919,0.2919,0.2919,0.3143,0.3594,0.3143,0.2919,0.2919,0.2919,0.247,0.1796,0.0449,0.0,0.0,0.0,0.0,0.0,0.0,0.0,0.0,0.0,0.0,0.0,0.0,0.0,0.0,0.0,0.0,0.0,0.0,0.0,0.0,0.0,0.0,0.0,0.0,0.0,0.0,0.0,0.0,0.0,0.0,0.0,0.0,0.0,0.0,0.0,0.0,0.0423,0.1009,0.0,0.3212,0.0,0.0,0.0,0.0,0.0,0.8003,0.8521,0.9006,0.9687,0.981,0.9795,1.004,0.9998,0.9769,0.9273,0.8497,0.7508,0.6395,0.4883,0.0,0.0,0.0,0.1994,0.0963,0.04,0.0,0.0,0.0,0.0,0.0,0.0,0.0,0.0,0.0,0.0,0.0,0.0,0.0,0.0,0.0,0.0,0.0,0.0,0.0,0.0,0.0,0.0224,0.0898,0.1572,0.2245,0.3594,0.405,0.4277,0.4267,0.405,0.405,0.4043,0.4039,0.3369,0.2245,0.2245,0.2694,0.3594,0.3594,0.3594,0.3594,0.3589,0.3589,0.3594,0.3594,0.3594,0.3594,0.3594,0.3594,0.3369,0.1572,0.0449,0.0,0.0,0.0,0.0,0.0,0.0,0.0,0.0,0.0,0.0,0.0,0.0,0.0,0.0,0.0,0.0,0.0,0.0,0.0,0.0,0.0,0.0,0.0,0.0,0.0,0.0,0.0,0.0,0.0,0.0,0.0,0.0,0.0,0.0,0.0,0.1565,0.2789,0.3712,0.4458,0.5049,0.5324,0.0,0.0,0.0,0.9086,0.957,0.9907,1.0522,1.0625,1.0532,0.0,0.0,0.0,1.0218,0.9545,0.8692,0.7843,0.6778,0.5897,0.0,0.0,0.0,0.3262,0.1581,0.0,0.0,0.0,0.0,0.0,0.0,0.0,0.0,0.0,0.0,0.0,0.0,0.0,0.0,0.0,0.0,0.0,0.0,0.0,0.0,0.0,0.0898,0.3145,0.5387,0.5838,0.3814,0.4972,0.5884,0.5838,0.5649,0.543,0.5383,0.4933,0.4259,0.3589,0.3589,0.3589,0.3589,0.3589,0.3589,0.3589,0.3589,0.3589,0.3589,0.3589,0.3589,0.3589,0.3589,0.3589,0.3589,0.3369,0.2021,0.0,0.0,0.0,0.0,0.0,0.0,0.0,0.0,0.0,0.0,0.0,0.0,0.0,0.0,0.0,0.0,0.0,0.0,0.0,0.0,0.0,0.0,0.0,0.0,0.0,0.0,0.0,0.0,0.0,0.0,0.0,0.0,0.0,0.0517,0.1483,0.3276,0.4427,0.5115,0.531,0.5906,0.675,0.7873,0.0,0.0,0.0,0.0,1.1686,0.0,0.0,0.0,0.0,0.0,0.0,1.1202,1.075,1.0279,0.9412,0.8436,0.7311,0.6362,0.5802,0.5429,0.4508,0.3101,0.1795,0.1227,0.105,0.086,0.0218,0.0,0.0,0.0,0.0,0.0,0.0,0.0,0.0,0.0,0.0,0.0,0.0,0.0,0.0673,0.2021,0.3594,0.4712,0.4712,0.6281,0.7183,0.7398,0.8137,0.8388,0.7903,0.7508,0.7064,0.655,0.6099,0.5188,0.4264,0.3814,0.3589,0.3589,0.3589,0.3589,0.3589,0.3589,0.3589,0.3589,0.3589,0.3589,0.3589,0.3589,0.3589,0.3589,0.3589,0.2703,0.1131,0.0226,0.0,0.0,0.0,0.0,0.0,0.0,0.0,0.0,0.0,0.0,0.0,0.0,0.0,0.0,0.0,0.0,0.0,0.0,0.0,0.0,0.0,0.0,0.0,0.0,0.0,0.0,0.0,0.0,0.0,0.0,0.0,0.0,0.0,0.0,0.5302,0.6661,0.6586,0.0,0.0,0.0,0.0,1.1754,0.0,0.0,1.3046,0.0,0.0,0.0,0.0,0.0,0.0,0.0,1.2079,1.1504,1.0707,0.9609,0.8552,0.7952,0.752,0.7115,0.6282,0.533,0.4108,0.322,0.2899,0.2547,0.1944,0.1096,0.0444,0.0,0.0,0.0,0.0,0.0,0.0,0.0,0.0,0.0,0.0,0.0673,0.2021,0.4493,0.6286,0.6956,0.6505,0.7873,0.9229,0.9899,1.068,1.0732,1.0461,0.9861,0.9168,0.7941,0.7038,0.5877,0.4714,0.4039,0.3589,0.3589,0.3589,0.3814,0.3815,0.3815,0.4039,0.4264,0.4264,0.4039,0.3589,0.3589,0.3589,0.3589,0.3589,0.3156,0.2272,0.1137,0.0688,0.0698,0.0,0.0,0.0,0.0,0.0,0.0,0.0,0.0,0.0,0.0,0.0,0.0,0.0,0.0,0.0,0.0,0.0,0.0,0.0,0.0,0.0,0.0,0.0,0.0,0.0,0.0,0.0,0.0,0.0,0.0,0.0,0.0,0.5544,0.0,0.8107,0.8515,0.9553,0.0,1.1748,1.2391,0.0,1.3507,1.3903,0.0,0.0,0.0,1.4342,1.4299,0.0,1.418,0.0,1.2151,1.1886,1.0781,0.9768,0.9688,0.9444,0.9061,0.0,0.0,0.0,0.5727,0.5282,0.5207,0.509,0.3476,0.1549,0.0443,0.0,0.0,0.0,0.0,0.0,0.0,0.0,0.0,0.0,0.2245,0.4493,0.6964,0.7183,0.7631,0.8523,1.0845,1.2019,1.1095,1.2415,1.3174,1.3077,1.2475,1.1287,0.931,0.7485,0.6103,0.5383,0.4264,0.3589,0.3589,0.3589,0.4039,0.4488,0.4488,0.4938,0.5383,0.5383,0.4709,0.3589,0.3589,0.3589,0.3589,0.3589,0.3611,0.3636,0.2501,0.2068,0.2095,0.0,0.0,0.0,0.0,0.0,0.0,0.0,0.0,0.0,0.0,0.0,0.0,0.0,0.0,0.0,0.0,0.0,0.0,0.0,0.0,0.0,0.0,0.0,0.0,0.0,0.1078,0.0,0.0,0.0,0.0,0.0,0.0,0.0,0.0,0.89,0.9926,1.1134,1.1641,0.0,0.0,1.3204,1.3836,0.0,0.0,0.0,0.0,0.0,1.4713,1.503,0.0,1.4415,1.4007,0.0,1.2366,1.1998,1.1934,1.1659,1.1282,1.0816,0.0,0.0,0.0,0.0,0.0,0.5664,0.4715,0.3491,0.2871,0.112,0.0,0.0,0.0,0.0,0.0,0.0,0.0679,0.2265,0.4759,0.6557,0.718,0.875,1.0085,1.0751,1.2181,1.3373,1.4033,1.47,1.5297,1.5722,1.3904,1.2019,1.0071,0.7965,0.6783,0.6057,0.5383,0.4933,0.4933,0.4933,0.5159,0.5831,0.5831,0.6057,0.6724,0.6724,0.6281,0.5383,0.4712,0.4264,0.4267,0.4293,0.4322,0.4585,0.4153,0.4421,0.4463,0.0,0.0,0.0,0.0,0.0,0.0,0.0,0.0,0.0,0.0,0.0,0.0,0.0,0.0,0.0,0.0,0.0,0.0,0.0,0.0576,0.0805,0.0813,0.0585,0.0591,0.0961,0.2093,0.3262,0.0,0.0,0.0,0.0,0.0,0.0,0.0,0.0,0.0,0.0,0.0,0.0,0.0,1.3766,0.0,0.0,1.499,1.51,0.0,0.0,0.0,1.6048,1.5667,1.5312,0.0,0.0,0.0,1.2942,1.2857,1.2716,1.2478,1.2186,1.161,1.0819,1.0266,0.0,0.0,0.7644,0.676,0.5823,0.4828,0.2893,0.1576,0.1581,0.1589,0.1593,0.159,0.1817,0.295,0.4755,0.6331,0.7668,0.8527,1.0116,1.1701,1.281,1.4086,1.5327,1.6241,1.6881,1.7011,1.7242,1.5381,1.3487,1.1767,0.9611,0.8177,0.7435,0.6513,0.6274,0.65,0.65,0.6951,0.7843,0.8067,0.8517,0.8961,0.8961,0.8734,0.8067,0.7175,0.6057,0.5163,0.5434,0.5705,0.5979,0.603,0.6315,0.6356,0.0,0.0,0.0,0.0,0.0,0.0,0.0,0.0,0.0,0.0,0.0,0.0,0.0,0.0,0.0,0.0,0.0125,0.0122,0.0237,0.1416,0.2126,0.225,0.1681,0.183,0.2608,0.3154,0.412,0.5409,0.0,0.0,0.0,0.0,0.0,0.0,1.0468,1.1353,1.2501,1.282,0.0,1.3729,1.4306,1.4991,0.0,0.0,1.6347,0.0,1.6741,1.6836,1.6937,1.6795,1.5883,0.0,0.0,0.0,0.0,0.0,1.3319,1.3369,1.3061,1.294,1.2806,1.2085,0.0,0.0,1.0147,0.9165,0.8116,0.6517,0.5053,0.3992,0.4251,0.4264,0.4277,0.4301,0.5218,0.6122,0.721,0.7645,0.8543,1.0792,1.1745,1.2927,1.4718,1.6086,1.7148,1.7607,1.8436,1.8523,1.782,1.6663,1.5442,1.415,1.1745,1.0292,0.9529,0.8325,0.8067,0.851,0.851,0.9184,1.0301,1.0743,1.1407,1.1857,1.1857,1.163,1.0966,1.0528,0.8974,0.6745,0.6798,0.7308,0.7825,0.8126,0.8186,0.7996,0.0905,0.0345,0.0,0.0,0.0,0.0,0.0,0.0,0.0,0.0,0.0,0.0,0.0,0.0,0.0,0.0,0.09,0.0998,0.1591,0.2389,0.3098,0.3791,0.3679,0.4,0.4939,0.5277,0.6129,0.7503,0.0,0.0,0.0,0.0,0.0,0.0,1.0957,1.1547,1.2359,0.0,0.0,1.4027,1.4502,0.0,1.5832,1.6015,1.6286,1.6585,1.6707,1.6768,1.6788,1.6761,1.6497,1.5924,0.0,0.0,0.0,0.0,0.0,0.0,0.0,0.0,0.0,0.0,0.0,0.0,0.0,1.0061,0.8871,0.8542,0.7408,0.6645,0.755,0.7858,0.8146,0.9229,0.9046,0.8643,0.846,1.006,1.1422,1.2323,1.3937,1.5271,1.6528,1.7667,1.8255,1.8141,1.862,1.8523,1.782,1.7123,1.6139,1.4841,1.3578,1.2782,1.1997,1.1678,1.163,1.1634,1.1634,1.2084,1.2747,1.2752,1.3187,1.3864,1.3864,1.3415,1.2975,1.2839,1.1529,0.9282,1.0041,1.0575,1.1353,1.1686,1.1729,1.1278,0.1973,0.1659,0.1461,0.1255,0.0906,0.0797,0.122,0.1232,0.124,0.1248,0.0,0.0,0.0,0.0,0.0,0.0,0.0,0.0,0.3784,0.4215,0.495,0.5797,0.5447,0.5653,0.6581,0.6808,0.7542,0.8502,0.8412,0.0,0.0,0.0,0.0,0.0,0.0,0.0,0.0,0.0,1.3682,1.4326,1.4699,0.0,1.5886,1.6185,1.6442,1.6653,1.6809,1.6863,1.6849,1.6775,1.6558,0.0,0.0,1.5872,1.5615,0.0,1.552,1.5499,0.0,0.0,0.0,1.4641,0.0,0.0,0.0,1.1969,1.1161,1.0735,1.0281,0.9987,1.0256,1.0372,1.0677,1.1351,1.1385,1.1464,1.1607,1.2078,1.3009,1.4191,1.5635,1.7016,1.7868,1.8282,1.862,1.8552,1.8674,1.8755,1.8284,1.7588,1.7092,1.6329,1.5212,1.4413,1.4128,1.372,1.3642,1.387,1.387,1.4081,1.4747,1.4975,1.5454,1.5729,1.5729,1.5547,1.5393,1.5236,1.4386,1.3295,1.2662,1.2939,1.3473,1.3814,1.3849,1.3626,0.3435,0.3286,0.3137,0.2707,0.2415,0.2367,0.2859,0.3194,0.3229,0.0,0.0,0.0,0.0,0.0,0.0,0.0,0.0,0.0,0.6005,0.6317,0.694,0.7752,0.7278,0.719,0.7897,0.8263,0.8718,0.9393,0.0,0.0,0.0,0.0,0.0,0.0,0.0,0.0,0.0,0.0,0.0,1.4624,0.0,1.5411,1.5981,1.6374,1.6639,1.6809,1.6937,1.6978,1.6965,1.6836,1.6619,1.6395,1.6395,1.6205,0.0,0.0,0.0,0.0,0.0,0.0,0.0,0.0,0.0,1.4724,0.0,0.0,0.0,1.2842,1.2589,1.2495,1.2161,1.2277,1.2389,1.2694,1.318,1.3953,1.4876,1.4215,1.4049,1.5787,1.7047,1.804,1.8491,1.862,1.8728,1.8762,1.8762,1.8762,1.8762,1.8298,1.8059,1.8059,1.6893,1.6068,1.6038,1.5353,1.5214,1.564,1.564,1.6089,1.6526,1.702,1.7314,1.7412,1.7451,1.7517,1.7634,1.6972,1.7047,1.6931,1.5297,1.5088,1.5589,1.568,1.572,1.5487,0.5876,0.4643,0.3991,0.3927,0.4762,0.5222,0.4782,0.5443,0.5856,0.0,0.0,0.0,0.0,0.0,0.0,0.0,0.0,0.0,0.7938,0.0,0.8349,0.8776,0.8933,0.9133,0.9672,0.9684,1.0066,1.0658,1.0665,0.0,0.0,0.0,0.0,0.0,1.2542,0.0,0.0,0.0,1.4496,0.0,1.5242,1.5723,0.0,1.6456,1.67,1.6958,1.6971,1.6978,1.6978,0.0,1.6842,1.67,0.0,1.6585,1.6422,0.0,0.0,0.0,0.0,0.0,0.0,0.0,1.5248,0.0,0.0,0.0,0.0,1.3541,0.0,1.3075,1.2879,0.0,0.0,1.4075,1.448,1.5155,1.6533,1.6564,1.6658,1.7136,1.7868,1.8355,1.8335,1.8477,1.862,1.8742,1.8762,1.8762,1.8762,1.8762,1.8762,1.8762,1.8362,1.8222,1.8101,1.7702,1.7544,1.7632,1.7632,1.7632,1.7652,1.8002,1.807,1.8104,1.8226,1.8074,1.8108,1.8228,1.8275,1.8295,1.739,1.723,1.7568,1.8046,1.8059,1.7581,0.7403,0.6553,0.6074,0.5769,0.6032,0.6429,0.6601,0.7276,0.7787,0.0,0.0,0.0,0.0,0.0,0.0,0.0,0.0,1.0303,0.0,0.0,1.0349,1.0812,1.0883,1.094,1.1135,1.1283,1.1173,1.1239,1.1239,1.1389,0.0,0.0,0.0,0.0,1.3051,0.0,1.396,0.0,1.5072,0.0,0.0,0.0,0.0,1.653,1.6714,1.6978,1.6978,1.6978,1.6978,0.0,1.6876,0.0,0.0,0.0,0.0,0.0,0.0,0.0,0.0,0.0,0.0,0.0,0.0,0.0,1.546,0.0,1.4915,0.0,0.0,0.0,0.0,0.0,0.0,0.0,1.6137,1.6505,1.714,1.7173,1.7338,1.7802,1.8088,1.8321,1.8321,1.8375,1.8443,1.8498,1.8586,1.862,1.862,1.8708,1.8762,1.8762,1.862,1.8464,1.8321,1.8165,1.8023,1.786,1.786,1.7914,1.8002,1.8057,1.8179,1.8355,1.8409,1.8498,1.8586,1.864,1.8674,1.8674,1.8436,1.8231,1.8517,1.8762,1.8523,1.8284,0.8795,0.8408,0.8044,0.7476,0.7269,0.7455,0.8155,0.8828,0.9263,0.9002,0.0,0.0,1.0002,1.0993,0.0,0.0,0.0,1.2704,0.0,0.0,1.2301,1.2507,1.2318,0.0,1.225,1.2203,1.2033,1.1742,1.1742,1.1796,1.1898,1.2094,1.242,0.0,0.0,1.4082,1.4577,0.0,0.0,1.5988,1.6096,1.6415,1.6802,1.6734,1.6842,1.7046,1.7087,1.71,1.71,1.71,1.7026,0.0,1.7066,0.0,0.0,0.0,0.0,0.0,1.6686,0.0,0.0,0.0,0.0,0.0,0.0,0.0,0.0,0.0,0.0,0.0,0.0,0.0,0.0,0.0,0.0,1.7127,1.7277,1.7297,1.7494,1.8023,1.8145,1.8213,1.8247,1.8301,1.8321,1.8321,1.8443,1.8531,1.8531,1.8674,1.8762,1.8762,1.8654,1.8531,1.8375,1.8267,1.8111,1.7935,1.7968,1.8023,1.8091,1.8179,1.8321,1.8531,1.8586,1.8654,1.8762,1.8762,1.8762,1.8762,1.8762,1.8762,1.8762,1.8762,1.8762,1.8762,1.0446,0.9831,0.9187,0.8932,0.8844,0.8959,0.9579,0.996,1.0275,1.0514,0.0,0.0,0.0,0.0,0.0,0.0,0.0,1.4814,1.4502,0.0,1.3912,0.0,0.0,1.301,0.0,1.2562,1.2345,1.2047,1.2047,1.2047,1.206,1.2352,1.2725,1.3193,1.3946,1.4604,1.5181,1.5642,1.6008,1.6293,1.63,1.6571,1.6985,0.0,1.7175,1.7202,1.7351,0.0,0.0,1.7405,1.7405,0.0,0.0,0.0,0.0,0.0,0.0,0.0,0.0,0.0,0.0,1.6551,0.0,0.0,0.0,0.0,1.5893,0.0,0.0,0.0,0.0,0.0,0.0,0.0,0.0,0.0,0.0,0.0,0.0,1.7412,1.7704,1.7935,1.8091,1.8233,1.8321,1.8321,1.8443,1.8531,1.8531,1.8674,1.8762,1.8762,1.8762,1.8674,1.8531,1.8511,1.8375,1.8091,1.8233,1.8233,1.8111,1.8389,1.8511,1.8531,1.8694,1.8762,1.8762,1.8762,1.8762,1.8762,1.8762,1.8762,1.8762,1.8762,1.8762,1.8762,1.0948,1.0799,1.0502,1.0002,1.0052,1.0504,1.1042,1.1861,0.0,0.0,0.0,0.0,0.0,0.0,1.4904,0.0,0.0,1.5533,1.5133,1.5011,0.0,0.0,0.0,1.3831,0.0,1.3173,1.2901,1.2501,1.2406,1.2406,1.2508,1.2712,1.3091,1.3641,0.0,1.4923,0.0,0.0,0.0,0.0,0.0,1.7134,1.7263,0.0,1.7256,1.7351,1.7399,1.7419,0.0,1.7419,1.7419,1.7439,1.7541,1.7568,1.7582,1.7623,1.7636,1.7602,0.0,0.0,1.7134,1.689,0.0,0.0,0.0,0.0,0.0,0.0,0.0,0.0,0.0,0.0,0.0,0.0,0.0,0.0,0.0,0.0,0.0,0.0,0.0,0.0,0.0,0.0,1.8057,1.8158,1.8301,1.8423,1.8531,1.8674,1.8762,1.8762,1.8762,1.8694,1.8531,1.8531,1.8423,1.8247,1.8301,1.8335,1.8389,1.8477,1.8586,1.8694,1.8742,1.8762,1.8762,1.8762,1.8762,1.8762,1.8762,1.8762,1.8762,1.8762,1.8762,1.8762,1.1416,1.1402,1.1335,1.0856,1.109,1.1573,1.2044,0.0,0.0,0.0,1.4258,0.0,1.5086,0.0,1.5642,0.0,1.5995,1.5934,1.5594,1.552,0.0,1.4848,1.4733,0.0,0.0,0.0,1.3444,1.3051,1.2895,1.2874,1.2969,1.3125,1.3485,1.4027,1.4577,1.5187,1.5832,1.6374,1.6775,0.0,0.0,1.7453,0.0,0.0,1.7412,1.7507,0.0,1.7575,1.7575,1.7575,1.7616,1.767,1.7772,1.7846,1.7914,1.8002,1.8023,1.8002,1.7914,1.7772,0.0,1.729,1.6917,0.0,1.6673,0.0,0.0,0.0,0.0,0.0,0.0,0.0,0.0,0.0,0.0,0.0,0.0,1.6639,0.0,0.0,0.0,0.0,0.0,0.0,1.788,1.8077,1.8233,1.8389,1.8531,1.8674,1.8762,1.8762,1.8762,1.8708,1.862,1.862,1.8531,1.8389,1.8443,1.8498,1.8531,1.8586,1.8674,1.8762,1.8762,1.8762,1.8762,1.8762,1.8762,1.8762,1.8762,1.8762,1.8762,1.8762,1.8762,1.8762,1.1857,1.187,1.1796,1.1518,1.1945,1.2433,0.0,0.0,1.3831,0.0,1.4719,1.5106,1.5411,1.5696,1.5872,1.5886,1.6022,0.0,1.5886,1.5757,0.0,0.0,1.5181,1.4896,1.4584,0.0,0.0,0.0,1.3526,1.3444,1.3437,1.3593,1.3892,1.4333,1.4787,0.0,1.611,1.6564,1.6937,1.7236,1.7385,1.7528,1.7663,1.7663,1.7663,1.7684,1.7826,1.788,1.788,1.788,1.7989,1.8111,1.8111,1.8213,1.8335,1.8335,1.8335,1.8335,1.8335,1.8233,1.8036,1.7738,1.7446,0.0,0.0,0.0,1.706,0.0,0.0,0.0,0.0,0.0,0.0,0.0,0.0,0.0,0.0,0.0,0.0,0.0,0.0,0.0,0.0,0.0,0.0,1.807,1.8233,1.8375,1.8531,1.8674,1.8762,1.8762,1.8762,1.8762,1.8762,1.8762,1.8694,1.8552,1.8694,1.8694,1.8552,1.8694,1.8762,1.8762,1.8762,1.8762,1.8762,1.8762,1.8762,1.8762,1.8762,1.8762,1.8762,1.8762,1.8762,1.8762,1.2216,1.244,1.2644,1.2569,1.2773,1.3051,0.0,0.0,0.0,0.0,1.5092,1.5452,1.5866,1.5981,1.611,1.6334,1.6388,0.0,0.0,0.0,0.0,1.592,1.5947,1.5825,1.5513,1.5221,0.0,1.4624,1.4251,1.4014,1.3905,1.4055,1.4245,1.4482,1.5045,1.5588,1.6117,1.668,1.7216,1.7684,1.7738,1.7772,1.7812,0.0,1.7812,1.7826,1.7989,1.8111,1.8199,1.8199,1.8233,1.8287,1.8389,1.8443,1.8498,1.862,1.8654,1.862,1.8511,1.8443,1.8355,1.8057,1.7826,1.7684,0.0,0.0,0.0,0.0,0.0,0.0,0.0,0.0,0.0,0.0,0.0,0.0,0.0,0.0,0.0,0.0,0.0,0.0,0.0,0.0,0.0,0.0,1.8124,1.8267,1.8511,1.8565,1.864,1.8762,1.8762,1.8762,1.8762,1.8762,1.8742,1.8708,1.8742,1.8742,1.8708,1.8742,1.8762,1.8762,1.8762,1.8762,1.8762,1.8762,1.8762,1.8762,1.8762,1.8762,1.8762,1.8762,1.8762,1.8762,1.2644,1.2895,1.3193,1.3322,1.3573,0.0,1.3905,0.0,0.0,1.5303,1.556,0.0,1.6232,1.6273,1.6341,1.651,1.6524,0.0,1.6408,0.0,0.0,1.6279,1.6354,1.6293,1.6056,1.5757,0.0,1.516,0.0,1.4516,1.4367,1.4448,1.457,1.4733,1.5201,1.5662,1.613,1.6863,1.7439,1.786,1.786,1.786,0.0,1.786,1.7901,1.7968,1.8057,1.8111,1.8124,1.8124,1.8213,1.8335,1.8409,1.8531,1.8654,1.8742,1.8762,1.8742,1.8654,1.864,1.8586,1.8335,1.8213,1.8145,1.8077,1.8002,1.7982,0.0,1.8199,1.8179,0.0,0.0,0.0,0.0,0.0,0.0,0.0,0.0,0.0,0.0,0.0,0.0,0.0,0.0,0.0,0.0,0.0,1.8124,1.8423,1.8498,1.8565,1.8654,1.8728,1.8762,1.8762,1.8762,1.8762,1.8762,1.8762,1.8762,1.8762,1.8762,1.8762,1.8762,1.8762,1.8762,1.8762,1.8762,1.8762,1.8762,1.8762,1.8762,1.8762,1.8762,1.8762,1.8762,1.3125,1.3329,1.3634,1.3912,0.0,0.0,0.0,1.4835,0.0,1.5839,0.0,1.6246,1.6524,1.6551,1.6558,1.6578,0.0,1.6585,1.6585,1.6585,1.6592,1.6605,1.6612,1.6558,1.6456,1.6157,0.0,0.0,0.0,1.497,1.4801,1.478,1.4841,1.4984,1.5303,1.5723,1.6252,1.7093,1.7609,1.786,1.788,1.788,1.786,1.786,1.7948,1.8057,1.8057,1.8002,1.7914,1.7914,1.8091,1.8321,1.8321,1.8511,1.8728,1.8728,1.8742,1.8762,1.8762,1.8762,1.8728,1.8599,1.8565,1.8531,1.8409,1.8375,1.8375,1.8375,1.8375,1.8335,1.8179,0.0,0.0,0.0,0.0,0.0,0.0,0.0,0.0,0.0,0.0,0.0,0.0,0.0,0.0,0.0,0.0,0.0,1.8247,1.8409,1.8511,1.8531,1.8674,1.8762,1.8762,1.8762,1.8762,1.8762,1.8762,1.8762,1.8762,1.8762,1.8762,1.8762,1.8762,1.8762,1.8762,1.8762,1.8762,1.8762,1.8762,1.8762,1.8762,1.8762,1.8762,1.8762,0.0,0.0,0.0,0.0,0.0,1.533,1.5547,1.5649,1.5825,1.6185,1.6354,1.651,1.6686,1.6707,1.6761,1.689,1.6897,0.0,0.0,0.0,0.0,1.7073,1.7073,1.7121,1.7222,1.6937,1.6632,0.0,0.0,1.5377,1.5099,1.4984,1.4943,1.4991,1.5411,1.6056,1.6856,1.7385,1.7704,1.788,1.8002,1.7968,1.786,1.786,1.788,1.7901,1.7901,1.8057,1.8233,1.8233,1.8267,1.8321,1.8321,1.8443,1.8565,1.8565,1.8654,1.8762,1.8762,1.8762,1.8762,1.8728,1.8728,1.8708,1.8694,1.8694,1.8694,1.8694,1.8694,1.864,1.8477,0.0,0.0,0.0,0.0,0.0,0.0,0.0,0.0,0.0,0.0,0.0,0.0,0.0,0.0,0.0,0.0,0.0,1.7935,1.8213,1.8409,1.8531,1.8674,1.8762,1.8762,1.8762,1.8762,1.8762,1.8762,1.8762,1.8762,1.8762,1.8762,1.8762,1.8762,1.8762,1.8762,1.8762,1.8762,1.8762,1.8762,1.8762,1.8762,1.8762,1.8762,1.8762,0.0,0.0,0.0,0.0,0.0,0.0,0.0,1.6266,0.0,1.6517,1.6598,1.67,1.6856,1.687,1.6897,1.6971,1.7046,1.706,1.6985,1.7053,1.7121,1.7188,1.7195,0.0,1.7419,1.7134,1.6829,1.6524,0.0,1.5594,1.5296,1.5153,1.512,1.5228,1.5825,1.6469,1.7121,1.7568,1.7792,1.788,1.8023,1.8002,1.786,1.786,1.786,1.786,1.786,1.7948,1.8091,1.8091,1.8145,1.8199,1.8199,1.8301,1.8443,1.8511,1.8586,1.8654,1.8742,1.8708,1.864,1.864,1.864,1.864,1.864,1.8708,1.8762,1.8762,1.8762,1.8708,1.8565,1.8233,0.0,0.0,0.0,0.0,0.0,0.0,0.0,0.0,0.0,0.0,0.0,0.0,0.0,0.0,0.0,0.0,1.7738,1.8111,1.8355,1.8423,1.864,1.8762,1.8762,0.0,1.8762,1.8762,1.8762,1.8762,1.8762,1.8762,1.8762,1.8762,1.8762,1.8762,1.8762,1.8762,1.8762,1.8762,1.8762,1.8762,1.8762,1.8762,1.8762,1.8762,0.0,1.5079,0.0,0.0,1.59,0.0,1.651,1.67,1.6802,1.6802,1.6802,1.6842,1.6971,1.6978,1.6978,1.6978,1.7114,1.7148,1.7032,1.7161,1.7256,1.729,1.729,1.7358,1.7514,1.7256,1.6971,0.0,0.0,0.0,1.5547,1.5364,1.5398,1.5628,1.6279,1.6836,1.7317,0.0,1.7935,1.7968,1.8124,1.8091,1.7968,1.7968,1.7968,1.7968,1.7968,1.7935,1.7914,1.7914,1.7968,1.8036,1.8036,1.8145,1.8287,1.8409,1.8464,1.8511,1.864,1.8586,1.8477,1.8477,1.8511,1.8531,1.8531,1.8654,1.8762,1.8762,1.8762,1.8708,1.8565,1.8335,0.0,0.0,0.0,0.0,0.0,0.0,0.0,0.0,0.0,0.0,0.0,0.0,0.0,0.0,0.0,0.0,1.7595,1.8023,1.8267,1.8267,1.8552,1.8708,1.8708,0.0,1.8796,1.8762,1.8796,1.8796,1.8762,1.8762,1.8762,1.8762,1.8762,1.8762,1.8762,1.8762,1.8762,1.8762,1.8762,1.8762,1.8762,1.8762,1.8762,1.8762,0.0,0.0,0.0,0.0,0.0,0.0,1.67,1.6863,1.6958,1.6958,1.6958,1.6965,1.6978,1.6978,1.6978,1.6978,1.7114,1.7188,1.7175,1.7317,1.746,1.7602,1.7609,1.767,1.7812,1.767,1.7439,0.0,0.0,1.6307,1.6015,1.573,1.5818,1.6239,1.6578,1.7053,0.0,1.7935,1.8145,1.8287,1.8423,1.8409,1.8287,1.8287,1.8287,1.8287,1.8287,1.8179,1.8077,1.8077,1.7989,1.788,1.788,1.7989,1.8111,1.8124,1.8233,1.8335,1.8355,1.8355,1.8335,1.8335,1.8443,1.8531,1.8531,1.8654,1.8762,1.8762,1.8762,1.8708,1.8565,1.8511,1.8443,0.0,0.0,0.0,0.0,0.0,0.0,0.0,0.0,0.0,0.0,0.0,0.0,0.0,1.7344,0.0,0.0,1.786,1.8111,1.8111,1.8389,1.8552,1.8552,1.883,1.8905,1.8762,1.8905,1.8905,1.8762,1.8762,1.8762,1.8762,1.8762,1.8762,1.8762,1.8762,1.8762,1.8762,1.8762,1.8762,1.8762,1.8762,1.8762,1.8762,0.0,0.0,0.0,0.0,0.0,0.0,0.0,1.7209,1.7243,1.7243,1.7168,1.7141,1.7236,1.7243,1.7243,1.7243,1.7378,1.7426,1.7338,1.7473,1.7589,1.765,1.765,1.7717,1.786,1.7717,1.7541,0.0,0.0,0.0,1.6341,1.6042,1.6144,1.6592,1.7073,1.7473,1.7806,1.8199,1.8335,1.8335,1.8477,1.8443,1.8321,1.8321,1.8321,1.8321,1.8321,1.8287,1.8233,1.8233,1.8124,1.8002,1.8002,1.8111,1.8247,1.8335,1.8389,1.8464,1.8565,1.8511,1.8443,1.8443,1.8498,1.8531,1.8531,1.8654,1.8762,1.8762,1.8762,1.8742,1.8674,1.8674,1.8654,1.8599,0.0,0.0,0.0,0.0,0.0,0.0,0.0,0.0,0.0,0.0,0.0,0.0,0.0,0.0,0.0,0.0,1.8124,1.8233,1.8423,1.8586,1.8674,1.8884,1.8959,1.8905,1.9047,1.904,1.8905,1.8905,1.885,1.8762,1.8762,1.8762,1.8762,1.8762,1.8762,1.8762,1.8762,1.8762,1.8762,1.8762,1.8762,1.8762,1.6727,0.0,1.7141,0.0,1.7256,1.7297,1.7405,1.7419,1.7439,1.748,1.7392,1.7351,1.7412,1.7419,1.7419,1.7419,1.7561,1.7602,1.7494,1.7629,1.7717,1.7717,1.7717,0.0,1.786,1.7758,1.7629,1.7487,1.7121,0.0,1.6714,1.6551,1.6693,1.71,1.7568,1.788,1.8077,1.8389,1.8498,1.8464,1.8565,1.8531,1.8443,1.8443,1.8443,1.8443,1.8443,1.8423,1.8389,1.8389,1.8301,1.8213,1.8179,1.8233,1.8335,1.8443,1.8464,1.8498,1.8599,1.8552,1.8464,1.8464,1.8498,1.8531,1.8531,1.8654,1.8762,1.8762,1.8762,1.8762,1.8762,1.8762,1.8762,1.8762,0.0,0.0,0.0,0.0,0.0,0.0,0.0,0.0,1.8247,0.0,0.0,0.0,0.0,0.0,0.0,0.0,0.0,0.0,0.0,0.0,1.8694,1.8938,1.9027,1.8993,1.9183,1.9203,1.9047,1.9006,1.8905,1.8762,1.8762,1.8762,1.8762,1.8762,1.8762,1.8762,1.8762,1.8762,1.8762,1.8762,1.8762,1.8762,1.7216,1.7311,1.7412,1.7419,1.7419,1.7419,1.7419,1.7419,1.7473,1.7629,1.765,1.7589,1.7439,1.7419,1.7419,1.7419,1.7561,1.765,1.765,1.7772,1.786,0.0,0.0,1.786,1.786,1.786,1.7792,1.765,0.0,0.0,1.7188,1.7331,1.7561,1.786,1.8023,1.8247,1.8531,1.8531,1.862,1.8762,1.8762,1.8762,1.8762,1.8762,1.8762,1.8762,1.8762,1.8654,1.8531,1.8531,1.8531,1.8498,1.8355,1.8321,1.8321,1.8321,1.8321,1.8321,1.8321,1.8321,1.8321,1.8321,1.8423,1.8531,1.8531,1.8654,1.8762,1.8762,1.8762,1.8762,1.8762,1.8762,1.8762,1.8762,1.8762,0.0,0.0,1.8993,0.0,0.0,1.8993,1.8864,1.8552,0.0,0.0,0.0,0.0,0.0,0.0,0.0,0.0,1.8091,1.8375,0.0,1.8531,1.8972,1.9128,1.8993,1.9291,1.9345,1.9203,1.9061,1.8905,1.8762,1.8762,1.8762,1.8762,1.8762,1.8762,1.8762,1.8762,1.8762,1.8762,1.8762,1.8762,1.8762,1.765,1.7684,1.7724,1.7724,1.7724,1.7724,1.7724,1.7724,1.7772,1.7935,1.7948,1.7968,1.8023,1.7846,1.7724,0.0,1.7772,1.7792,0.0,1.7846,1.786,1.786,1.786,1.786,1.786,1.7968,1.8002,1.7948,0.0,1.7792,1.765,1.7806,1.7935,1.8023,1.8287,1.8443,1.8531,1.864,1.8708,1.8762,1.8762,1.8762,1.8762,1.8762,1.8762,1.8762,1.8762,1.8728,1.8694,1.8694,1.8694,1.8674,1.864,1.862,1.862,1.862,1.862,1.862,1.862,1.862,1.862,1.862,1.8654,1.8694,1.8694,1.8728,1.8762,1.8762,1.8762,1.8762,1.8762,1.8762,1.8762,1.8762,1.8762,1.8782,1.883,0.0,1.883,1.883,1.883,1.8762,0.0,1.8443,0.0,0.0,0.0,0.0,0.0,0.0,0.0,0.0,1.8477,0.0,1.885,1.9081,1.9237,1.9291,1.9488,1.9501,1.9345,1.9094,1.8959,1.8918,1.8816,1.8762,1.8762,1.8762,1.8762,1.8762,1.8762,1.8762,1.8762,1.8762,1.8762,1.8762,1.8036,1.8036,1.8036,1.8036,1.8036,1.8036,1.8036,1.8036,1.8077,1.8158,1.8179,1.8213,1.8301,1.8145,0.0,1.8036,1.8036,1.8002,1.7948,1.7948,1.7914,1.786,1.786,1.786,1.786,1.8023,0.0,1.8091,1.8145,1.8158,1.8111,1.8213,1.8287,1.8355,1.8531,1.862,1.862,1.8728,1.8762,1.8762,1.8762,1.8762,1.8762,1.8762,1.8762,1.8762,1.8762,1.8762,1.8762,1.8762,1.8762,1.8762,1.8762,1.8762,1.8762,1.8762,1.8762,1.8762,1.8762,1.8762,1.8762,1.8762,1.8762,1.8762,1.8762,1.8762,1.8762,1.8762,1.8762,1.8762,1.8762,1.8762,1.8762,1.8762,1.8762,1.8762,1.8762,1.8762,1.8762,0.0,0.0,0.0,0.0,1.8565,1.8477,0.0,0.0,0.0,0.0,0.0,1.8335,1.8531,1.8586,1.8742,1.8993,1.9128,1.9271,1.9434,1.959,1.9576,1.9427,1.9237,1.9128,1.9061,1.8918,1.885,1.885,1.8782,1.8762,1.8762,1.8762,1.8762,1.8762,1.8762,1.8762,1.8762,1.8355,1.8321,1.8321,0.0,1.8321,1.8321,1.8321,1.8321,1.8321,1.8335,1.8335,1.8335,1.8355,1.8355,1.8355,1.8355,0.0,0.0,1.8111,1.8111,1.8036,1.7901,1.7901,1.7901,1.7901,1.8036,1.8124,1.8145,1.8287,1.8423,1.8552,1.8552,1.862,1.8762,1.8762,1.8762,1.8762,1.8762,1.8762,1.8762,1.8762,1.8762,1.8762,1.8762,1.8762,1.8762,1.8762,1.8762,1.8762,1.8762,1.8762,1.8762,1.8762,1.8762,1.8762,1.8762,1.8762,1.8762,1.8762,1.8762,1.8762,1.8762,1.8762,1.8762,1.8762,1.8762,1.8762,1.8762,1.8762,1.8762,1.8762,1.8762,1.8762,1.8762,1.8762,1.8762,1.8762,1.8762,1.8762,1.8762,1.8762,0.0,1.8762,1.864,1.8498,0.0,0.0,0.0,0.0,0.0,1.8552,1.8552,1.8694,1.885,1.9006,1.9149,1.9291,1.9447,1.959,1.959,1.9447,1.9434,1.9359,1.9203,1.9061,1.9006,1.8972,1.883,1.8782,1.8762,1.8762,1.8762,1.8762,1.8762,1.8762,1.8762,0.0,0.0,1.8321,1.8321,1.8321,1.8321,1.8321,1.8321,1.8355,1.8464,1.8477,1.8531,1.864,1.8654,1.8654,1.8654,1.8443,1.8301,1.8267,1.8267,1.8247,1.8213,1.8213,1.8213,1.8213,1.8355,1.8477,1.8606,1.864,1.8674,1.8708,1.8708,1.8728,1.8762,1.8762,1.8762,1.8762,1.8762,1.8762,1.8762,1.8762,1.8762,1.8762,1.8762,1.8762,1.8762,1.8762,1.8762,1.8762,1.8762,1.8762,1.8762,1.8762,1.8762,1.8762,1.8762,1.8762,1.8762,1.8762,1.8762,1.8762,1.8762,1.8762,1.8762,1.8762,1.8762,1.8762,1.8762,1.8762,1.8762,1.8762,1.8762,1.8762,1.8762,1.8762,1.8762,1.8762,1.8762,1.8762,1.8762,1.8762,1.8762,1.8762,1.8728,1.8694,0.0,0.0,1.862,1.8654,1.8694,1.8708,1.8708,1.885,1.9006,1.9149,1.9305,1.9447,1.961,1.9644,1.9644,1.961,1.9481,1.9413,1.9359,1.9217,1.9094,1.8993,1.8959,1.8871,1.8762,1.8762,1.8762,1.8762,1.8762,1.8762,1.8762,1.864,1.8565,1.8518,1.8518,1.8518,1.8518,1.8518,1.8518,1.8552,1.862,1.864,1.8674,1.8742,1.8762,1.8762,1.8762,1.862,1.8498,1.8423,1.8409,1.8389,1.8321,1.8321,1.8321,1.8321,1.8464,1.8599,1.8762,1.8762,1.8762,1.8762,1.8762,1.8762,1.8762,1.8762,1.8762,1.8762,1.8762,1.8762,1.8762,1.8762,1.8762,1.8762,1.8762,1.8762,1.8762,1.8762,1.8762,1.8762,1.8762,1.8762,1.8762,1.8762,1.8762,1.8762,1.8762,1.8762,1.8762,1.8762,1.8762,1.8762,1.8762,1.8762,1.8762,1.8762,1.8762,1.8762,1.8762,1.8762,1.8762,1.8762,1.8762,1.8762,1.8762,1.8762,1.8762,1.8762,1.8762,1.8762,1.8762,1.8762,1.8762,1.8762,1.8762,1.8728,1.8654,1.8654,1.8654,1.8654,1.8654,1.8694,1.8762,1.8905,1.9061,1.9203,1.9434,1.9576,1.9664,1.9664,1.9664,1.9664,1.9576,1.9535,1.9522,1.9379,1.9257,1.9183,1.9115,1.904,1.8959,1.8959,1.8918,1.8871,1.8871,1.8816,1.8782,1.8762,1.8762,1.8762,1.8762,1.8762,1.8762,1.8762,1.8762,1.8762,1.8762,1.8762,1.8762,1.8762,1.8762,1.8762,1.8762,1.8762,1.8708,1.8565,1.8565,1.8511,1.8389,1.8389,1.8389,1.8389,1.8498,1.864,1.8762,1.8762,1.8762,1.8762,1.8762,1.8762,1.8762,1.8762,1.8762,1.8762,1.8762,1.8762,1.8762,1.8762,1.8762,1.8762,1.8762,1.8762,1.8762,1.8762,1.8762,1.8762,1.8762,1.8762,1.8762,1.8762,1.8762,1.8762,1.8762,1.8762,1.8762,1.8762,1.8762,1.8762,1.8762,1.8762,1.8762,1.8762,1.8762,1.8762,1.8762,1.8762,1.8762,1.8762,1.8762,1.8762,1.8762,1.8762,1.8762,1.8762,1.8762,1.8762,1.8762,1.8762,1.8762,1.8762,1.8762,1.8708,1.8586,1.8565,1.8565,1.8565,1.8565,1.864,1.8796,1.8938,1.9094,1.9271,1.9535,1.9664,1.9664,1.9664,1.9664,1.9664,1.9664,1.9664,1.9664,1.9522,1.9447,1.9413,1.9291,1.9217,1.9203,1.9203,1.9128,1.9027,1.9027,1.8938,1.885,1.8762,1.8762,1.8762,1.8762,1.8762,1.8762,1.8762,1.8762,1.8762,1.8762,1.8762,1.8762,1.8762,1.8762,1.8762,1.8762,1.8762,1.8742,1.8728,1.8728,1.8708,1.8694,1.8694,1.8694,1.8694,1.8708,1.8742,1.8762,1.8762,1.8762,1.8762,1.8762,1.8762,1.8762,1.8762,1.8762,1.8762,1.8762,1.8762,1.8762,1.8762,1.8762,1.8762,1.8762,1.8762,1.8762,1.8762,1.8762,1.8762,1.8762,1.8762,1.8762,1.8762,1.8762,1.8762,1.8762,1.8762,1.8762,1.8762,1.8762,1.8762,1.8762,1.8762,1.8762,1.8762,1.8762,1.8762,1.8762,1.8762,1.8762,1.8762,1.8762,1.8762,1.8762,1.8762,1.8762,1.8762,1.8762,1.8762,1.8762,1.8762,1.8762,1.8762,1.8762,1.8742,1.8728,1.8728,1.8728,1.8728,1.8728,1.8796,1.8952,1.9094,1.9305,1.959,1.9644,1.9664,1.9664,1.9664,1.9664,1.9664,1.9664,1.9664,1.9664,1.9644,1.9556,1.9434,1.9413,1.9325,1.9203,1.9203,1.9183,1.9169,1.9169,1.9149,1.9128,1.8762,1.8762,1.8762,1.8762,1.8762,1.8762,1.8762,1.8762,1.8762,1.8762,1.8762,1.8762,1.8762,1.8762,1.8762,1.8762,1.8762,1.8762,1.8762,1.8762,1.8762,1.8762,1.8762,1.8762,1.8762,1.8762,1.8762,1.8762,1.8762,1.8762,1.8762,1.8762,1.8762,1.8762,1.8762,1.8762,1.8762,1.8762,1.8762,1.8762,1.8762,1.8762,1.8762,1.8762,1.8762,1.8762,1.8762,1.8762,1.8762,1.8762,1.8762,1.8762,1.8762,1.8762,1.8762,1.8762,1.8762,1.8762,1.8762,1.8762,1.8762,1.8762,1.8762,1.8762,1.8762,1.8762,1.8762,1.8762,1.8762,1.8762,1.8762,1.8762,1.8762,1.8762,1.8762,1.8762,1.8762,1.8762,1.8762,1.8762,1.8762,1.8762,1.8762,1.8762,1.8762,1.8762,1.8762,1.8762,1.8762,1.883,1.8918,1.8993,1.9203,1.9434,1.9664,1.9664,1.9664,1.9664,1.9664,1.9664,1.9664,1.9664,1.9664,1.9664,1.9664,1.9624,1.9556,1.9556,1.9522,1.9447,1.9447,1.9393,1.9325,1.9325,1.9271,1.9217,1.9683,1.9683,1.9683,1.9683,1.9444,1.9458,1.9458,1.9226,1.9219,1.9219,1.9219,1.9219,1.9001,1.9001,1.9001,1.8762,1.8762,1.8762,1.8762,1.8762,1.8762,1.8762,1.8762,1.8762,1.8762,1.8762,1.8762,1.8762,1.8762,1.8762,1.8762,1.8762,1.8762,1.8762,1.8762,1.8762,1.8762,1.8762,1.8762,1.8762,1.8762,1.8762,1.8762,1.8762,1.8762,1.8762,1.8762,1.8762,1.8762,1.8762,1.8762,1.8762,1.8762,1.8762,1.8762,1.8762,1.8762,1.8762,1.8762,1.8762,1.8762,1.8762,1.8762,1.8762,1.8762,1.8762,1.8762,1.8762,1.8762,1.8762,1.8762,1.8762,1.8782,1.8816,1.8816,1.8816,1.8816,1.8816,1.8796,1.8762,1.8762,1.8762,1.8762,1.8762,1.8762,1.8762,1.8762,1.8782,1.8816,1.8918,1.9027,1.9094,1.9305,1.9501,1.9664,1.9664,1.9664,1.9664,1.9664,1.9664,1.9664,1.9664,1.9664,1.9664,1.9664,1.9664,1.9664,1.9664,1.9664,1.9664,1.9664,1.959,1.9481,1.9481,1.9413,1.9325,2.2209,2.2225,2.2225,2.2225,2.1764,2.1287,2.1287,2.0825,2.037,2.037,2.037,2.0146,1.9683,1.9683,1.9458,1.8762,1.8762,1.8762,1.8762,1.8762,1.8762,1.8762,1.8762,1.8762,1.8762,1.8762,1.8762,1.8762,1.8762,1.8762,1.8762,1.8762,1.8762,1.8762,1.8762,1.8762,1.8762,1.8762,1.8762,1.8762,1.8762,1.8762,1.8762,1.8762,1.8762,1.8762,1.8762,1.8762,1.8762,1.8762,1.8762,1.8762,1.8762,1.8762,1.8762,1.8762,1.8762,1.8762,1.8762,1.8762,1.8762,1.8762,1.8762,1.8762,1.8762,1.8762,1.8762,1.8762,1.8762,1.8762,1.8762,1.8762,1.8816,1.8959,1.8972,1.8972,1.8972,1.8972,1.8918,1.8782,1.8762,1.8762,1.8762,1.8762,1.8762,1.8762,1.8762,1.883,1.8972,1.8993,1.9115,1.9393,1.9413,1.9501,1.9664,1.9664,1.9664,1.9664,1.9664,1.9664,1.9664,1.9664,1.9664,1.9664,1.9664,1.9664,1.9664,1.9664,1.9664,1.9664,1.9664,1.9664,1.9644,1.9644,1.9644,1.9624,2.427,2.4032,2.4023,2.359,2.3343,2.3122,2.267,2.2448,2.2225,2.1748,2.1287,2.1064,2.0825,2.037,2.0146,1.9907,1.9922,1.9683,1.9458,1.9458,1.9219,1.8762,1.8762,1.8762,1.8762,1.8762,1.8762,1.8762,1.8762,1.8762,1.8762,1.8762,1.8762,1.8762,1.8762,1.8762,1.8762,1.8762,1.8762,1.8762,1.8762,1.8762,1.8762,1.8762,1.8762,1.8762,1.8762,1.8762,1.8762,1.8762,1.8762,1.8762,1.8762,1.8762,1.8762,1.8762,1.8762,1.8762,1.8762,1.8762,1.8762,1.8762,1.8762,1.8762,1.8762,1.883,1.8905,1.8905,1.8972,1.904,1.904,1.904,1.9061,1.9115,1.9115,1.9115,1.9115,1.9115,1.9061,1.8918,1.8905,1.8871,1.8782,1.8762,1.8762,1.8762,1.885,1.8938,1.8993,1.9169,1.9359,1.9569,1.9576,1.961,1.9664,1.9664,1.9664,1.9664,1.9664,1.9664,1.9664,1.9664,1.9664,1.9664,1.9664,1.9664,1.9664,1.9664,1.9664,1.9664,1.9664,1.9664,1.9664,1.9664,1.9664,1.9664,2.7429,2.7212,2.6974,2.6548,2.6301,2.6082,2.5406,2.5187,2.4729,2.4041,2.3581,2.3122,2.2448,2.1987,2.1525,2.1302,2.1064,2.0609,2.0377,1.9922,1.9458,1.8762,1.8762,1.8762,1.8762,1.8762,1.8762,1.8762,1.8762,1.8762,1.8762,1.8762,1.8762,1.8762,1.8762,1.8762,1.8762,1.8762,1.8762,1.8762,1.8762,1.8762,1.8762,1.8762,1.8762,1.8762,1.8762,1.8762,1.8762,1.8762,1.8762,1.8762,1.8762,1.8762,1.8762,1.8762,1.8762,1.8762,1.8762,1.8762,1.8762,1.8762,1.8762,1.8762,1.8762,1.8884,1.8993,1.8993,1.9094,1.9203,1.9203,1.9203,1.9217,1.9271,1.9271,1.9271,1.9271,1.9271,1.9203,1.9006,1.8993,1.8938,1.8782,1.8762,1.8782,1.883,1.8938,1.9027,1.9128,1.9359,1.9556,1.9664,1.9664,1.9664,1.9664,1.9664,1.9664,1.9664,1.9664,1.9664,1.9664,1.9664,1.9664,1.9664,1.9664,1.9664,1.9664,1.9664,1.9664,1.9664,1.9664,1.9664,1.9664,1.9664,1.9664,1.9664,3.1556,3.1544,3.1544,3.1544,3.1082,3.0417,2.9739,2.9265,2.8358,2.7241,2.7023,2.6348,2.4508,2.4288,2.3828,2.2448,2.1979,2.1525,2.1525,2.0363,1.9458,1.8762,1.8762,1.8762,1.8762,1.8762,1.8762,1.8762,1.8762,1.8762,1.8762,1.8762,1.8762,1.8762,1.8762,1.8762,1.8762,1.8762,1.8762,1.8762,1.8762,1.8762,1.8762,1.8762,1.8762,1.8762,1.8762,1.8762,1.8762,1.8762,1.8762,1.8762,1.8762,1.8762,1.8762,1.8762,1.8762,1.8762,1.8762,1.8762,1.8762,1.8762,1.8762,1.8762,1.8762,1.8884,1.8993,1.8993,1.9094,1.9203,1.9203,1.9203,1.9257,1.9413,1.9434,1.9434,1.9434,1.9434,1.9325,1.9027,1.8993,1.8938,1.8782,1.8762,1.883,1.8972,1.8993,1.9115,1.9413,1.9576,1.9664,1.9664,1.9664,1.9664,1.9664,1.9664,1.9664,1.9664,1.9664,1.9664,1.9664,1.9664,1.9664,1.9664,1.9664,1.9664,1.9664,1.9664,1.9664,1.9664,1.9664,1.9664,1.9664,1.9664,1.9664,1.9664,3.3588,3.3352,3.3424,3.3166,3.2821,3.2525,3.2011,3.1217,3.0417,2.976,2.8843,2.8162,2.7459,2.7004,2.6558,2.5644,2.5425,2.4729,2.3607,2.1979,2.0825,2.0609,1.9444,1.8762,1.8762,1.8762,1.8762,1.8762,1.8762,1.8762,1.8762,1.8762,1.8762,1.8762,1.8762,1.8762,1.8762,1.8762,1.8762,1.8762,1.8762,1.8762,1.8762,1.8762,1.8762,1.8762,1.8762,1.8762,1.8762,1.8762,1.8762,1.8762,1.8762,1.8762,1.8762,1.8762,1.8762,1.8762,1.8762,1.8762,1.8762,1.8762,1.8762,1.8762,1.8762,1.8884,1.9027,1.9115,1.9257,1.9359,1.9359,1.9447,1.9501,1.9447,1.9522,1.9556,1.9447,1.9434,1.9325,1.9027,1.8993,1.8938,1.8782,1.8762,1.883,1.8972,1.9183,1.9379,1.959,1.9644,1.9664,1.9664,1.9664,1.9664,1.9664,1.9664,1.9664,1.9664,1.9664,1.9664,1.9664,1.9664,1.9664,1.9664,1.9664,1.9664,1.9664,1.9664,1.9664,1.9664,1.9664,1.9664,1.9664,1.9664,1.9664,1.9664,3.5374,3.5361,3.5202,3.5143,3.4806,3.4743,3.4245,3.3685,3.3116,3.223,3.1544,3.0868,3.0428,2.9954,2.9512,2.8843,2.8379,2.7251,2.5434,2.4049,2.3122,2.2686,2.1064,1.9922,1.9219,1.9049,1.885,1.885,1.885,1.885,1.885,1.8796,1.8762,1.8762,1.8762,1.8762,1.8762,1.8762,1.8762,1.8762,1.8762,1.8762,1.8762,1.8762,1.8762,1.8762,1.8762,1.8762,1.8762,1.8762,1.8762,1.8762,1.8762,1.8762,1.8762,1.8762,1.8762,1.8762,1.8762,1.8762,1.8762,1.8762,1.8762,1.8762,1.8762,1.8884,1.9006,1.9094,1.9237,1.9345,1.9345,1.9413,1.9447,1.9359,1.9413,1.9447,1.9359,1.9345,1.9257,1.9027,1.8993,1.8938,1.8782,1.8762,1.885,1.9061,1.9359,1.9556,1.9664,1.9664,1.9664,1.9664,1.9664,1.9664,1.9664,1.9664,1.9664,1.9664,1.9664,1.9664,1.9664,1.9664,1.9664,1.9664,1.9664,1.9664,1.9664,1.9664,1.9664,1.9664,1.9664,1.9664,1.9664,1.9664,1.9664,1.9664,3.6941,3.6941,3.6941,3.6981,3.6941,3.6733,3.6302,3.6067,3.5818,3.4495,3.4495,3.4035,3.2904,3.2668,3.2443,3.1769,3.0631,2.9275,2.7697,2.6786,2.5863,2.4755,2.3599,2.2003,2.0168,1.9386,1.8993,1.8993,1.9006,1.9006,1.9006,1.885,1.8782,1.8782,1.8762,1.8762,1.8762,1.8762,1.8762,1.8762,1.8762,1.8762,1.8762,1.8762,1.8762,1.8762,1.8762,1.8762,1.8762,1.8762,1.8762,1.8762,1.8762,1.8762,1.8762,1.8762,1.8762,1.8762,1.8762,1.8762,1.8762,1.8762,1.8762,1.8762,1.8762,1.8871,1.8972,1.8993,1.9094,1.9183,1.9183,1.9203,1.9203,1.9183,1.9203,1.9203,1.9183,1.9183,1.9128,1.8993,1.8972,1.8918,1.8782,1.8782,1.8905,1.9183,1.9468,1.9644,1.9664,1.9664,1.9664,1.9664,1.9664,1.9664,1.9664,1.9664,1.9664,1.9664,1.9664,1.9664,1.9664,1.9664,1.9664,1.9664,1.9664,1.9664,1.9664,1.9664,1.9664,1.9664,1.9664,1.9664,1.9664,1.9664,1.9664,1.9664,3.6941,3.6941,3.7008,3.7235,3.7088,3.7008,3.7025,3.6643,3.6041,3.5818,3.5399,3.4941,3.4718,3.4718,3.4271,3.3824,3.2679,3.1769,3.1308,2.9739,2.8812,2.8595,2.6711,2.5183,2.4276,2.13,1.9683,1.9683,1.9338,1.9149,1.9149,1.9006,1.8938,1.8938,1.8816,1.8762,1.8762,1.8762,1.8762,1.8762,1.8762,1.8762,1.8762,1.8762,1.8762,1.8762,1.8762,1.8762,1.8762,1.8762,1.8762,1.8762,1.8762,1.8762,1.8762,1.8762,1.8762,1.8762,1.8762,1.8762,1.8762,1.8762,1.8762,1.8762,1.8762,1.8782,1.885,1.8972,1.9006,1.904,1.904,1.9128,1.9169,1.9061,1.9128,1.9169,1.9047,1.904,1.8972,1.883,1.8816,1.8796,1.8762,1.8871,1.9006,1.9183,1.9379,1.9535,1.9664,1.9664,1.9664,1.9664,1.9664,1.9664,1.9664,1.9664,1.9664,1.9664,1.9664,1.9664,1.9664,1.9664,1.9664,1.9664,1.9664,1.9664,1.9664,1.9664,1.9664,1.9664,1.9664,1.9664,1.9664,1.9664,1.9664,1.9664,3.6941,3.6941,3.6981,3.7155,3.7048,3.6981,3.7155,3.6825,3.6511,3.6511,3.6263,3.6041,3.6041,3.6041,3.587,3.5329,3.4657,3.4269,3.3726,3.2819,3.2126,3.1454,2.9731,2.8651,2.7937,2.5014,2.2488,2.1086,2.0469,2.0028,1.9782,1.9392,1.9061,1.8993,1.8905,1.883,1.8762,1.8762,1.8762,1.8762,1.8762,1.8762,1.8762,1.8762,1.8762,1.8762,1.8762,1.8762,1.8762,1.8762,1.8762,1.8762,1.8762,1.8762,1.8762,1.8762,1.8762,1.8762,1.8762,1.8762,1.8762,1.8762,1.8762,1.8762,1.8762,1.8762,1.8782,1.8871,1.8884,1.8884,1.8884,1.8938,1.8972,1.8884,1.8938,1.8972,1.8884,1.8884,1.885,1.8782,1.8762,1.8762,1.8762,1.8905,1.9027,1.9094,1.9237,1.9359,1.9434,1.9522,1.9556,1.9556,1.9624,1.9664,1.9664,1.9664,1.9664,1.9664,1.9664,1.9664,1.9664,1.9664,1.9664,1.9664,1.9664,1.9664,1.9664,1.9664,1.9664,1.9664,1.9664,1.9664,1.9664,1.9664,1.9664,1.9664,3.6941,3.6941,3.6941,3.6941,3.6981,3.7008,3.7008,3.7048,3.7088,3.7088,3.7088,3.7088,3.7088,3.7088,3.6945,3.6761,3.6787,3.6428,3.5521,3.5534,3.5052,3.3907,3.2793,3.1904,3.1188,2.9334,2.66,2.3005,2.232,2.1631,2.0904,2.0035,1.9657,1.931,1.9269,1.918,1.9042,1.9035,1.9015,1.9001,1.8762,1.8762,1.8762,1.8762,1.8762,1.8762,1.8762,1.8762,1.8762,1.8762,1.8762,1.8762,1.8762,1.8762,1.8762,1.8762,1.8762,1.8762,1.8762,1.8762,1.8762,1.8762,1.8762,1.8762,1.8762,1.8762,1.8762,1.8762,1.8762,1.8762,1.8762,1.8762,1.8762,1.8762,1.8762,1.8762,1.8762,1.8762,1.8762,1.8762,1.8762,1.8762,1.8762,1.8884,1.8959,1.8993,1.9094,1.9183,1.9203,1.9325,1.9393,1.9393,1.9522,1.959,1.9624,1.9624,1.9644,1.9664,1.9664,1.9664,1.9664,1.9664,1.9664,1.9664,1.9664,1.9664,1.9664,1.9664,1.9664,1.9664,1.9664,1.9664,1.9664,1.9664,1.9664,1.9664,3.6941,3.6941,3.6941,3.6941,3.7155,3.7315,3.7315,3.7529,3.7702,3.7702,3.7702,3.7702,3.7702,3.7702,3.7702,3.7543,3.7529,3.7529,3.7356,3.6901,3.6674,3.642,3.5543,3.4718,3.4023,3.3326,3.0988,2.6563,2.4828,2.372,2.2989,2.2335,2.1533,2.1041,2.0886,2.0731,2.0591,2.0123,1.9811,1.9444,1.9001,1.8762,1.8762,1.8762,1.8762,1.8762,1.8762,1.8762,1.8762,1.8762,1.8762,1.8762,1.8762,1.8762,1.8762,1.8762,1.8762,1.8762,1.8762,1.8762,1.8762,1.8762,1.8762,1.8762,1.8762,1.8762,1.8762,1.8762,1.8762,1.8762,1.8762,1.8762,1.8762,1.8762,1.8762,1.8762,1.8762,1.8762,1.8762,1.8762,1.8762,1.8762,1.8762,1.8782,1.885,1.8972,1.9006,1.9081,1.9203,1.9217,1.9237,1.9237,1.9257,1.9325,1.9468,1.9468,1.9535,1.9664,1.9664,1.9664,1.9664,1.9664,1.9664,1.9664,1.9664,1.9664,1.9664,1.9664,1.9664,1.9664,1.9664,1.9664,1.9664,1.9664,1.9664,1.9664,3.6941,3.6941,3.6981,3.7155,3.7301,3.7448,3.7595,3.7742,3.7809,3.7809,3.7809,3.7809,3.7809,3.7809,3.7889,3.8036,3.8076,3.8143,3.8317,3.81,3.7844,3.7844,3.7296,3.6664,3.6407,3.5599,3.417,3.1941,2.9178,2.709,2.5644,2.4846,2.429,2.3482,2.2925,2.2796,2.2627,2.1938,2.161,2.1441,2.0743,2.0219,1.9683,1.9458,1.8987,1.8762,1.8762,1.8762,1.8762,1.8762,1.8762,1.8762,1.8762,1.8762,1.8762,1.8762,1.8762,1.8762,1.8762,1.8762,1.8762,1.8762,1.8762,1.8762,1.8762,1.8762,1.8762,1.8762,1.8762,1.8762,1.8762,1.8762,1.8762,1.8762,1.8762,1.8762,1.8762,1.8762,1.8762,1.8762,1.8762,1.8762,1.8762,1.8762,1.8796,1.885,1.8871,1.8884,1.8959,1.904,1.9081,1.9081,1.9169,1.9237,1.9305,1.9305,1.9379,1.9535,1.9535,1.9576,1.9664,1.9664,1.9664,1.9664,1.9664,1.9664,1.9664,1.9664,1.9664,1.9664,1.9664,1.9664,1.9664,1.9664,1.9664,1.9644]}]]